Wetterdaten: Montag, 19.06.2023
Datum Zeit Temp. I. Temp. A. Feuchte I. Feuchte A. Luftdruck Regen Wind Richtung Richtung Sonnenschein Solar Taupunkt Windchill Windböen
19.06.2023 00:00 22,8 °C 17,1 °C 56 % 80 % 1013,2 hPa 0,0 l/m² 0,0 km/h (0 Bft) O-NO 67 ° 0 min 0 W/m² 13,6 °C 17,1 °C 0,0 km/h (0 Bft)
19.06.2023 00:01 22,8 °C 17,1 °C 56 % 80 % 1013,2 hPa 0,0 l/m² 0,0 km/h (0 Bft) O-NO 67 ° 0 min 0 W/m² 13,6 °C 17,1 °C 0,0 km/h (0 Bft)
19.06.2023 00:02 22,8 °C 17,1 °C 56 % 80 % 1013,2 hPa 0,0 l/m² 0,0 km/h (0 Bft) O-NO 67 ° 0 min 0 W/m² 13,6 °C 17,1 °C 0,0 km/h (0 Bft)
19.06.2023 00:04 22,8 °C 17,1 °C 56 % 79 % 1013,2 hPa 0,0 l/m² 0,0 km/h (0 Bft) O-NO 67 ° 0 min 0 W/m² 13,4 °C 17,1 °C 0,0 km/h (0 Bft)
19.06.2023 00:06 22,8 °C 17,1 °C 56 % 79 % 1013,1 hPa 0,0 l/m² 0,0 km/h (0 Bft) O-NO 67 ° 0 min 0 W/m² 13,4 °C 17,1 °C 0,0 km/h (0 Bft)
19.06.2023 00:08 22,8 °C 17,1 °C 56 % 79 % 1013,2 hPa 0,0 l/m² 0,6 km/h (0 Bft) O-NO 67 ° 0 min 0 W/m² 13,4 °C 17,1 °C 1,6 km/h (1 Bft)
19.06.2023 00:10 22,8 °C 17,0 °C 56 % 79 % 1013,2 hPa 0,0 l/m² 1,6 km/h (1 Bft) O-NO 67 ° 0 min 0 W/m² 13,3 °C 17,0 °C 3,2 km/h (1 Bft)
19.06.2023 00:11 22,8 °C 17,1 °C 56 % 80 % 1013,2 hPa 0,0 l/m² 2,1 km/h (1 Bft) O-NO 67 ° 0 min 0 W/m² 13,6 °C 17,1 °C 3,2 km/h (1 Bft)
19.06.2023 00:12 22,8 °C 17,0 °C 56 % 80 % 1013,2 hPa 0,0 l/m² 2,0 km/h (1 Bft) O-NO 67 ° 0 min 0 W/m² 13,5 °C 17,0 °C 3,2 km/h (1 Bft)
19.06.2023 00:13 22,8 °C 17,0 °C 56 % 80 % 1013,2 hPa 0,0 l/m² 0,4 km/h (0 Bft) O-NO 67 ° 0 min 0 W/m² 13,5 °C 17,0 °C 1,6 km/h (1 Bft)
19.06.2023 00:14 22,8 °C 17,0 °C 56 % 80 % 1013,2 hPa 0,0 l/m² 0,0 km/h (0 Bft) O-NO 67 ° 0 min 0 W/m² 13,5 °C 17,0 °C 0,0 km/h (0 Bft)
19.06.2023 00:16 22,8 °C 16,9 °C 56 % 79 % 1013,2 hPa 0,0 l/m² 0,0 km/h (0 Bft) O-NO 67 ° 0 min 0 W/m² 13,2 °C 16,9 °C 0,0 km/h (0 Bft)
19.06.2023 00:18 22,8 °C 16,8 °C 56 % 79 % 1013,2 hPa 0,0 l/m² 0,0 km/h (0 Bft) O-NO 67 ° 0 min 0 W/m² 13,1 °C 16,8 °C 0,0 km/h (0 Bft)
19.06.2023 00:20 22,8 °C 16,9 °C 56 % 81 % 1013,2 hPa 0,0 l/m² 0,0 km/h (0 Bft) O-NO 67 ° 0 min 0 W/m² 13,6 °C 16,9 °C 0,0 km/h (0 Bft)
19.06.2023 00:22 22,8 °C 16,9 °C 56 % 81 % 1013,2 hPa 0,0 l/m² 0,0 km/h (0 Bft) O-NO 67 ° 0 min 0 W/m² 13,6 °C 16,9 °C 0,0 km/h (0 Bft)
19.06.2023 00:23 22,7 °C 16,9 °C 56 % 81 % 1013,2 hPa 0,0 l/m² 0,0 km/h (0 Bft) O-NO 67 ° 0 min 0 W/m² 13,6 °C 16,9 °C 0,0 km/h (0 Bft)
19.06.2023 00:24 22,7 °C 16,9 °C 56 % 81 % 1013,2 hPa 0,0 l/m² 0,0 km/h (0 Bft) O-NO 67 ° 0 min 0 W/m² 13,6 °C 16,9 °C 0,0 km/h (0 Bft)
19.06.2023 00:26 22,8 °C 16,9 °C 56 % 81 % 1013,1 hPa 0,0 l/m² 0,0 km/h (0 Bft) O-NO 67 ° 0 min 0 W/m² 13,6 °C 16,9 °C 0,0 km/h (0 Bft)
19.06.2023 00:28 22,7 °C 16,9 °C 56 % 81 % 1013,2 hPa 0,0 l/m² 0,0 km/h (0 Bft) O-NO 67 ° 0 min 0 W/m² 13,6 °C 16,9 °C 0,0 km/h (0 Bft)
19.06.2023 00:30 22,7 °C 16,9 °C 56 % 81 % 1013,1 hPa 0,0 l/m² 0,0 km/h (0 Bft) O-NO 67 ° 0 min 0 W/m² 13,6 °C 16,9 °C 0,0 km/h (0 Bft)
19.06.2023 00:32 22,8 °C 17,0 °C 56 % 80 % 1013,1 hPa 0,0 l/m² 0,0 km/h (0 Bft) O-NO 67 ° 0 min 0 W/m² 13,5 °C 17,0 °C 0,0 km/h (0 Bft)
19.06.2023 00:33 22,8 °C 16,9 °C 56 % 80 % 1013,1 hPa 0,0 l/m² 0,0 km/h (0 Bft) O-NO 67 ° 0 min 0 W/m² 13,4 °C 16,9 °C 0,0 km/h (0 Bft)
19.06.2023 00:34 22,7 °C 17,0 °C 56 % 80 % 1013,1 hPa 0,0 l/m² 0,0 km/h (0 Bft) O-NO 67 ° 0 min 0 W/m² 13,5 °C 17,0 °C 0,0 km/h (0 Bft)
19.06.2023 00:36 22,8 °C 16,9 °C 56 % 80 % 1013,2 hPa 0,0 l/m² 0,0 km/h (0 Bft) O-NO 67 ° 0 min 0 W/m² 13,4 °C 16,9 °C 0,0 km/h (0 Bft)
19.06.2023 00:38 22,8 °C 16,9 °C 56 % 81 % 1013,1 hPa 0,0 l/m² 0,0 km/h (0 Bft) O-NO 67 ° 0 min 0 W/m² 13,6 °C 16,9 °C 0,0 km/h (0 Bft)
19.06.2023 00:40 22,7 °C 17,0 °C 56 % 80 % 1013,1 hPa 0,0 l/m² 0,0 km/h (0 Bft) O-NO 67 ° 0 min 0 W/m² 13,5 °C 17,0 °C 0,0 km/h (0 Bft)
19.06.2023 00:42 22,7 °C 17,1 °C 56 % 79 % 1013,1 hPa 0,0 l/m² 0,0 km/h (0 Bft) O-NO 67 ° 0 min 0 W/m² 13,4 °C 17,1 °C 0,0 km/h (0 Bft)
19.06.2023 00:43 22,7 °C 17,2 °C 56 % 79 % 1013,1 hPa 0,0 l/m² 0,0 km/h (0 Bft) O-NO 67 ° 0 min 0 W/m² 13,5 °C 17,2 °C 0,0 km/h (0 Bft)
19.06.2023 00:45 22,7 °C 17,2 °C 56 % 79 % 1013,1 hPa 0,0 l/m² 0,0 km/h (0 Bft) O-NO 67 ° 0 min 0 W/m² 13,5 °C 17,2 °C 0,0 km/h (0 Bft)
19.06.2023 00:46 22,7 °C 17,3 °C 56 % 78 % 1013,1 hPa 0,0 l/m² 0,0 km/h (0 Bft) O-NO 67 ° 0 min 0 W/m² 13,4 °C 17,3 °C 0,0 km/h (0 Bft)
19.06.2023 00:47 22,8 °C 17,3 °C 56 % 78 % 1013,1 hPa 0,0 l/m² 0,0 km/h (0 Bft) O-NO 67 ° 0 min 0 W/m² 13,4 °C 17,3 °C 0,0 km/h (0 Bft)
19.06.2023 00:48 22,7 °C 17,3 °C 56 % 78 % 1013,1 hPa 0,0 l/m² 0,3 km/h (0 Bft) O-NO 67 ° 0 min 0 W/m² 13,4 °C 17,3 °C 1,6 km/h (1 Bft)
19.06.2023 00:49 22,7 °C 17,2 °C 56 % 78 % 1013,2 hPa 0,0 l/m² 1,8 km/h (1 Bft) O-NO 67 ° 0 min 0 W/m² 13,3 °C 17,2 °C 3,2 km/h (1 Bft)
19.06.2023 00:52 22,7 °C 16,8 °C 56 % 78 % 1013,1 hPa 0,0 l/m² 0,5 km/h (0 Bft) O-NO 67 ° 0 min 0 W/m² 12,9 °C 16,8 °C 1,6 km/h (1 Bft)
19.06.2023 00:53 22,7 °C 16,7 °C 56 % 79 % 1013,1 hPa 0,0 l/m² 0,0 km/h (0 Bft) O-NO 67 ° 0 min 0 W/m² 13,0 °C 16,7 °C 0,0 km/h (0 Bft)
19.06.2023 00:54 22,7 °C 16,7 °C 56 % 80 % 1013,1 hPa 0,0 l/m² 0,1 km/h (0 Bft) O-NO 67 ° 0 min 0 W/m² 13,2 °C 16,7 °C 1,6 km/h (1 Bft)
19.06.2023 00:55 22,7 °C 16,8 °C 56 % 81 % 1013,1 hPa 0,0 l/m² 0,0 km/h (0 Bft) O-NO 67 ° 0 min 0 W/m² 13,5 °C 16,8 °C 0,0 km/h (0 Bft)
19.06.2023 00:56 22,7 °C 16,8 °C 56 % 81 % 1013,1 hPa 0,0 l/m² 0,1 km/h (0 Bft) O-NO 67 ° 0 min 0 W/m² 13,5 °C 16,8 °C 1,6 km/h (1 Bft)
19.06.2023 00:57 22,7 °C 16,8 °C 56 % 80 % 1013,0 hPa 0,0 l/m² 0,3 km/h (0 Bft) O-NO 67 ° 0 min 0 W/m² 13,3 °C 16,8 °C 1,6 km/h (1 Bft)
19.06.2023 00:58 22,8 °C 16,8 °C 56 % 80 % 1013,0 hPa 0,0 l/m² 0,7 km/h (0 Bft) O-NO 67 ° 0 min 0 W/m² 13,3 °C 16,8 °C 1,6 km/h (1 Bft)
19.06.2023 00:59 22,7 °C 16,8 °C 56 % 80 % 1013,0 hPa 0,0 l/m² 0,6 km/h (0 Bft) O-NO 67 ° 0 min 0 W/m² 13,3 °C 16,8 °C 1,6 km/h (1 Bft)
19.06.2023 01:01 22,7 °C 16,9 °C 56 % 80 % 1013,1 hPa 0,0 l/m² 0,9 km/h (0 Bft) O-NO 67 ° 0 min 0 W/m² 13,4 °C 16,9 °C 4,8 km/h (1 Bft)
19.06.2023 01:02 22,7 °C 16,8 °C 56 % 79 % 1013,0 hPa 0,0 l/m² 1,1 km/h (1 Bft) O-NO 67 ° 0 min 0 W/m² 13,1 °C 16,8 °C 3,2 km/h (1 Bft)
19.06.2023 01:03 22,7 °C 16,8 °C 56 % 79 % 1013,0 hPa 0,0 l/m² 0,0 km/h (0 Bft) O-NO 67 ° 0 min 0 W/m² 13,1 °C 16,8 °C 0,0 km/h (0 Bft)
19.06.2023 01:04 22,7 °C 16,7 °C 56 % 79 % 1013,1 hPa 0,0 l/m² 0,0 km/h (0 Bft) O-NO 67 ° 0 min 0 W/m² 13,0 °C 16,7 °C 0,0 km/h (0 Bft)
19.06.2023 01:05 22,7 °C 16,6 °C 56 % 80 % 1013,1 hPa 0,0 l/m² 0,0 km/h (0 Bft) O-NO 67 ° 0 min 0 W/m² 13,1 °C 16,6 °C 0,0 km/h (0 Bft)
19.06.2023 01:06 22,7 °C 16,6 °C 56 % 80 % 1013,0 hPa 0,0 l/m² 1,4 km/h (1 Bft) O-NO 67 ° 0 min 0 W/m² 13,1 °C 16,6 °C 3,2 km/h (1 Bft)
19.06.2023 01:07 22,8 °C 16,5 °C 56 % 81 % 1013,1 hPa 0,0 l/m² 0,8 km/h (0 Bft) O-NO 67 ° 0 min 0 W/m² 13,2 °C 16,5 °C 1,6 km/h (1 Bft)
19.06.2023 01:08 22,7 °C 16,5 °C 56 % 81 % 1013,1 hPa 0,0 l/m² 0,8 km/h (0 Bft) O-NO 67 ° 0 min 0 W/m² 13,2 °C 16,5 °C 1,6 km/h (1 Bft)
19.06.2023 01:09 22,7 °C 16,5 °C 56 % 82 % 1013,0 hPa 0,0 l/m² 0,5 km/h (0 Bft) O-NO 67 ° 0 min 0 W/m² 13,4 °C 16,5 °C 1,6 km/h (1 Bft)
19.06.2023 01:12 22,7 °C 16,4 °C 56 % 82 % 1012,9 hPa 0,0 l/m² 0,0 km/h (0 Bft) O-NO 67 ° 0 min 0 W/m² 13,3 °C 16,4 °C 0,0 km/h (0 Bft)
19.06.2023 01:13 22,7 °C 16,4 °C 56 % 82 % 1012,9 hPa 0,0 l/m² 0,0 km/h (0 Bft) O-NO 67 ° 0 min 0 W/m² 13,3 °C 16,4 °C 0,0 km/h (0 Bft)
19.06.2023 01:14 22,7 °C 16,4 °C 56 % 82 % 1012,9 hPa 0,0 l/m² 0,0 km/h (0 Bft) O-NO 67 ° 0 min 0 W/m² 13,3 °C 16,4 °C 0,0 km/h (0 Bft)
19.06.2023 01:15 22,7 °C 16,4 °C 56 % 82 % 1012,9 hPa 0,0 l/m² 0,0 km/h (0 Bft) O-NO 67 ° 0 min 0 W/m² 13,3 °C 16,4 °C 0,0 km/h (0 Bft)
19.06.2023 01:16 22,7 °C 16,4 °C 56 % 82 % 1013,0 hPa 0,0 l/m² 0,0 km/h (0 Bft) O-NO 67 ° 0 min 0 W/m² 13,3 °C 16,4 °C 0,0 km/h (0 Bft)
19.06.2023 01:17 22,7 °C 16,4 °C 56 % 82 % 1012,9 hPa 0,0 l/m² 0,0 km/h (0 Bft) O-NO 67 ° 0 min 0 W/m² 13,3 °C 16,4 °C 0,0 km/h (0 Bft)
19.06.2023 01:18 22,7 °C 16,4 °C 56 % 81 % 1013,0 hPa 0,0 l/m² 0,0 km/h (0 Bft) O-NO 67 ° 0 min 0 W/m² 13,1 °C 16,4 °C 0,0 km/h (0 Bft)
19.06.2023 01:19 22,7 °C 16,4 °C 56 % 81 % 1013,0 hPa 0,0 l/m² 0,0 km/h (0 Bft) O-NO 67 ° 0 min 0 W/m² 13,1 °C 16,4 °C 0,0 km/h (0 Bft)
19.06.2023 01:20 22,7 °C 16,4 °C 56 % 81 % 1013,0 hPa 0,0 l/m² 0,0 km/h (0 Bft) O-NO 67 ° 0 min 0 W/m² 13,1 °C 16,4 °C 0,0 km/h (0 Bft)
19.06.2023 01:22 22,7 °C 16,3 °C 56 % 81 % 1012,9 hPa 0,0 l/m² 0,0 km/h (0 Bft) O-NO 67 ° 0 min 0 W/m² 13,0 °C 16,3 °C 0,0 km/h (0 Bft)
19.06.2023 01:23 22,7 °C 16,4 °C 56 % 81 % 1013,0 hPa 0,0 l/m² 0,0 km/h (0 Bft) O-NO 67 ° 0 min 0 W/m² 13,1 °C 16,4 °C 0,0 km/h (0 Bft)
19.06.2023 01:24 22,7 °C 16,4 °C 56 % 81 % 1013,0 hPa 0,0 l/m² 0,0 km/h (0 Bft) O-NO 67 ° 0 min 0 W/m² 13,1 °C 16,4 °C 0,0 km/h (0 Bft)
19.06.2023 01:25 22,7 °C 16,4 °C 56 % 81 % 1012,9 hPa 0,0 l/m² 0,0 km/h (0 Bft) O-NO 67 ° 0 min 0 W/m² 13,1 °C 16,4 °C 0,0 km/h (0 Bft)
19.06.2023 01:26 22,7 °C 16,4 °C 56 % 81 % 1012,9 hPa 0,0 l/m² 0,0 km/h (0 Bft) O-NO 67 ° 0 min 0 W/m² 13,1 °C 16,4 °C 0,0 km/h (0 Bft)
19.06.2023 01:27 22,7 °C 16,3 °C 56 % 81 % 1013,0 hPa 0,0 l/m² 0,0 km/h (0 Bft) O-NO 67 ° 0 min 0 W/m² 13,0 °C 16,3 °C 0,0 km/h (0 Bft)
19.06.2023 01:28 22,7 °C 16,4 °C 56 % 81 % 1013,0 hPa 0,0 l/m² 0,0 km/h (0 Bft) O-NO 67 ° 0 min 0 W/m² 13,1 °C 16,4 °C 0,0 km/h (0 Bft)
19.06.2023 01:29 22,7 °C 16,4 °C 56 % 81 % 1013,0 hPa 0,0 l/m² 0,0 km/h (0 Bft) O-NO 67 ° 0 min 0 W/m² 13,1 °C 16,4 °C 0,0 km/h (0 Bft)
19.06.2023 01:32 22,7 °C 16,3 °C 56 % 81 % 1013,0 hPa 0,0 l/m² 0,0 km/h (0 Bft) O-NO 67 ° 0 min 0 W/m² 13,0 °C 16,3 °C 0,0 km/h (0 Bft)
19.06.2023 01:33 22,7 °C 16,2 °C 56 % 81 % 1012,9 hPa 0,0 l/m² 0,0 km/h (0 Bft) O-NO 67 ° 0 min 0 W/m² 12,9 °C 16,2 °C 0,0 km/h (0 Bft)
19.06.2023 01:34 22,7 °C 16,2 °C 56 % 81 % 1012,9 hPa 0,0 l/m² 0,0 km/h (0 Bft) O-NO 67 ° 0 min 0 W/m² 12,9 °C 16,2 °C 0,0 km/h (0 Bft)
19.06.2023 01:35 22,7 °C 16,2 °C 56 % 81 % 1012,9 hPa 0,0 l/m² 0,0 km/h (0 Bft) O-NO 67 ° 0 min 0 W/m² 12,9 °C 16,2 °C 0,0 km/h (0 Bft)
19.06.2023 01:36 22,7 °C 16,2 °C 56 % 81 % 1012,9 hPa 0,0 l/m² 0,0 km/h (0 Bft) O-NO 67 ° 0 min 0 W/m² 12,9 °C 16,2 °C 0,0 km/h (0 Bft)
19.06.2023 01:37 22,7 °C 16,2 °C 56 % 82 % 1013,0 hPa 0,0 l/m² 0,0 km/h (0 Bft) O-NO 67 ° 0 min 0 W/m² 13,1 °C 16,2 °C 0,0 km/h (0 Bft)
19.06.2023 01:38 22,7 °C 16,1 °C 56 % 82 % 1012,9 hPa 0,0 l/m² 0,0 km/h (0 Bft) O-NO 67 ° 0 min 0 W/m² 13,0 °C 16,1 °C 0,0 km/h (0 Bft)
19.06.2023 01:39 22,7 °C 16,2 °C 56 % 82 % 1012,9 hPa 0,0 l/m² 0,0 km/h (0 Bft) O-NO 67 ° 0 min 0 W/m² 13,1 °C 16,2 °C 0,0 km/h (0 Bft)
19.06.2023 01:41 22,7 °C 16,2 °C 56 % 82 % 1013,0 hPa 0,0 l/m² 0,0 km/h (0 Bft) O-NO 67 ° 0 min 0 W/m² 13,1 °C 16,2 °C 0,0 km/h (0 Bft)
19.06.2023 01:42 22,7 °C 16,2 °C 56 % 81 % 1013,0 hPa 0,0 l/m² 0,0 km/h (0 Bft) O-NO 67 ° 0 min 0 W/m² 12,9 °C 16,2 °C 0,0 km/h (0 Bft)
19.06.2023 01:43 22,7 °C 16,2 °C 56 % 81 % 1012,9 hPa 0,0 l/m² 0,0 km/h (0 Bft) O-NO 67 ° 0 min 0 W/m² 12,9 °C 16,2 °C 0,0 km/h (0 Bft)
19.06.2023 01:44 22,7 °C 16,1 °C 56 % 80 % 1012,9 hPa 0,0 l/m² 0,0 km/h (0 Bft) O-NO 67 ° 0 min 0 W/m² 12,6 °C 16,1 °C 0,0 km/h (0 Bft)
19.06.2023 01:45 22,7 °C 16,0 °C 56 % 80 % 1012,9 hPa 0,0 l/m² 0,0 km/h (0 Bft) O-NO 67 ° 0 min 0 W/m² 12,5 °C 16,0 °C 0,0 km/h (0 Bft)
19.06.2023 01:46 22,7 °C 15,9 °C 56 % 80 % 1012,9 hPa 0,0 l/m² 0,0 km/h (0 Bft) O-NO 67 ° 0 min 0 W/m² 12,5 °C 15,9 °C 0,0 km/h (0 Bft)
19.06.2023 01:47 22,7 °C 15,9 °C 56 % 80 % 1012,9 hPa 0,0 l/m² 0,0 km/h (0 Bft) O-NO 67 ° 0 min 0 W/m² 12,5 °C 15,9 °C 0,0 km/h (0 Bft)
19.06.2023 01:48 22,7 °C 15,9 °C 56 % 81 % 1012,9 hPa 0,0 l/m² 0,0 km/h (0 Bft) O-NO 67 ° 0 min 0 W/m² 12,6 °C 15,9 °C 0,0 km/h (0 Bft)
19.06.2023 01:49 22,7 °C 15,9 °C 56 % 81 % 1013,0 hPa 0,0 l/m² 0,0 km/h (0 Bft) O-NO 67 ° 0 min 0 W/m² 12,6 °C 15,9 °C 0,0 km/h (0 Bft)
19.06.2023 01:51 22,7 °C 15,9 °C 56 % 81 % 1012,9 hPa 0,0 l/m² 0,0 km/h (0 Bft) O-NO 67 ° 0 min 0 W/m² 12,6 °C 15,9 °C 0,0 km/h (0 Bft)
19.06.2023 01:53 22,7 °C 15,8 °C 56 % 81 % 1013,0 hPa 0,0 l/m² 0,0 km/h (0 Bft) O-NO 67 ° 0 min 0 W/m² 12,5 °C 15,8 °C 0,0 km/h (0 Bft)
19.06.2023 01:54 22,7 °C 15,8 °C 56 % 81 % 1013,1 hPa 0,0 l/m² 0,0 km/h (0 Bft) O-NO 67 ° 0 min 0 W/m² 12,5 °C 15,8 °C 0,0 km/h (0 Bft)
19.06.2023 01:55 22,7 °C 15,8 °C 56 % 81 % 1013,0 hPa 0,0 l/m² 0,2 km/h (0 Bft) O-NO 67 ° 0 min 0 W/m² 12,5 °C 15,8 °C 1,6 km/h (1 Bft)
19.06.2023 01:56 22,7 °C 15,8 °C 56 % 81 % 1013,0 hPa 0,0 l/m² 0,4 km/h (0 Bft) O-NO 67 ° 0 min 0 W/m² 12,5 °C 15,8 °C 1,6 km/h (1 Bft)
19.06.2023 01:57 22,7 °C 15,8 °C 56 % 82 % 1013,0 hPa 0,0 l/m² 0,0 km/h (0 Bft) O-NO 67 ° 0 min 0 W/m² 12,7 °C 15,8 °C 0,0 km/h (0 Bft)
19.06.2023 01:58 22,7 °C 15,8 °C 56 % 82 % 1013,0 hPa 0,0 l/m² 0,0 km/h (0 Bft) O-NO 67 ° 0 min 0 W/m² 12,7 °C 15,8 °C 0,0 km/h (0 Bft)
19.06.2023 01:59 22,7 °C 15,9 °C 56 % 83 % 1013,0 hPa 0,0 l/m² 0,0 km/h (0 Bft) O-NO 67 ° 0 min 0 W/m² 13,0 °C 15,9 °C 0,0 km/h (0 Bft)
19.06.2023 02:01 22,7 °C 15,9 °C 56 % 83 % 1013,0 hPa 0,0 l/m² 0,0 km/h (0 Bft) O-NO 67 ° 0 min 0 W/m² 13,0 °C 15,9 °C 0,0 km/h (0 Bft)
19.06.2023 02:03 22,7 °C 15,9 °C 56 % 84 % 1012,9 hPa 0,0 l/m² 0,1 km/h (0 Bft) O-NO 67 ° 0 min 0 W/m² 13,2 °C 15,9 °C 1,6 km/h (1 Bft)
19.06.2023 02:04 22,7 °C 16,0 °C 56 % 84 % 1012,9 hPa 0,0 l/m² 0,0 km/h (0 Bft) O-NO 67 ° 0 min 0 W/m² 13,3 °C 16,0 °C 0,0 km/h (0 Bft)
19.06.2023 02:05 22,7 °C 16,0 °C 56 % 84 % 1012,9 hPa 0,0 l/m² 0,0 km/h (0 Bft) O-NO 67 ° 0 min 0 W/m² 13,3 °C 16,0 °C 0,0 km/h (0 Bft)
19.06.2023 02:06 22,7 °C 16,0 °C 56 % 84 % 1012,9 hPa 0,0 l/m² 0,0 km/h (0 Bft) O-NO 67 ° 0 min 0 W/m² 13,3 °C 16,0 °C 0,0 km/h (0 Bft)
19.06.2023 02:07 22,7 °C 16,1 °C 56 % 84 % 1012,9 hPa 0,0 l/m² 0,0 km/h (0 Bft) O-NO 67 ° 0 min 0 W/m² 13,4 °C 16,1 °C 0,0 km/h (0 Bft)
19.06.2023 02:08 22,7 °C 16,1 °C 56 % 84 % 1012,9 hPa 0,0 l/m² 0,0 km/h (0 Bft) O-NO 67 ° 0 min 0 W/m² 13,4 °C 16,1 °C 0,0 km/h (0 Bft)
19.06.2023 02:09 22,7 °C 16,1 °C 56 % 83 % 1012,9 hPa 0,0 l/m² 0,0 km/h (0 Bft) O-NO 67 ° 0 min 0 W/m² 13,2 °C 16,1 °C 0,0 km/h (0 Bft)
19.06.2023 02:11 22,7 °C 16,1 °C 56 % 83 % 1012,9 hPa 0,0 l/m² 0,0 km/h (0 Bft) O-NO 67 ° 0 min 0 W/m² 13,2 °C 16,1 °C 0,0 km/h (0 Bft)
19.06.2023 02:13 22,7 °C 16,2 °C 56 % 83 % 1012,9 hPa 0,0 l/m² 0,0 km/h (0 Bft) O-NO 67 ° 0 min 0 W/m² 13,3 °C 16,2 °C 0,0 km/h (0 Bft)
19.06.2023 02:14 22,7 °C 16,2 °C 56 % 83 % 1012,9 hPa 0,0 l/m² 0,0 km/h (0 Bft) O-NO 67 ° 0 min 0 W/m² 13,3 °C 16,2 °C 0,0 km/h (0 Bft)
19.06.2023 02:15 22,7 °C 16,2 °C 56 % 83 % 1012,8 hPa 0,0 l/m² 0,0 km/h (0 Bft) O-NO 67 ° 0 min 0 W/m² 13,3 °C 16,2 °C 0,0 km/h (0 Bft)
19.06.2023 02:16 22,7 °C 16,2 °C 56 % 83 % 1012,9 hPa 0,0 l/m² 0,0 km/h (0 Bft) O-NO 67 ° 0 min 0 W/m² 13,3 °C 16,2 °C 0,0 km/h (0 Bft)
19.06.2023 02:17 22,7 °C 16,2 °C 56 % 83 % 1012,9 hPa 0,0 l/m² 0,0 km/h (0 Bft) O-NO 67 ° 0 min 0 W/m² 13,3 °C 16,2 °C 0,0 km/h (0 Bft)
19.06.2023 02:18 22,7 °C 16,2 °C 56 % 83 % 1012,9 hPa 0,0 l/m² 0,0 km/h (0 Bft) O-NO 67 ° 0 min 0 W/m² 13,3 °C 16,2 °C 0,0 km/h (0 Bft)
19.06.2023 02:19 22,7 °C 16,2 °C 56 % 82 % 1012,9 hPa 0,0 l/m² 0,0 km/h (0 Bft) O-NO 67 ° 0 min 0 W/m² 13,1 °C 16,2 °C 0,0 km/h (0 Bft)
19.06.2023 02:21 22,7 °C 16,2 °C 56 % 82 % 1012,9 hPa 0,0 l/m² 0,0 km/h (0 Bft) O-NO 67 ° 0 min 0 W/m² 13,1 °C 16,2 °C 0,0 km/h (0 Bft)
19.06.2023 02:23 22,7 °C 16,2 °C 56 % 81 % 1012,8 hPa 0,0 l/m² 0,0 km/h (0 Bft) O-NO 67 ° 0 min 0 W/m² 12,9 °C 16,2 °C 0,0 km/h (0 Bft)
19.06.2023 02:24 22,7 °C 16,1 °C 56 % 81 % 1012,8 hPa 0,0 l/m² 0,0 km/h (0 Bft) O-NO 67 ° 0 min 0 W/m² 12,8 °C 16,1 °C 0,0 km/h (0 Bft)
19.06.2023 02:25 22,7 °C 16,1 °C 56 % 81 % 1012,8 hPa 0,0 l/m² 0,0 km/h (0 Bft) O-NO 67 ° 0 min 0 W/m² 12,8 °C 16,1 °C 0,0 km/h (0 Bft)
19.06.2023 02:26 22,7 °C 16,1 °C 56 % 81 % 1012,9 hPa 0,0 l/m² 0,0 km/h (0 Bft) O-NO 67 ° 0 min 0 W/m² 12,8 °C 16,1 °C 0,0 km/h (0 Bft)
19.06.2023 02:27 22,7 °C 16,0 °C 56 % 81 % 1012,8 hPa 0,0 l/m² 0,0 km/h (0 Bft) O-NO 67 ° 0 min 0 W/m² 12,7 °C 16,0 °C 0,0 km/h (0 Bft)
19.06.2023 02:28 22,7 °C 16,0 °C 56 % 81 % 1012,8 hPa 0,0 l/m² 0,0 km/h (0 Bft) O-NO 67 ° 0 min 0 W/m² 12,7 °C 16,0 °C 0,0 km/h (0 Bft)
19.06.2023 02:29 22,7 °C 16,0 °C 56 % 81 % 1012,9 hPa 0,0 l/m² 0,0 km/h (0 Bft) O-NO 67 ° 0 min 0 W/m² 12,7 °C 16,0 °C 0,0 km/h (0 Bft)
19.06.2023 02:30 22,7 °C 16,0 °C 56 % 81 % 1012,8 hPa 0,0 l/m² 0,0 km/h (0 Bft) O-NO 67 ° 0 min 0 W/m² 12,7 °C 16,0 °C 0,0 km/h (0 Bft)
19.06.2023 02:32 22,7 °C 16,1 °C 56 % 82 % 1012,7 hPa 0,0 l/m² 0,0 km/h (0 Bft) O-NO 67 ° 0 min 0 W/m² 13,0 °C 16,1 °C 0,0 km/h (0 Bft)
19.06.2023 02:33 22,7 °C 16,1 °C 56 % 82 % 1012,7 hPa 0,0 l/m² 0,0 km/h (0 Bft) O-NO 67 ° 0 min 0 W/m² 13,0 °C 16,1 °C 0,0 km/h (0 Bft)
19.06.2023 02:34 22,7 °C 16,1 °C 56 % 82 % 1012,7 hPa 0,0 l/m² 0,0 km/h (0 Bft) O-NO 67 ° 0 min 0 W/m² 13,0 °C 16,1 °C 0,0 km/h (0 Bft)
19.06.2023 02:35 22,7 °C 16,1 °C 56 % 82 % 1012,8 hPa 0,0 l/m² 0,0 km/h (0 Bft) O-NO 67 ° 0 min 0 W/m² 13,0 °C 16,1 °C 0,0 km/h (0 Bft)
19.06.2023 02:36 22,7 °C 16,2 °C 56 % 82 % 1012,7 hPa 0,0 l/m² 0,0 km/h (0 Bft) O-NO 67 ° 0 min 0 W/m² 13,1 °C 16,2 °C 0,0 km/h (0 Bft)
19.06.2023 02:37 22,7 °C 16,2 °C 56 % 82 % 1012,7 hPa 0,0 l/m² 0,0 km/h (0 Bft) O-NO 67 ° 0 min 0 W/m² 13,1 °C 16,2 °C 0,0 km/h (0 Bft)
19.06.2023 02:38 22,7 °C 16,2 °C 56 % 82 % 1012,7 hPa 0,0 l/m² 0,0 km/h (0 Bft) O-NO 67 ° 0 min 0 W/m² 13,1 °C 16,2 °C 0,0 km/h (0 Bft)
19.06.2023 02:39 22,7 °C 16,2 °C 56 % 82 % 1012,7 hPa 0,0 l/m² 0,0 km/h (0 Bft) O-NO 67 ° 0 min 0 W/m² 13,1 °C 16,2 °C 0,0 km/h (0 Bft)
19.06.2023 02:41 22,7 °C 16,2 °C 56 % 82 % 1012,6 hPa 0,0 l/m² 0,0 km/h (0 Bft) O-NO 67 ° 0 min 0 W/m² 13,1 °C 16,2 °C 0,0 km/h (0 Bft)
19.06.2023 02:43 22,7 °C 16,2 °C 56 % 82 % 1012,6 hPa 0,0 l/m² 0,0 km/h (0 Bft) O-NO 67 ° 0 min 0 W/m² 13,1 °C 16,2 °C 0,0 km/h (0 Bft)
19.06.2023 02:44 22,7 °C 16,2 °C 56 % 82 % 1012,6 hPa 0,0 l/m² 0,0 km/h (0 Bft) O-NO 67 ° 0 min 0 W/m² 13,1 °C 16,2 °C 0,0 km/h (0 Bft)
19.06.2023 02:45 22,7 °C 16,2 °C 56 % 82 % 1012,6 hPa 0,0 l/m² 0,0 km/h (0 Bft) O-NO 67 ° 0 min 0 W/m² 13,1 °C 16,2 °C 0,0 km/h (0 Bft)
19.06.2023 02:46 22,7 °C 16,2 °C 56 % 82 % 1012,7 hPa 0,0 l/m² 0,0 km/h (0 Bft) O-NO 67 ° 0 min 0 W/m² 13,1 °C 16,2 °C 0,0 km/h (0 Bft)
19.06.2023 02:47 22,7 °C 16,2 °C 56 % 82 % 1012,7 hPa 0,0 l/m² 0,0 km/h (0 Bft) O-NO 67 ° 0 min 0 W/m² 13,1 °C 16,2 °C 0,0 km/h (0 Bft)
19.06.2023 02:48 22,7 °C 16,2 °C 56 % 82 % 1012,6 hPa 0,0 l/m² 0,0 km/h (0 Bft) O-NO 67 ° 0 min 0 W/m² 13,1 °C 16,2 °C 0,0 km/h (0 Bft)
19.06.2023 02:49 22,7 °C 16,2 °C 56 % 82 % 1012,7 hPa 0,0 l/m² 0,0 km/h (0 Bft) O-NO 67 ° 0 min 0 W/m² 13,1 °C 16,2 °C 0,0 km/h (0 Bft)
19.06.2023 02:51 22,7 °C 16,2 °C 56 % 81 % 1012,7 hPa 0,0 l/m² 0,0 km/h (0 Bft) O-NO 67 ° 0 min 0 W/m² 12,9 °C 16,2 °C 0,0 km/h (0 Bft)
19.06.2023 02:53 22,7 °C 16,2 °C 56 % 81 % 1012,7 hPa 0,0 l/m² 0,0 km/h (0 Bft) O-NO 67 ° 0 min 0 W/m² 12,9 °C 16,2 °C 0,0 km/h (0 Bft)
19.06.2023 02:54 22,7 °C 16,2 °C 56 % 81 % 1012,7 hPa 0,0 l/m² 0,0 km/h (0 Bft) O-NO 67 ° 0 min 0 W/m² 12,9 °C 16,2 °C 0,0 km/h (0 Bft)
19.06.2023 02:55 22,7 °C 16,3 °C 56 % 81 % 1012,6 hPa 0,0 l/m² 0,0 km/h (0 Bft) O-NO 67 ° 0 min 0 W/m² 13,0 °C 16,3 °C 0,0 km/h (0 Bft)
19.06.2023 02:56 22,7 °C 16,3 °C 56 % 81 % 1012,6 hPa 0,0 l/m² 0,0 km/h (0 Bft) O-NO 67 ° 0 min 0 W/m² 13,0 °C 16,3 °C 0,0 km/h (0 Bft)
19.06.2023 02:57 22,7 °C 16,3 °C 56 % 81 % 1012,7 hPa 0,0 l/m² 0,0 km/h (0 Bft) O-NO 67 ° 0 min 0 W/m² 13,0 °C 16,3 °C 0,0 km/h (0 Bft)
19.06.2023 02:58 22,7 °C 16,3 °C 56 % 82 % 1012,6 hPa 0,0 l/m² 0,0 km/h (0 Bft) O-NO 67 ° 0 min 0 W/m² 13,2 °C 16,3 °C 0,0 km/h (0 Bft)
19.06.2023 02:59 22,7 °C 16,3 °C 56 % 82 % 1012,7 hPa 0,0 l/m² 0,0 km/h (0 Bft) O-NO 67 ° 0 min 0 W/m² 13,2 °C 16,3 °C 0,0 km/h (0 Bft)
19.06.2023 03:00 22,7 °C 16,3 °C 56 % 82 % 1012,7 hPa 0,0 l/m² 0,0 km/h (0 Bft) O-NO 67 ° 0 min 0 W/m² 13,2 °C 16,3 °C 0,0 km/h (0 Bft)
19.06.2023 03:01 22,7 °C 16,3 °C 56 % 83 % 1012,7 hPa 0,0 l/m² 0,0 km/h (0 Bft) N 0 ° 0 min 0 W/m² 13,4 °C 16,3 °C 0,0 km/h (0 Bft)
19.06.2023 03:06 22,7 °C 16,4 °C 56 % 84 % 1012,6 hPa 0,0 l/m² 0,0 km/h (0 Bft) O-NO 67 ° 0 min 0 W/m² 13,7 °C 16,4 °C 0,0 km/h (0 Bft)
19.06.2023 03:08 22,7 °C 16,4 °C 56 % 84 % 1012,6 hPa 0,0 l/m² 0,0 km/h (0 Bft) O-NO 67 ° 0 min 0 W/m² 13,7 °C 16,4 °C 0,0 km/h (0 Bft)
19.06.2023 03:09 22,7 °C 16,4 °C 56 % 83 % 1012,6 hPa 0,0 l/m² 0,0 km/h (0 Bft) O-NO 67 ° 0 min 0 W/m² 13,5 °C 16,4 °C 0,0 km/h (0 Bft)
19.06.2023 03:11 22,7 °C 16,4 °C 56 % 83 % 1012,6 hPa 0,0 l/m² 0,0 km/h (0 Bft) O-NO 67 ° 0 min 0 W/m² 13,5 °C 16,4 °C 0,0 km/h (0 Bft)
19.06.2023 03:13 22,7 °C 16,4 °C 56 % 83 % 1012,5 hPa 0,0 l/m² 0,0 km/h (0 Bft) O-NO 67 ° 0 min 0 W/m² 13,5 °C 16,4 °C 0,0 km/h (0 Bft)
19.06.2023 03:15 22,7 °C 16,4 °C 56 % 82 % 1012,5 hPa 0,0 l/m² 0,0 km/h (0 Bft) O-NO 67 ° 0 min 0 W/m² 13,3 °C 16,4 °C 0,0 km/h (0 Bft)
19.06.2023 03:17 22,7 °C 16,4 °C 56 % 82 % 1012,5 hPa 0,0 l/m² 0,0 km/h (0 Bft) O-NO 67 ° 0 min 0 W/m² 13,3 °C 16,4 °C 0,0 km/h (0 Bft)
19.06.2023 03:19 22,7 °C 16,4 °C 56 % 82 % 1012,5 hPa 0,0 l/m² 0,0 km/h (0 Bft) O-NO 67 ° 0 min 0 W/m² 13,3 °C 16,4 °C 0,0 km/h (0 Bft)
19.06.2023 03:20 22,7 °C 16,4 °C 56 % 82 % 1012,5 hPa 0,0 l/m² 0,0 km/h (0 Bft) O-NO 67 ° 0 min 0 W/m² 13,3 °C 16,4 °C 0,0 km/h (0 Bft)
19.06.2023 03:22 22,7 °C 16,4 °C 56 % 82 % 1012,5 hPa 0,0 l/m² 0,0 km/h (0 Bft) O-NO 67 ° 0 min 0 W/m² 13,3 °C 16,4 °C 0,0 km/h (0 Bft)
19.06.2023 03:24 22,7 °C 16,5 °C 56 % 82 % 1012,4 hPa 0,0 l/m² 0,0 km/h (0 Bft) O-NO 67 ° 0 min 0 W/m² 13,4 °C 16,5 °C 0,0 km/h (0 Bft)
19.06.2023 03:26 22,7 °C 16,5 °C 56 % 82 % 1012,5 hPa 0,0 l/m² 0,0 km/h (0 Bft) O-NO 67 ° 0 min 0 W/m² 13,4 °C 16,5 °C 0,0 km/h (0 Bft)
19.06.2023 03:28 22,6 °C 16,4 °C 56 % 82 % 1012,4 hPa 0,0 l/m² 0,0 km/h (0 Bft) O-NO 67 ° 0 min 0 W/m² 13,3 °C 16,4 °C 0,0 km/h (0 Bft)
19.06.2023 03:30 22,7 °C 16,4 °C 56 % 82 % 1012,4 hPa 0,0 l/m² 0,0 km/h (0 Bft) O-NO 67 ° 0 min 0 W/m² 13,3 °C 16,4 °C 0,0 km/h (0 Bft)
19.06.2023 03:31 22,7 °C 16,4 °C 56 % 82 % 1012,3 hPa 0,0 l/m² 0,0 km/h (0 Bft) O-NO 67 ° 0 min 0 W/m² 13,3 °C 16,4 °C 0,0 km/h (0 Bft)
19.06.2023 03:33 22,7 °C 16,4 °C 56 % 82 % 1012,3 hPa 0,0 l/m² 0,0 km/h (0 Bft) O-NO 67 ° 0 min 0 W/m² 13,3 °C 16,4 °C 0,0 km/h (0 Bft)
19.06.2023 03:35 22,7 °C 16,5 °C 56 % 82 % 1012,2 hPa 0,0 l/m² 0,0 km/h (0 Bft) O-NO 67 ° 0 min 0 W/m² 13,4 °C 16,5 °C 0,0 km/h (0 Bft)
19.06.2023 03:37 22,7 °C 16,5 °C 56 % 82 % 1012,4 hPa 0,0 l/m² 0,0 km/h (0 Bft) O-NO 67 ° 0 min 0 W/m² 13,4 °C 16,5 °C 0,0 km/h (0 Bft)
19.06.2023 03:39 22,7 °C 16,5 °C 56 % 82 % 1012,3 hPa 0,0 l/m² 0,5 km/h (0 Bft) O-NO 67 ° 0 min 0 W/m² 13,4 °C 16,5 °C 1,6 km/h (1 Bft)
19.06.2023 03:40 22,7 °C 16,4 °C 56 % 82 % 1012,3 hPa 0,0 l/m² 0,4 km/h (0 Bft) O-NO 67 ° 0 min 0 W/m² 13,3 °C 16,4 °C 1,6 km/h (1 Bft)
19.06.2023 03:42 22,7 °C 16,4 °C 56 % 82 % 1012,3 hPa 0,0 l/m² 0,0 km/h (0 Bft) O-NO 67 ° 0 min 0 W/m² 13,3 °C 16,4 °C 0,0 km/h (0 Bft)
19.06.2023 03:44 22,7 °C 16,4 °C 56 % 82 % 1012,2 hPa 0,0 l/m² 0,0 km/h (0 Bft) O-NO 67 ° 0 min 0 W/m² 13,3 °C 16,4 °C 0,0 km/h (0 Bft)
19.06.2023 03:46 22,7 °C 16,4 °C 56 % 82 % 1012,2 hPa 0,0 l/m² 0,0 km/h (0 Bft) O-NO 67 ° 0 min 0 W/m² 13,3 °C 16,4 °C 0,0 km/h (0 Bft)
19.06.2023 03:47 22,7 °C 16,4 °C 56 % 82 % 1012,2 hPa 0,0 l/m² 0,0 km/h (0 Bft) O-NO 67 ° 0 min 0 W/m² 13,3 °C 16,4 °C 0,0 km/h (0 Bft)
19.06.2023 03:49 22,7 °C 16,5 °C 56 % 82 % 1012,2 hPa 0,0 l/m² 0,0 km/h (0 Bft) O-NO 67 ° 0 min 0 W/m² 13,4 °C 16,5 °C 0,0 km/h (0 Bft)
19.06.2023 03:50 22,7 °C 16,4 °C 56 % 82 % 1012,3 hPa 0,0 l/m² 0,0 km/h (0 Bft) O-NO 67 ° 0 min 0 W/m² 13,3 °C 16,4 °C 0,0 km/h (0 Bft)
19.06.2023 03:52 22,7 °C 16,5 °C 56 % 82 % 1012,2 hPa 0,0 l/m² 0,0 km/h (0 Bft) O-NO 67 ° 0 min 0 W/m² 13,4 °C 16,5 °C 0,0 km/h (0 Bft)
19.06.2023 03:54 22,7 °C 16,5 °C 56 % 82 % 1012,2 hPa 0,0 l/m² 0,0 km/h (0 Bft) O-NO 67 ° 0 min 0 W/m² 13,4 °C 16,5 °C 0,0 km/h (0 Bft)
19.06.2023 03:56 22,7 °C 16,5 °C 56 % 82 % 1012,2 hPa 0,0 l/m² 0,0 km/h (0 Bft) O-NO 67 ° 0 min 0 W/m² 13,4 °C 16,5 °C 0,0 km/h (0 Bft)
19.06.2023 03:58 22,7 °C 16,6 °C 56 % 82 % 1012,1 hPa 0,0 l/m² 0,0 km/h (0 Bft) O-NO 67 ° 0 min 0 W/m² 13,5 °C 16,6 °C 0,0 km/h (0 Bft)
19.06.2023 04:00 22,6 °C 16,5 °C 56 % 82 % 1012,2 hPa 0,0 l/m² 0,0 km/h (0 Bft) O-NO 67 ° 0 min 0 W/m² 13,4 °C 16,5 °C 0,0 km/h (0 Bft)
19.06.2023 04:01 22,7 °C 16,5 °C 56 % 82 % 1012,1 hPa 0,0 l/m² 0,0 km/h (0 Bft) O-NO 67 ° 0 min 0 W/m² 13,4 °C 16,5 °C 0,0 km/h (0 Bft)
19.06.2023 04:03 22,7 °C 16,4 °C 56 % 82 % 1012,2 hPa 0,0 l/m² 0,0 km/h (0 Bft) O-NO 67 ° 0 min 0 W/m² 13,3 °C 16,4 °C 0,0 km/h (0 Bft)
19.06.2023 04:05 22,7 °C 16,4 °C 56 % 82 % 1012,1 hPa 0,0 l/m² 0,0 km/h (0 Bft) O-NO 67 ° 0 min 0 W/m² 13,3 °C 16,4 °C 0,0 km/h (0 Bft)
19.06.2023 04:07 22,7 °C 16,4 °C 56 % 84 % 1012,2 hPa 0,0 l/m² 0,0 km/h (0 Bft) O-NO 67 ° 0 min 0 W/m² 13,7 °C 16,4 °C 0,0 km/h (0 Bft)
19.06.2023 04:09 22,6 °C 16,4 °C 56 % 84 % 1012,1 hPa 0,0 l/m² 0,0 km/h (0 Bft) O-NO 67 ° 0 min 0 W/m² 13,7 °C 16,4 °C 0,0 km/h (0 Bft)
19.06.2023 04:11 22,6 °C 16,4 °C 56 % 84 % 1012,1 hPa 0,0 l/m² 0,0 km/h (0 Bft) O-NO 67 ° 0 min 0 W/m² 13,7 °C 16,4 °C 0,0 km/h (0 Bft)
19.06.2023 04:12 22,6 °C 16,4 °C 56 % 84 % 1012,1 hPa 0,0 l/m² 0,0 km/h (0 Bft) O-NO 67 ° 0 min 0 W/m² 13,7 °C 16,4 °C 0,0 km/h (0 Bft)
19.06.2023 04:13 22,6 °C 16,4 °C 56 % 84 % 1012,2 hPa 0,0 l/m² 0,0 km/h (0 Bft) O-NO 67 ° 0 min 0 W/m² 13,7 °C 16,4 °C 0,0 km/h (0 Bft)
19.06.2023 04:14 22,6 °C 16,4 °C 56 % 84 % 1012,2 hPa 0,0 l/m² 0,0 km/h (0 Bft) O-NO 67 ° 0 min 0 W/m² 13,7 °C 16,4 °C 0,0 km/h (0 Bft)
19.06.2023 04:16 22,6 °C 16,4 °C 56 % 83 % 1012,1 hPa 0,0 l/m² 0,0 km/h (0 Bft) O-NO 67 ° 0 min 0 W/m² 13,5 °C 16,4 °C 0,0 km/h (0 Bft)
19.06.2023 04:18 22,6 °C 16,4 °C 56 % 82 % 1012,0 hPa 0,0 l/m² 0,1 km/h (0 Bft) O-NO 67 ° 0 min 0 W/m² 13,3 °C 16,4 °C 3,2 km/h (1 Bft)
19.06.2023 04:20 22,7 °C 16,4 °C 56 % 82 % 1012,0 hPa 0,0 l/m² 1,0 km/h (0 Bft) O-NO 67 ° 0 min 0 W/m² 13,3 °C 16,4 °C 3,2 km/h (1 Bft)
19.06.2023 04:21 22,7 °C 16,5 °C 56 % 82 % 1012,0 hPa 0,0 l/m² 0,2 km/h (0 Bft) O-NO 67 ° 0 min 0 W/m² 13,4 °C 16,5 °C 1,6 km/h (1 Bft)
19.06.2023 04:22 22,6 °C 16,6 °C 56 % 82 % 1012,0 hPa 0,0 l/m² 0,7 km/h (0 Bft) O-NO 67 ° 0 min 0 W/m² 13,5 °C 16,6 °C 1,6 km/h (1 Bft)
19.06.2023 04:23 22,6 °C 16,6 °C 56 % 81 % 1012,0 hPa 0,0 l/m² 0,1 km/h (0 Bft) O-NO 67 ° 0 min 0 W/m² 13,3 °C 16,6 °C 1,6 km/h (1 Bft)
19.06.2023 04:24 22,7 °C 16,6 °C 56 % 81 % 1012,0 hPa 0,0 l/m² 0,1 km/h (0 Bft) O-NO 67 ° 0 min 0 W/m² 13,3 °C 16,6 °C 1,6 km/h (1 Bft)
19.06.2023 04:26 22,6 °C 16,7 °C 56 % 80 % 1012,1 hPa 0,0 l/m² 0,0 km/h (0 Bft) O-NO 67 ° 0 min 0 W/m² 13,2 °C 16,7 °C 0,0 km/h (0 Bft)
19.06.2023 04:28 22,6 °C 16,7 °C 56 % 79 % 1012,1 hPa 0,0 l/m² 0,0 km/h (0 Bft) O-NO 67 ° 0 min 0 W/m² 13,0 °C 16,7 °C 0,0 km/h (0 Bft)
19.06.2023 04:30 22,7 °C 16,6 °C 56 % 80 % 1012,1 hPa 0,0 l/m² 0,0 km/h (0 Bft) O-NO 67 ° 0 min 0 W/m² 13,1 °C 16,6 °C 0,0 km/h (0 Bft)
19.06.2023 04:31 22,6 °C 16,6 °C 56 % 80 % 1012,1 hPa 0,0 l/m² 0,0 km/h (0 Bft) O-NO 67 ° 0 min 0 W/m² 13,1 °C 16,6 °C 0,0 km/h (0 Bft)
19.06.2023 04:33 22,6 °C 16,4 °C 56 % 81 % 1012,1 hPa 0,0 l/m² 0,0 km/h (0 Bft) O-NO 67 ° 0 min 0 W/m² 13,1 °C 16,4 °C 0,0 km/h (0 Bft)
19.06.2023 04:35 22,7 °C 16,3 °C 56 % 82 % 1012,1 hPa 0,0 l/m² 0,0 km/h (0 Bft) O-NO 67 ° 0 min 0 W/m² 13,2 °C 16,3 °C 0,0 km/h (0 Bft)
19.06.2023 04:37 22,6 °C 16,3 °C 56 % 84 % 1012,0 hPa 0,0 l/m² 0,0 km/h (0 Bft) O-NO 67 ° 0 min 0 W/m² 13,6 °C 16,3 °C 0,0 km/h (0 Bft)
19.06.2023 04:39 22,7 °C 16,3 °C 56 % 84 % 1012,0 hPa 0,0 l/m² 0,0 km/h (0 Bft) O-NO 67 ° 0 min 0 W/m² 13,6 °C 16,3 °C 0,0 km/h (0 Bft)
19.06.2023 04:41 22,6 °C 16,2 °C 56 % 84 % 1012,0 hPa 0,0 l/m² 0,0 km/h (0 Bft) O-NO 67 ° 0 min 0 W/m² 13,5 °C 16,2 °C 0,0 km/h (0 Bft)
19.06.2023 04:42 22,7 °C 16,2 °C 56 % 85 % 1012,0 hPa 0,0 l/m² 0,0 km/h (0 Bft) O-NO 67 ° 0 min 0 W/m² 13,7 °C 16,2 °C 0,0 km/h (0 Bft)
19.06.2023 04:44 22,6 °C 16,2 °C 56 % 85 % 1011,9 hPa 0,0 l/m² 0,0 km/h (0 Bft) O-NO 67 ° 0 min 0 W/m² 13,7 °C 16,2 °C 0,0 km/h (0 Bft)
19.06.2023 04:46 22,6 °C 16,2 °C 56 % 84 % 1011,9 hPa 0,0 l/m² 0,0 km/h (0 Bft) O-NO 67 ° 0 min 0 W/m² 13,5 °C 16,2 °C 0,0 km/h (0 Bft)
19.06.2023 04:48 22,6 °C 16,3 °C 56 % 83 % 1011,8 hPa 0,0 l/m² 0,0 km/h (0 Bft) O-NO 67 ° 0 min 0 W/m² 13,4 °C 16,3 °C 1,6 km/h (1 Bft)
19.06.2023 04:50 22,6 °C 16,3 °C 56 % 82 % 1011,9 hPa 0,0 l/m² 0,1 km/h (0 Bft) O-NO 67 ° 0 min 5 W/m² 13,2 °C 16,3 °C 1,6 km/h (1 Bft)
19.06.2023 04:51 22,6 °C 16,4 °C 56 % 82 % 1011,9 hPa 0,0 l/m² 0,0 km/h (0 Bft) O-NO 67 ° 0 min 5 W/m² 13,3 °C 16,4 °C 0,0 km/h (0 Bft)
19.06.2023 04:52 22,6 °C 16,4 °C 56 % 81 % 1012,0 hPa 0,0 l/m² 0,0 km/h (0 Bft) O-NO 67 ° 0 min 5 W/m² 13,1 °C 16,4 °C 0,0 km/h (0 Bft)
19.06.2023 04:53 22,6 °C 16,4 °C 56 % 81 % 1012,0 hPa 0,0 l/m² 0,0 km/h (0 Bft) O-NO 67 ° 0 min 5 W/m² 13,1 °C 16,4 °C 0,0 km/h (0 Bft)
19.06.2023 04:55 22,6 °C 16,6 °C 56 % 80 % 1011,9 hPa 0,0 l/m² 0,0 km/h (0 Bft) O-NO 67 ° 0 min 0 W/m² 13,1 °C 16,6 °C 0,0 km/h (0 Bft)
19.06.2023 04:57 22,6 °C 16,6 °C 56 % 81 % 1012,0 hPa 0,0 l/m² 0,0 km/h (0 Bft) O-NO 67 ° 0 min 5 W/m² 13,3 °C 16,6 °C 0,0 km/h (0 Bft)
19.06.2023 04:59 22,6 °C 16,3 °C 56 % 81 % 1012,0 hPa 0,0 l/m² 0,0 km/h (0 Bft) O-NO 67 ° 0 min 5 W/m² 13,0 °C 16,3 °C 0,0 km/h (0 Bft)
19.06.2023 05:01 22,6 °C 16,1 °C 56 % 83 % 1012,0 hPa 0,0 l/m² 0,0 km/h (0 Bft) O-NO 67 ° 0 min 7 W/m² 13,2 °C 16,1 °C 0,0 km/h (0 Bft)
19.06.2023 05:02 22,6 °C 16,1 °C 56 % 83 % 1012,0 hPa 0,0 l/m² 0,0 km/h (0 Bft) O-NO 67 ° 0 min 7 W/m² 13,2 °C 16,1 °C 0,0 km/h (0 Bft)
19.06.2023 05:03 22,6 °C 16,0 °C 56 % 84 % 1012,0 hPa 0,0 l/m² 0,0 km/h (0 Bft) O-NO 67 ° 0 min 7 W/m² 13,3 °C 16,0 °C 0,0 km/h (0 Bft)
19.06.2023 05:04 22,6 °C 16,0 °C 56 % 84 % 1012,1 hPa 0,0 l/m² 2,3 km/h (1 Bft) O-NO 67 ° 0 min 7 W/m² 13,3 °C 16,0 °C 3,2 km/h (1 Bft)
19.06.2023 05:06 22,6 °C 15,9 °C 56 % 84 % 1012,0 hPa 0,0 l/m² 4,3 km/h (1 Bft) SW 222 ° 0 min 7 W/m² 13,2 °C 15,9 °C 4,8 km/h (1 Bft)
19.06.2023 05:08 22,6 °C 15,9 °C 56 % 84 % 1012,1 hPa 0,0 l/m² 2,8 km/h (1 Bft) SW 222 ° 0 min 7 W/m² 13,2 °C 15,9 °C 4,8 km/h (1 Bft)
19.06.2023 05:10 22,6 °C 16,0 °C 56 % 85 % 1012,0 hPa 0,0 l/m² 0,0 km/h (0 Bft) SW 222 ° 0 min 7 W/m² 13,5 °C 16,0 °C 0,0 km/h (0 Bft)
19.06.2023 05:11 22,6 °C 16,0 °C 56 % 85 % 1012,0 hPa 0,0 l/m² 0,0 km/h (0 Bft) SW 222 ° 0 min 7 W/m² 13,5 °C 16,0 °C 0,0 km/h (0 Bft)
19.06.2023 05:13 22,6 °C 16,1 °C 56 % 84 % 1011,9 hPa 0,0 l/m² 0,0 km/h (0 Bft) SW 222 ° 0 min 9 W/m² 13,4 °C 16,1 °C 0,0 km/h (0 Bft)
19.06.2023 05:15 22,6 °C 16,1 °C 56 % 84 % 1011,9 hPa 0,0 l/m² 0,0 km/h (0 Bft) SW 222 ° 0 min 11 W/m² 13,4 °C 16,1 °C 0,0 km/h (0 Bft)
19.06.2023 05:17 22,6 °C 16,2 °C 56 % 84 % 1011,9 hPa 0,0 l/m² 0,0 km/h (0 Bft) SW 222 ° 0 min 11 W/m² 13,5 °C 16,2 °C 0,0 km/h (0 Bft)
19.06.2023 05:19 22,6 °C 16,2 °C 56 % 83 % 1011,9 hPa 0,0 l/m² 0,0 km/h (0 Bft) SW 222 ° 0 min 11 W/m² 13,3 °C 16,2 °C 0,0 km/h (0 Bft)
19.06.2023 05:21 22,6 °C 16,2 °C 56 % 83 % 1011,9 hPa 0,0 l/m² 0,0 km/h (0 Bft) SW 222 ° 0 min 11 W/m² 13,3 °C 16,2 °C 0,0 km/h (0 Bft)
19.06.2023 05:22 22,6 °C 16,2 °C 56 % 83 % 1011,9 hPa 0,0 l/m² 0,0 km/h (0 Bft) SW 222 ° 0 min 11 W/m² 13,3 °C 16,2 °C 0,0 km/h (0 Bft)
19.06.2023 05:23 22,6 °C 16,2 °C 56 % 83 % 1011,9 hPa 0,0 l/m² 0,0 km/h (0 Bft) SW 222 ° 0 min 11 W/m² 13,3 °C 16,2 °C 0,0 km/h (0 Bft)
19.06.2023 05:24 22,6 °C 16,2 °C 56 % 83 % 1011,9 hPa 0,0 l/m² 0,0 km/h (0 Bft) SW 222 ° 0 min 11 W/m² 13,3 °C 16,2 °C 0,0 km/h (0 Bft)
19.06.2023 05:26 22,6 °C 16,2 °C 56 % 83 % 1011,9 hPa 0,0 l/m² 0,0 km/h (0 Bft) SW 222 ° 0 min 12 W/m² 13,3 °C 16,2 °C 0,0 km/h (0 Bft)
19.06.2023 05:28 22,6 °C 16,3 °C 56 % 83 % 1011,9 hPa 0,0 l/m² 0,0 km/h (0 Bft) SW 222 ° 0 min 14 W/m² 13,4 °C 16,3 °C 0,0 km/h (0 Bft)
19.06.2023 05:30 22,6 °C 16,3 °C 56 % 83 % 1011,9 hPa 0,0 l/m² 0,0 km/h (0 Bft) SW 222 ° 0 min 14 W/m² 13,4 °C 16,3 °C 0,0 km/h (0 Bft)
19.06.2023 05:31 22,6 °C 16,3 °C 56 % 83 % 1011,9 hPa 0,0 l/m² 0,0 km/h (0 Bft) SW 222 ° 0 min 14 W/m² 13,4 °C 16,3 °C 0,0 km/h (0 Bft)
19.06.2023 05:33 22,6 °C 16,3 °C 56 % 84 % 1011,9 hPa 0,0 l/m² 0,0 km/h (0 Bft) SW 222 ° 0 min 12 W/m² 13,6 °C 16,3 °C 0,0 km/h (0 Bft)
19.06.2023 05:35 22,6 °C 16,3 °C 56 % 83 % 1011,9 hPa 0,0 l/m² 1,1 km/h (1 Bft) SW 221 ° 0 min 11 W/m² 13,4 °C 16,3 °C 3,2 km/h (1 Bft)
19.06.2023 05:37 22,6 °C 16,3 °C 56 % 83 % 1011,9 hPa 0,0 l/m² 1,1 km/h (1 Bft) SW 221 ° 0 min 11 W/m² 13,4 °C 16,3 °C 3,2 km/h (1 Bft)
19.06.2023 05:39 22,6 °C 16,4 °C 56 % 83 % 1011,8 hPa 0,0 l/m² 0,0 km/h (0 Bft) SW 221 ° 0 min 11 W/m² 13,5 °C 16,4 °C 0,0 km/h (0 Bft)
19.06.2023 05:41 22,6 °C 16,6 °C 56 % 83 % 1011,9 hPa 0,0 l/m² 0,0 km/h (0 Bft) SW 221 ° 0 min 11 W/m² 13,7 °C 16,6 °C 0,0 km/h (0 Bft)
19.06.2023 05:42 22,6 °C 16,6 °C 56 % 83 % 1011,9 hPa 0,0 l/m² 0,0 km/h (0 Bft) SW 221 ° 0 min 12 W/m² 13,7 °C 16,6 °C 0,0 km/h (0 Bft)
19.06.2023 05:43 22,6 °C 16,6 °C 56 % 83 % 1011,9 hPa 0,0 l/m² 0,0 km/h (0 Bft) SW 221 ° 0 min 12 W/m² 13,7 °C 16,6 °C 0,0 km/h (0 Bft)
19.06.2023 05:44 22,6 °C 16,6 °C 56 % 83 % 1011,9 hPa 0,0 l/m² 0,0 km/h (0 Bft) SW 221 ° 0 min 14 W/m² 13,7 °C 16,6 °C 0,0 km/h (0 Bft)
19.06.2023 05:46 22,6 °C 16,7 °C 56 % 82 % 1011,9 hPa 0,0 l/m² 0,0 km/h (0 Bft) SW 221 ° 0 min 16 W/m² 13,6 °C 16,7 °C 0,0 km/h (0 Bft)
19.06.2023 05:48 22,6 °C 16,7 °C 56 % 82 % 1011,9 hPa 0,0 l/m² 0,3 km/h (0 Bft) SW 221 ° 0 min 16 W/m² 13,6 °C 16,7 °C 1,6 km/h (1 Bft)
19.06.2023 05:50 22,6 °C 16,8 °C 56 % 81 % 1012,0 hPa 0,0 l/m² 0,0 km/h (0 Bft) SW 221 ° 0 min 18 W/m² 13,5 °C 16,8 °C 0,0 km/h (0 Bft)
19.06.2023 05:51 22,6 °C 16,9 °C 56 % 81 % 1011,9 hPa 0,0 l/m² 0,0 km/h (0 Bft) SW 221 ° 0 min 19 W/m² 13,6 °C 16,9 °C 0,0 km/h (0 Bft)
19.06.2023 05:52 22,6 °C 16,8 °C 56 % 81 % 1012,0 hPa 0,0 l/m² 0,0 km/h (0 Bft) SW 221 ° 0 min 19 W/m² 13,5 °C 16,8 °C 0,0 km/h (0 Bft)
19.06.2023 05:54 22,6 °C 16,8 °C 56 % 82 % 1012,0 hPa 0,0 l/m² 0,0 km/h (0 Bft) SW 221 ° 0 min 21 W/m² 13,7 °C 16,8 °C 0,0 km/h (0 Bft)
19.06.2023 05:56 22,6 °C 16,8 °C 56 % 82 % 1012,0 hPa 0,0 l/m² 0,0 km/h (0 Bft) SW 221 ° 0 min 21 W/m² 13,7 °C 16,8 °C 0,0 km/h (0 Bft)
19.06.2023 05:58 22,6 °C 16,8 °C 56 % 82 % 1011,9 hPa 0,0 l/m² 0,0 km/h (0 Bft) SW 221 ° 0 min 21 W/m² 13,7 °C 16,8 °C 1,6 km/h (1 Bft)
19.06.2023 06:00 22,6 °C 16,8 °C 56 % 82 % 1012,0 hPa 0,0 l/m² 1,1 km/h (1 Bft) S-SW 213 ° 0 min 23 W/m² 13,7 °C 16,8 °C 3,2 km/h (1 Bft)
19.06.2023 06:01 22,6 °C 16,8 °C 56 % 82 % 1011,9 hPa 0,0 l/m² 1,5 km/h (1 Bft) S-SW 209 ° 0 min 23 W/m² 13,7 °C 16,8 °C 3,2 km/h (1 Bft)
19.06.2023 06:02 22,6 °C 16,8 °C 56 % 82 % 1011,9 hPa 0,0 l/m² 0,9 km/h (0 Bft) S-SW 209 ° 0 min 23 W/m² 13,7 °C 16,8 °C 1,6 km/h (1 Bft)
19.06.2023 06:03 22,6 °C 16,8 °C 56 % 82 % 1012,0 hPa 0,0 l/m² 1,5 km/h (1 Bft) S-SW 209 ° 0 min 23 W/m² 13,7 °C 16,8 °C 1,6 km/h (1 Bft)
19.06.2023 06:05 22,6 °C 16,9 °C 56 % 82 % 1011,9 hPa 0,0 l/m² 0,0 km/h (0 Bft) S-SW 209 ° 0 min 23 W/m² 13,8 °C 16,9 °C 0,0 km/h (0 Bft)
19.06.2023 06:07 22,6 °C 16,9 °C 56 % 82 % 1011,9 hPa 0,0 l/m² 0,0 km/h (0 Bft) S-SW 209 ° 0 min 25 W/m² 13,8 °C 16,9 °C 0,0 km/h (0 Bft)
19.06.2023 06:09 22,6 °C 16,9 °C 57 % 82 % 1012,0 hPa 0,0 l/m² 0,0 km/h (0 Bft) S-SW 209 ° 0 min 26 W/m² 13,8 °C 16,9 °C 0,0 km/h (0 Bft)
19.06.2023 06:11 22,6 °C 16,9 °C 57 % 81 % 1012,0 hPa 0,0 l/m² 0,0 km/h (0 Bft) S-SW 209 ° 0 min 26 W/m² 13,6 °C 16,9 °C 0,0 km/h (0 Bft)
19.06.2023 06:12 22,6 °C 16,9 °C 57 % 81 % 1012,0 hPa 0,0 l/m² 0,0 km/h (0 Bft) S-SW 209 ° 0 min 28 W/m² 13,6 °C 16,9 °C 0,0 km/h (0 Bft)
19.06.2023 06:13 22,6 °C 17,0 °C 57 % 81 % 1012,0 hPa 0,0 l/m² 0,0 km/h (0 Bft) S-SW 209 ° 0 min 30 W/m² 13,7 °C 17,0 °C 0,0 km/h (0 Bft)
19.06.2023 06:14 22,6 °C 17,1 °C 57 % 81 % 1012,0 hPa 0,0 l/m² 0,0 km/h (0 Bft) S-SW 209 ° 0 min 30 W/m² 13,8 °C 17,1 °C 0,0 km/h (0 Bft)
19.06.2023 06:16 22,6 °C 17,1 °C 57 % 80 % 1012,0 hPa 0,0 l/m² 0,0 km/h (0 Bft) S-SW 209 ° 0 min 33 W/m² 13,6 °C 17,1 °C 0,0 km/h (0 Bft)
19.06.2023 06:18 22,6 °C 17,1 °C 57 % 81 % 1011,9 hPa 0,0 l/m² 0,7 km/h (0 Bft) O 83 ° 0 min 35 W/m² 13,8 °C 17,1 °C 4,8 km/h (1 Bft)
19.06.2023 06:20 22,6 °C 17,2 °C 57 % 81 % 1011,8 hPa 0,0 l/m² 1,5 km/h (1 Bft) O-NO 64 ° 0 min 39 W/m² 13,9 °C 17,2 °C 4,8 km/h (1 Bft)
19.06.2023 06:21 22,6 °C 17,2 °C 57 % 81 % 1011,9 hPa 0,0 l/m² 1,4 km/h (1 Bft) O-NO 64 ° 0 min 40 W/m² 13,9 °C 17,2 °C 3,2 km/h (1 Bft)
19.06.2023 06:23 22,6 °C 17,2 °C 57 % 81 % 1012,0 hPa 0,0 l/m² 2,7 km/h (1 Bft) O-NO 70 ° 0 min 40 W/m² 13,9 °C 17,2 °C 4,8 km/h (1 Bft)
19.06.2023 06:25 22,6 °C 17,2 °C 57 % 81 % 1012,0 hPa 0,0 l/m² 3,2 km/h (1 Bft) O-NO 70 ° 0 min 42 W/m² 13,9 °C 17,2 °C 4,8 km/h (1 Bft)
19.06.2023 06:27 22,6 °C 17,2 °C 57 % 81 % 1012,0 hPa 0,0 l/m² 3,0 km/h (1 Bft) O-NO 70 ° 0 min 47 W/m² 13,9 °C 17,2 °C 4,8 km/h (1 Bft)
19.06.2023 06:29 22,6 °C 17,3 °C 57 % 81 % 1012,0 hPa 0,0 l/m² 1,1 km/h (1 Bft) O-NO 70 ° 2 min 54 W/m² 14,0 °C 17,3 °C 3,2 km/h (1 Bft)
19.06.2023 06:31 22,6 °C 17,3 °C 57 % 81 % 1012,1 hPa 0,0 l/m² 0,0 km/h (0 Bft) O-NO 70 ° 2 min 60 W/m² 14,0 °C 17,3 °C 0,0 km/h (0 Bft)
19.06.2023 06:32 22,6 °C 17,4 °C 57 % 81 % 1012,0 hPa 0,0 l/m² 0,0 km/h (0 Bft) O-NO 70 ° 1 min 62 W/m² 14,1 °C 17,4 °C 0,0 km/h (0 Bft)
19.06.2023 06:33 22,6 °C 17,4 °C 57 % 81 % 1012,1 hPa 0,0 l/m² 0,0 km/h (0 Bft) O-NO 70 ° 1 min 63 W/m² 14,1 °C 17,4 °C 0,0 km/h (0 Bft)
19.06.2023 06:34 22,6 °C 17,4 °C 57 % 81 % 1012,1 hPa 0,0 l/m² 0,0 km/h (0 Bft) O-NO 70 ° 1 min 65 W/m² 14,1 °C 17,4 °C 0,0 km/h (0 Bft)
19.06.2023 06:36 22,6 °C 17,6 °C 57 % 81 % 1011,9 hPa 0,0 l/m² 0,0 km/h (0 Bft) O-NO 70 ° 2 min 69 W/m² 14,3 °C 17,6 °C 0,0 km/h (0 Bft)
19.06.2023 06:38 22,6 °C 17,6 °C 57 % 81 % 1012,0 hPa 0,0 l/m² 0,0 km/h (0 Bft) O-NO 70 ° 2 min 72 W/m² 14,3 °C 17,6 °C 0,0 km/h (0 Bft)
19.06.2023 06:40 22,6 °C 17,7 °C 57 % 82 % 1012,0 hPa 0,0 l/m² 0,5 km/h (0 Bft) O-NO 70 ° 2 min 72 W/m² 14,6 °C 17,7 °C 1,6 km/h (1 Bft)
19.06.2023 06:41 22,6 °C 17,7 °C 57 % 82 % 1012,0 hPa 0,0 l/m² 0,0 km/h (0 Bft) O-NO 70 ° 1 min 70 W/m² 14,6 °C 17,7 °C 0,0 km/h (0 Bft)
19.06.2023 06:43 22,6 °C 17,8 °C 57 % 82 % 1012,0 hPa 0,0 l/m² 0,0 km/h (0 Bft) O-NO 70 ° 2 min 74 W/m² 14,7 °C 17,8 °C 0,0 km/h (0 Bft)
19.06.2023 06:45 22,6 °C 17,8 °C 57 % 81 % 1012,0 hPa 0,0 l/m² 0,2 km/h (0 Bft) O-NO 70 ° 2 min 76 W/m² 14,5 °C 17,8 °C 1,6 km/h (1 Bft)
19.06.2023 06:47 22,7 °C 18,0 °C 57 % 80 % 1012,0 hPa 0,0 l/m² 0,9 km/h (0 Bft) O-NO 70 ° 2 min 83 W/m² 14,5 °C 18,0 °C 3,2 km/h (1 Bft)
19.06.2023 06:48 22,7 °C 18,1 °C 57 % 80 % 1012,0 hPa 0,0 l/m² 0,1 km/h (0 Bft) O-NO 70 ° 1 min 84 W/m² 14,6 °C 18,1 °C 1,6 km/h (1 Bft)
19.06.2023 06:50 22,6 °C 18,2 °C 57 % 79 % 1012,0 hPa 0,0 l/m² 0,0 km/h (0 Bft) O-NO 70 ° 2 min 90 W/m² 14,5 °C 18,2 °C 1,6 km/h (1 Bft)
19.06.2023 06:51 22,6 °C 18,3 °C 57 % 78 % 1012,0 hPa 0,0 l/m² 0,0 km/h (0 Bft) O-NO 70 ° 1 min 91 W/m² 14,4 °C 18,3 °C 0,0 km/h (0 Bft)
19.06.2023 06:53 22,6 °C 18,4 °C 57 % 77 % 1012,1 hPa 0,0 l/m² 0,4 km/h (0 Bft) O-NO 70 ° 2 min 95 W/m² 14,3 °C 18,4 °C 1,6 km/h (1 Bft)
19.06.2023 06:55 22,7 °C 18,6 °C 57 % 77 % 1012,0 hPa 0,0 l/m² 1,6 km/h (1 Bft) O-NO 70 ° 2 min 88 W/m² 14,5 °C 18,6 °C 3,2 km/h (1 Bft)
19.06.2023 06:57 22,7 °C 18,6 °C 57 % 77 % 1012,1 hPa 0,0 l/m² 0,2 km/h (0 Bft) O-NO 70 ° 2 min 76 W/m² 14,5 °C 18,6 °C 1,6 km/h (1 Bft)
19.06.2023 06:59 22,7 °C 18,6 °C 57 % 77 % 1012,1 hPa 0,0 l/m² 0,0 km/h (0 Bft) O-NO 70 ° 2 min 70 W/m² 14,5 °C 18,6 °C 0,0 km/h (0 Bft)
19.06.2023 07:01 22,7 °C 18,6 °C 57 % 78 % 1012,1 hPa 0,0 l/m² 1,3 km/h (1 Bft) O-NO 70 ° 2 min 65 W/m² 14,7 °C 18,6 °C 3,2 km/h (1 Bft)
19.06.2023 07:02 22,7 °C 18,6 °C 56 % 78 % 1012,0 hPa 0,0 l/m² 2,5 km/h (1 Bft) O-NO 68 ° 1 min 62 W/m² 14,7 °C 18,6 °C 3,2 km/h (1 Bft)
19.06.2023 07:03 22,7 °C 18,6 °C 56 % 78 % 1011,9 hPa 0,0 l/m² 1,0 km/h (0 Bft) O-NO 67 ° 1 min 56 W/m² 14,7 °C 18,6 °C 3,2 km/h (1 Bft)
19.06.2023 07:04 22,7 °C 18,6 °C 56 % 78 % 1011,9 hPa 0,0 l/m² 1,7 km/h (1 Bft) O-NO 67 ° 1 min 53 W/m² 14,7 °C 18,6 °C 3,2 km/h (1 Bft)
19.06.2023 07:06 22,7 °C 18,7 °C 56 % 77 % 1011,8 hPa 0,0 l/m² 5,5 km/h (2 Bft) NO 55 ° 0 min 40 W/m² 14,6 °C 18,7 °C 9,7 km/h (2 Bft)
19.06.2023 07:08 22,7 °C 18,7 °C 56 % 77 % 1011,7 hPa 0,0 l/m² 7,8 km/h (2 Bft) NO 53 ° 0 min 35 W/m² 14,6 °C 18,1 °C 11,3 km/h (2 Bft)
19.06.2023 07:10 22,7 °C 18,7 °C 56 % 76 % 1011,7 hPa 0,0 l/m² 6,9 km/h (2 Bft) O-NO 61 ° 0 min 33 W/m² 14,4 °C 18,5 °C 11,3 km/h (2 Bft)
19.06.2023 07:11 22,7 °C 18,8 °C 56 % 75 % 1011,8 hPa 0,0 l/m² 5,7 km/h (2 Bft) NO 51 ° 0 min 33 W/m² 14,3 °C 18,8 °C 9,7 km/h (2 Bft)
19.06.2023 07:13 22,6 °C 18,8 °C 56 % 74 % 1011,9 hPa 0,0 l/m² 2,6 km/h (1 Bft) S-SO 159 ° 0 min 33 W/m² 14,1 °C 18,8 °C 6,4 km/h (2 Bft)
19.06.2023 07:15 22,7 °C 18,8 °C 57 % 74 % 1012,1 hPa 0,0 l/m² 1,1 km/h (1 Bft) S-SO 162 ° 0 min 33 W/m² 14,1 °C 18,8 °C 3,2 km/h (1 Bft)
19.06.2023 07:17 22,7 °C 18,8 °C 56 % 75 % 1012,1 hPa 0,0 l/m² 2,4 km/h (1 Bft) S 173 ° 0 min 35 W/m² 14,3 °C 18,8 °C 4,8 km/h (1 Bft)
19.06.2023 07:19 22,6 °C 18,8 °C 56 % 75 % 1012,1 hPa 0,0 l/m² 0,7 km/h (0 Bft) S 173 ° 0 min 35 W/m² 14,3 °C 18,8 °C 3,2 km/h (1 Bft)
19.06.2023 07:21 22,6 °C 18,8 °C 56 % 75 % 1012,1 hPa 0,0 l/m² 0,1 km/h (0 Bft) S 173 ° 0 min 35 W/m² 14,3 °C 18,8 °C 1,6 km/h (1 Bft)
19.06.2023 07:22 22,6 °C 18,8 °C 56 % 75 % 1012,1 hPa 0,0 l/m² 0,5 km/h (0 Bft) S 173 ° 0 min 33 W/m² 14,3 °C 18,8 °C 3,2 km/h (1 Bft)
19.06.2023 07:23 22,6 °C 18,8 °C 56 % 75 % 1012,2 hPa 0,0 l/m² 1,9 km/h (1 Bft) S 173 ° 0 min 33 W/m² 14,3 °C 18,8 °C 3,2 km/h (1 Bft)
19.06.2023 07:24 22,6 °C 18,8 °C 56 % 76 % 1012,2 hPa 0,0 l/m² 0,1 km/h (0 Bft) S 173 ° 0 min 32 W/m² 14,5 °C 18,8 °C 1,6 km/h (1 Bft)
19.06.2023 07:26 22,6 °C 18,7 °C 56 % 76 % 1012,2 hPa 0,0 l/m² 0,0 km/h (0 Bft) S 173 ° 0 min 32 W/m² 14,4 °C 18,7 °C 0,0 km/h (0 Bft)
19.06.2023 07:28 22,6 °C 18,7 °C 56 % 77 % 1012,2 hPa 0,0 l/m² 0,0 km/h (0 Bft) S 173 ° 0 min 32 W/m² 14,6 °C 18,7 °C 0,0 km/h (0 Bft)
19.06.2023 07:30 22,6 °C 18,7 °C 56 % 76 % 1012,2 hPa 0,0 l/m² 0,0 km/h (0 Bft) S 173 ° 0 min 33 W/m² 14,4 °C 18,7 °C 0,0 km/h (0 Bft)
19.06.2023 07:31 22,6 °C 18,7 °C 56 % 76 % 1012,3 hPa 0,0 l/m² 0,0 km/h (0 Bft) S 173 ° 0 min 33 W/m² 14,4 °C 18,7 °C 0,0 km/h (0 Bft)
19.06.2023 07:33 22,6 °C 18,6 °C 56 % 78 % 1012,3 hPa 0,0 l/m² 0,0 km/h (0 Bft) S 173 ° 0 min 35 W/m² 14,7 °C 18,6 °C 0,0 km/h (0 Bft)
19.06.2023 07:35 22,6 °C 18,5 °C 56 % 79 % 1012,3 hPa 0,0 l/m² 0,0 km/h (0 Bft) S 173 ° 0 min 33 W/m² 14,8 °C 18,5 °C 0,0 km/h (0 Bft)
19.06.2023 07:37 22,6 °C 18,4 °C 56 % 80 % 1012,1 hPa 0,0 l/m² 1,9 km/h (1 Bft) O-SO 103 ° 0 min 32 W/m² 14,9 °C 18,4 °C 6,4 km/h (2 Bft)
19.06.2023 07:39 22,6 °C 18,3 °C 56 % 81 % 1012,1 hPa 0,0 l/m² 6,5 km/h (2 Bft) O 89 ° 0 min 32 W/m² 15,0 °C 18,3 °C 8,0 km/h (2 Bft)
19.06.2023 07:41 22,6 °C 18,2 °C 56 % 82 % 1012,1 hPa 0,0 l/m² 3,8 km/h (1 Bft) O 89 ° 0 min 32 W/m² 15,1 °C 18,2 °C 4,8 km/h (1 Bft)
19.06.2023 07:42 22,6 °C 18,2 °C 56 % 82 % 1012,1 hPa 0,0 l/m² 0,6 km/h (0 Bft) O 89 ° 0 min 33 W/m² 15,1 °C 18,2 °C 3,2 km/h (1 Bft)
19.06.2023 07:43 22,6 °C 18,2 °C 56 % 82 % 1012,1 hPa 0,0 l/m² 0,0 km/h (0 Bft) O 89 ° 0 min 35 W/m² 15,1 °C 18,2 °C 0,0 km/h (0 Bft)
19.06.2023 07:44 22,6 °C 18,1 °C 56 % 81 % 1012,1 hPa 0,0 l/m² 1,0 km/h (0 Bft) O 84 ° 0 min 35 W/m² 14,8 °C 18,1 °C 3,2 km/h (1 Bft)
19.06.2023 07:46 22,6 °C 18,2 °C 56 % 81 % 1012,2 hPa 0,0 l/m² 0,0 km/h (0 Bft) O 84 ° 0 min 37 W/m² 14,9 °C 18,2 °C 1,6 km/h (1 Bft)
19.06.2023 07:48 22,6 °C 18,4 °C 56 % 81 % 1012,1 hPa 0,0 l/m² 0,7 km/h (0 Bft) O 84 ° 0 min 35 W/m² 15,1 °C 18,4 °C 3,2 km/h (1 Bft)
19.06.2023 07:50 22,6 °C 18,4 °C 56 % 80 % 1012,1 hPa 0,0 l/m² 3,2 km/h (1 Bft) N 9 ° 0 min 33 W/m² 14,9 °C 18,4 °C 6,4 km/h (2 Bft)
19.06.2023 07:51 22,6 °C 18,4 °C 56 % 80 % 1012,1 hPa 0,0 l/m² 2,7 km/h (1 Bft) N-NO 19 ° 0 min 33 W/m² 14,9 °C 18,4 °C 4,8 km/h (1 Bft)
19.06.2023 07:53 22,6 °C 18,5 °C 56 % 80 % 1012,1 hPa 0,0 l/m² 3,1 km/h (1 Bft) N-NO 32 ° 0 min 32 W/m² 15,0 °C 18,5 °C 4,8 km/h (1 Bft)
19.06.2023 07:55 22,6 °C 18,6 °C 56 % 79 % 1012,2 hPa 0,0 l/m² 0,5 km/h (0 Bft) N-NO 32 ° 0 min 32 W/m² 14,9 °C 18,6 °C 3,2 km/h (1 Bft)
19.06.2023 07:57 22,6 °C 18,6 °C 56 % 79 % 1012,2 hPa 0,0 l/m² 0,9 km/h (0 Bft) N-NO 32 ° 0 min 28 W/m² 14,9 °C 18,6 °C 4,8 km/h (1 Bft)
19.06.2023 07:59 22,6 °C 18,6 °C 56 % 79 % 1012,3 hPa 0,0 l/m² 0,0 km/h (0 Bft) N-NO 32 ° 0 min 26 W/m² 14,9 °C 18,6 °C 0,0 km/h (0 Bft)
19.06.2023 08:01 22,6 °C 18,4 °C 56 % 80 % 1012,2 hPa 0,0 l/m² 0,8 km/h (0 Bft) N-NO 32 ° 0 min 26 W/m² 14,9 °C 18,4 °C 3,2 km/h (1 Bft)
19.06.2023 08:02 22,6 °C 18,3 °C 56 % 82 % 1012,2 hPa 0,0 l/m² 2,3 km/h (1 Bft) N-NO 32 ° 0 min 26 W/m² 15,2 °C 18,3 °C 3,2 km/h (1 Bft)
19.06.2023 08:03 22,6 °C 18,3 °C 56 % 82 % 1012,2 hPa 0,0 l/m² 1,9 km/h (1 Bft) N-NO 32 ° 0 min 26 W/m² 15,2 °C 18,3 °C 3,2 km/h (1 Bft)
19.06.2023 08:04 22,6 °C 18,3 °C 56 % 82 % 1012,3 hPa 0,0 l/m² 5,4 km/h (2 Bft) S-SW 198 ° 0 min 28 W/m² 15,2 °C 18,3 °C 8,0 km/h (2 Bft)
19.06.2023 08:06 22,6 °C 18,1 °C 56 % 83 % 1012,5 hPa 0,0 l/m² 7,7 km/h (2 Bft) SW 215 ° 0 min 28 W/m² 15,2 °C 17,5 °C 11,3 km/h (2 Bft)
19.06.2023 08:08 22,6 °C 18,0 °C 56 % 83 % 1012,6 hPa 0,0 l/m² 6,0 km/h (2 Bft) SW 217 ° 0 min 28 W/m² 15,1 °C 18,0 °C 8,0 km/h (2 Bft)
19.06.2023 08:10 22,6 °C 17,9 °C 57 % 83 % 1012,5 hPa 0,0 l/m² 2,1 km/h (1 Bft) SW 217 ° 0 min 28 W/m² 15,0 °C 17,9 °C 4,8 km/h (1 Bft)
19.06.2023 08:11 22,6 °C 17,9 °C 57 % 83 % 1012,6 hPa 0,0 l/m² 2,6 km/h (1 Bft) SW 217 ° 0 min 28 W/m² 15,0 °C 17,9 °C 4,8 km/h (1 Bft)
19.06.2023 08:12 22,6 °C 17,9 °C 57 % 83 % 1012,6 hPa 0,0 l/m² 1,4 km/h (1 Bft) SW 217 ° 0 min 28 W/m² 15,0 °C 17,9 °C 3,2 km/h (1 Bft)
19.06.2023 08:13 22,6 °C 17,9 °C 57 % 83 % 1012,5 hPa 0,0 l/m² 3,3 km/h (1 Bft) SW 217 ° 0 min 28 W/m² 15,0 °C 17,9 °C 4,8 km/h (1 Bft)
19.06.2023 08:15 22,6 °C 17,9 °C 57 % 83 % 1012,6 hPa 0,0 l/m² 2,0 km/h (1 Bft) SW 217 ° 0 min 30 W/m² 15,0 °C 17,9 °C 3,2 km/h (1 Bft)
19.06.2023 08:17 22,6 °C 17,9 °C 57 % 83 % 1012,7 hPa 0,0 l/m² 4,6 km/h (1 Bft) SW 219 ° 0 min 32 W/m² 15,0 °C 17,9 °C 6,4 km/h (2 Bft)
19.06.2023 08:19 22,6 °C 17,9 °C 57 % 83 % 1012,7 hPa 0,0 l/m² 3,3 km/h (1 Bft) SW 228 ° 0 min 35 W/m² 15,0 °C 17,9 °C 4,8 km/h (1 Bft)
19.06.2023 08:21 22,6 °C 18,0 °C 57 % 82 % 1012,7 hPa 0,0 l/m² 3,1 km/h (1 Bft) SW 229 ° 0 min 37 W/m² 14,9 °C 18,0 °C 4,8 km/h (1 Bft)
19.06.2023 08:22 22,6 °C 18,1 °C 57 % 82 % 1012,8 hPa 0,0 l/m² 2,9 km/h (1 Bft) SW 229 ° 0 min 40 W/m² 15,0 °C 18,1 °C 4,8 km/h (1 Bft)
19.06.2023 08:23 22,6 °C 18,1 °C 57 % 82 % 1012,8 hPa 0,0 l/m² 1,3 km/h (1 Bft) SW 229 ° 0 min 40 W/m² 15,0 °C 18,1 °C 3,2 km/h (1 Bft)
19.06.2023 08:24 22,6 °C 18,1 °C 57 % 82 % 1012,7 hPa 0,0 l/m² 1,8 km/h (1 Bft) SW 229 ° 0 min 40 W/m² 15,0 °C 18,1 °C 3,2 km/h (1 Bft)
19.06.2023 08:26 22,6 °C 18,1 °C 57 % 81 % 1012,8 hPa 0,0 l/m² 1,8 km/h (1 Bft) W 263 ° 0 min 44 W/m² 14,8 °C 18,1 °C 4,8 km/h (1 Bft)
19.06.2023 08:28 22,6 °C 18,2 °C 57 % 81 % 1012,8 hPa 0,0 l/m² 0,8 km/h (0 Bft) W 263 ° 0 min 44 W/m² 14,9 °C 18,2 °C 3,2 km/h (1 Bft)
19.06.2023 08:30 22,6 °C 18,2 °C 57 % 80 % 1012,7 hPa 0,0 l/m² 0,6 km/h (0 Bft) W 263 ° 0 min 46 W/m² 14,7 °C 18,2 °C 3,2 km/h (1 Bft)
19.06.2023 08:31 22,6 °C 18,2 °C 57 % 81 % 1012,7 hPa 0,0 l/m² 0,0 km/h (0 Bft) W 263 ° 0 min 46 W/m² 14,9 °C 18,2 °C 0,0 km/h (0 Bft)
19.06.2023 08:33 22,5 °C 18,3 °C 57 % 82 % 1012,7 hPa 0,0 l/m² 0,0 km/h (0 Bft) W 263 ° 2 min 53 W/m² 15,2 °C 18,3 °C 0,0 km/h (0 Bft)
19.06.2023 08:35 22,6 °C 18,2 °C 57 % 82 % 1012,6 hPa 0,0 l/m² 0,0 km/h (0 Bft) W 263 ° 2 min 69 W/m² 15,1 °C 18,2 °C 1,6 km/h (1 Bft)
19.06.2023 08:37 22,6 °C 18,2 °C 57 % 82 % 1012,7 hPa 0,0 l/m² 0,9 km/h (0 Bft) W 263 ° 2 min 79 W/m² 15,1 °C 18,2 °C 3,2 km/h (1 Bft)
19.06.2023 08:39 22,6 °C 18,2 °C 57 % 84 % 1012,8 hPa 0,0 l/m² 2,5 km/h (1 Bft) W-SW 247 ° 2 min 83 W/m² 15,4 °C 18,2 °C 4,8 km/h (1 Bft)
19.06.2023 08:40 22,5 °C 18,2 °C 57 % 84 % 1012,7 hPa 0,0 l/m² 0,3 km/h (0 Bft) W-SW 247 ° 1 min 81 W/m² 15,4 °C 18,2 °C 1,6 km/h (1 Bft)
19.06.2023 08:42 22,6 °C 18,1 °C 57 % 85 % 1012,7 hPa 0,0 l/m² 0,0 km/h (0 Bft) W-SW 247 ° 2 min 76 W/m² 15,5 °C 18,1 °C 0,0 km/h (0 Bft)
19.06.2023 08:44 22,6 °C 18,1 °C 57 % 85 % 1012,8 hPa 0,0 l/m² 0,0 km/h (0 Bft) W-SW 247 ° 2 min 70 W/m² 15,5 °C 18,1 °C 0,0 km/h (0 Bft)
19.06.2023 08:46 22,6 °C 18,1 °C 57 % 86 % 1012,8 hPa 0,0 l/m² 0,0 km/h (0 Bft) W-SW 247 ° 2 min 67 W/m² 15,7 °C 18,1 °C 0,0 km/h (0 Bft)
19.06.2023 08:48 22,6 °C 18,1 °C 58 % 86 % 1012,8 hPa 0,0 l/m² 0,0 km/h (0 Bft) W-SW 247 ° 2 min 65 W/m² 15,7 °C 18,1 °C 0,0 km/h (0 Bft)
19.06.2023 08:50 22,6 °C 18,2 °C 58 % 86 % 1012,7 hPa 0,0 l/m² 0,0 km/h (0 Bft) W-SW 247 ° 2 min 65 W/m² 15,8 °C 18,2 °C 0,0 km/h (0 Bft)
19.06.2023 08:51 22,6 °C 18,2 °C 58 % 86 % 1012,6 hPa 0,0 l/m² 0,2 km/h (0 Bft) W-SW 247 ° 1 min 65 W/m² 15,8 °C 18,2 °C 1,6 km/h (1 Bft)
19.06.2023 08:52 22,6 °C 18,1 °C 58 % 86 % 1012,6 hPa 0,0 l/m² 3,2 km/h (1 Bft) W-NW 282 ° 1 min 67 W/m² 15,7 °C 18,1 °C 4,8 km/h (1 Bft)
19.06.2023 08:53 22,6 °C 18,1 °C 58 % 86 % 1012,6 hPa 0,0 l/m² 2,6 km/h (1 Bft) NW 310 ° 1 min 67 W/m² 15,7 °C 18,1 °C 4,8 km/h (1 Bft)
19.06.2023 08:55 22,6 °C 18,2 °C 58 % 86 % 1012,6 hPa 0,0 l/m² 2,4 km/h (1 Bft) N-NO 19 ° 2 min 69 W/m² 15,8 °C 18,2 °C 3,2 km/h (1 Bft)
19.06.2023 08:57 22,6 °C 18,2 °C 58 % 85 % 1012,5 hPa 0,0 l/m² 2,4 km/h (1 Bft) N-NO 32 ° 2 min 69 W/m² 15,6 °C 18,2 °C 4,8 km/h (1 Bft)
19.06.2023 08:59 22,6 °C 18,2 °C 58 % 85 % 1012,6 hPa 0,0 l/m² 4,6 km/h (1 Bft) O-NO 68 ° 2 min 70 W/m² 15,6 °C 18,2 °C 6,4 km/h (2 Bft)
19.06.2023 09:00 22,6 °C 18,2 °C 58 % 85 % 1012,6 hPa 0,0 l/m² 5,1 km/h (1 Bft) O 84 ° 1 min 72 W/m² 15,6 °C 18,2 °C 6,4 km/h (2 Bft)
19.06.2023 09:02 22,6 °C 18,2 °C 58 % 85 % 1012,5 hPa 0,0 l/m² 5,2 km/h (1 Bft) O 94 ° 2 min 74 W/m² 15,6 °C 18,2 °C 6,4 km/h (2 Bft)
19.06.2023 09:04 22,6 °C 18,2 °C 58 % 86 % 1012,5 hPa 0,0 l/m² 5,4 km/h (2 Bft) O 92 ° 2 min 81 W/m² 15,8 °C 18,2 °C 9,7 km/h (2 Bft)
19.06.2023 09:06 22,6 °C 18,2 °C 58 % 86 % 1012,5 hPa 0,0 l/m² 4,7 km/h (1 Bft) O 88 ° 2 min 90 W/m² 15,8 °C 18,2 °C 6,4 km/h (2 Bft)
19.06.2023 09:08 22,6 °C 18,2 °C 58 % 86 % 1012,5 hPa 0,0 l/m² 6,3 km/h (2 Bft) O-NO 61 ° 2 min 98 W/m² 15,8 °C 18,2 °C 8,0 km/h (2 Bft)
19.06.2023 09:10 22,6 °C 18,2 °C 59 % 86 % 1012,5 hPa 0,0 l/m² 4,4 km/h (1 Bft) O-NO 74 ° 2 min 114 W/m² 15,8 °C 18,2 °C 6,4 km/h (2 Bft)
19.06.2023 09:11 22,5 °C 18,3 °C 59 % 86 % 1012,5 hPa 0,0 l/m² 3,1 km/h (1 Bft) O 79 ° 1 min 121 W/m² 15,9 °C 18,3 °C 6,4 km/h (2 Bft)
19.06.2023 09:13 22,5 °C 18,4 °C 59 % 85 % 1012,5 hPa 0,0 l/m² 3,1 km/h (1 Bft) O-NO 72 ° 2 min 135 W/m² 15,8 °C 18,4 °C 4,8 km/h (1 Bft)
19.06.2023 09:15 22,5 °C 18,6 °C 59 % 84 % 1012,6 hPa 0,0 l/m² 2,5 km/h (1 Bft) O-NO 59 ° 2 min 151 W/m² 15,8 °C 18,6 °C 6,4 km/h (2 Bft)
19.06.2023 09:17 22,4 °C 18,7 °C 59 % 83 % 1012,6 hPa 0,0 l/m² 2,0 km/h (1 Bft) O-NO 59 ° 2 min 153 W/m² 15,8 °C 18,7 °C 4,8 km/h (1 Bft)
19.06.2023 09:19 22,4 °C 18,8 °C 59 % 82 % 1012,7 hPa 0,0 l/m² 4,0 km/h (1 Bft) O 84 ° 2 min 148 W/m² 15,7 °C 18,8 °C 6,4 km/h (2 Bft)
19.06.2023 09:20 22,5 °C 18,9 °C 58 % 81 % 1012,7 hPa 0,0 l/m² 5,8 km/h (2 Bft) O 79 ° 1 min 142 W/m² 15,6 °C 18,9 °C 8,0 km/h (2 Bft)
19.06.2023 09:22 22,4 °C 19,0 °C 59 % 81 % 1012,7 hPa 0,0 l/m² 3,6 km/h (1 Bft) O-NO 76 ° 2 min 137 W/m² 15,7 °C 19,0 °C 6,4 km/h (2 Bft)
19.06.2023 09:24 22,5 °C 19,1 °C 59 % 80 % 1012,8 hPa 0,0 l/m² 0,3 km/h (0 Bft) O-NO 76 ° 2 min 134 W/m² 15,6 °C 19,1 °C 3,2 km/h (1 Bft)
19.06.2023 09:26 22,6 °C 19,1 °C 59 % 80 % 1012,8 hPa 0,0 l/m² 0,0 km/h (0 Bft) O-NO 76 ° 2 min 139 W/m² 15,6 °C 19,1 °C 0,0 km/h (0 Bft)
19.06.2023 09:28 22,6 °C 19,2 °C 58 % 80 % 1012,8 hPa 0,0 l/m² 0,0 km/h (0 Bft) O-NO 76 ° 2 min 144 W/m² 15,7 °C 19,2 °C 0,0 km/h (0 Bft)
19.06.2023 09:30 22,6 °C 19,3 °C 58 % 79 % 1012,7 hPa 0,0 l/m² 0,0 km/h (0 Bft) O-NO 76 ° 2 min 144 W/m² 15,6 °C 19,3 °C 0,0 km/h (0 Bft)
19.06.2023 09:31 22,6 °C 19,4 °C 58 % 79 % 1012,8 hPa 0,0 l/m² 1,9 km/h (1 Bft) O-NO 76 ° 1 min 142 W/m² 15,7 °C 19,4 °C 3,2 km/h (1 Bft)
19.06.2023 09:33 22,6 °C 19,5 °C 58 % 79 % 1012,8 hPa 0,0 l/m² 1,0 km/h (0 Bft) O-NO 76 ° 2 min 137 W/m² 15,8 °C 19,5 °C 3,2 km/h (1 Bft)
19.06.2023 09:35 22,6 °C 19,6 °C 58 % 79 % 1012,8 hPa 0,0 l/m² 0,8 km/h (0 Bft) O-NO 76 ° 2 min 135 W/m² 15,9 °C 19,6 °C 3,2 km/h (1 Bft)
19.06.2023 09:37 22,6 °C 19,7 °C 58 % 78 % 1012,7 hPa 0,0 l/m² 0,1 km/h (0 Bft) O-NO 76 ° 2 min 134 W/m² 15,8 °C 19,7 °C 1,6 km/h (1 Bft)
19.06.2023 09:39 22,6 °C 19,7 °C 58 % 78 % 1012,9 hPa 0,0 l/m² 0,1 km/h (0 Bft) O-NO 76 ° 2 min 134 W/m² 15,8 °C 19,7 °C 1,6 km/h (1 Bft)
19.06.2023 09:40 22,6 °C 19,8 °C 58 % 78 % 1012,8 hPa 0,0 l/m² 0,0 km/h (0 Bft) O-NO 76 ° 1 min 134 W/m² 15,8 °C 19,8 °C 0,0 km/h (0 Bft)
19.06.2023 09:42 22,6 °C 19,9 °C 58 % 79 % 1012,7 hPa 0,0 l/m² 0,7 km/h (0 Bft) O-NO 76 ° 2 min 135 W/m² 16,1 °C 19,9 °C 3,2 km/h (1 Bft)
19.06.2023 09:44 22,6 °C 19,8 °C 58 % 77 % 1012,8 hPa 0,0 l/m² 2,4 km/h (1 Bft) O-NO 78 ° 2 min 148 W/m² 15,6 °C 19,8 °C 4,8 km/h (1 Bft)
19.06.2023 09:47 22,6 °C 19,9 °C 58 % 78 % 1012,9 hPa 0,0 l/m² 0,4 km/h (0 Bft) O-NO 78 ° 3 min 167 W/m² 15,9 °C 19,9 °C 3,2 km/h (1 Bft)
19.06.2023 09:49 22,6 °C 19,9 °C 58 % 78 % 1012,9 hPa 0,0 l/m² 0,0 km/h (0 Bft) O-NO 78 ° 2 min 178 W/m² 15,9 °C 19,9 °C 0,0 km/h (0 Bft)
19.06.2023 09:50 22,6 °C 20,0 °C 58 % 77 % 1012,9 hPa 0,0 l/m² 0,3 km/h (0 Bft) O-NO 75 ° 1 min 192 W/m² 15,8 °C 20,0 °C 1,6 km/h (1 Bft)
19.06.2023 09:52 22,6 °C 20,1 °C 58 % 78 % 1012,8 hPa 0,0 l/m² 1,1 km/h (1 Bft) O-NO 75 ° 2 min 218 W/m² 16,1 °C 20,1 °C 3,2 km/h (1 Bft)
19.06.2023 09:54 22,6 °C 20,2 °C 58 % 79 % 1012,8 hPa 0,0 l/m² 0,8 km/h (0 Bft) O-NO 75 ° 2 min 244 W/m² 16,4 °C 20,2 °C 3,2 km/h (1 Bft)
19.06.2023 09:56 22,6 °C 20,3 °C 58 % 78 % 1012,8 hPa 0,0 l/m² 0,4 km/h (0 Bft) O-NO 75 ° 2 min 258 W/m² 16,3 °C 20,3 °C 3,2 km/h (1 Bft)
19.06.2023 09:58 22,7 °C 20,5 °C 58 % 76 % 1012,8 hPa 0,0 l/m² 3,1 km/h (1 Bft) O-NO 76 ° 2 min 264 W/m² 16,1 °C 20,5 °C 4,8 km/h (1 Bft)
19.06.2023 10:00 22,6 °C 20,7 °C 58 % 75 % 1012,8 hPa 0,0 l/m² 3,7 km/h (1 Bft) O 83 ° 2 min 271 W/m² 16,1 °C 20,7 °C 4,8 km/h (1 Bft)
19.06.2023 10:01 22,7 °C 20,8 °C 58 % 75 % 1012,7 hPa 0,0 l/m² 4,0 km/h (1 Bft) O 82 ° 1 min 276 W/m² 16,2 °C 20,8 °C 6,4 km/h (2 Bft)
19.06.2023 10:02 22,7 °C 20,8 °C 58 % 75 % 1012,7 hPa 0,0 l/m² 3,3 km/h (1 Bft) O 82 ° 1 min 279 W/m² 16,2 °C 20,8 °C 4,8 km/h (1 Bft)
19.06.2023 10:03 22,6 °C 20,8 °C 58 % 75 % 1012,7 hPa 0,0 l/m² 2,9 km/h (1 Bft) O 82 ° 1 min 279 W/m² 16,2 °C 20,8 °C 4,8 km/h (1 Bft)
19.06.2023 10:05 22,7 °C 20,8 °C 58 % 74 % 1012,7 hPa 0,0 l/m² 1,2 km/h (1 Bft) O 82 ° 2 min 285 W/m² 16,0 °C 20,8 °C 3,2 km/h (1 Bft)
19.06.2023 10:07 22,7 °C 20,9 °C 58 % 74 % 1012,8 hPa 0,0 l/m² 0,3 km/h (0 Bft) O 82 ° 2 min 297 W/m² 16,1 °C 20,9 °C 3,2 km/h (1 Bft)
19.06.2023 10:09 22,7 °C 20,9 °C 58 % 74 % 1012,9 hPa 0,0 l/m² 0,6 km/h (0 Bft) O 82 ° 2 min 316 W/m² 16,1 °C 20,9 °C 3,2 km/h (1 Bft)
19.06.2023 10:10 22,7 °C 21,1 °C 58 % 74 % 1012,9 hPa 0,0 l/m² 0,1 km/h (0 Bft) O 82 ° 1 min 327 W/m² 16,3 °C 21,1 °C 1,6 km/h (1 Bft)
19.06.2023 10:11 22,7 °C 21,1 °C 58 % 74 % 1012,9 hPa 0,0 l/m² 1,3 km/h (1 Bft) O 82 ° 1 min 352 W/m² 16,3 °C 21,1 °C 3,2 km/h (1 Bft)
19.06.2023 10:12 22,7 °C 21,2 °C 58 % 73 % 1012,9 hPa 0,0 l/m² 1,3 km/h (1 Bft) O 82 ° 1 min 378 W/m² 16,2 °C 21,2 °C 3,2 km/h (1 Bft)
19.06.2023 10:13 22,7 °C 21,2 °C 58 % 72 % 1012,8 hPa 0,0 l/m² 1,5 km/h (1 Bft) O 82 ° 1 min 397 W/m² 15,9 °C 21,2 °C 3,2 km/h (1 Bft)
19.06.2023 10:14 22,7 °C 21,3 °C 58 % 73 % 1012,8 hPa 0,0 l/m² 0,7 km/h (0 Bft) O 82 ° 1 min 450 W/m² 16,3 °C 21,3 °C 1,6 km/h (1 Bft)
19.06.2023 10:15 22,7 °C 21,4 °C 58 % 75 % 1012,7 hPa 0,0 l/m² 2,9 km/h (1 Bft) O-NO 73 ° 1 min 439 W/m² 16,8 °C 21,4 °C 4,8 km/h (1 Bft)
19.06.2023 10:16 22,7 °C 21,6 °C 58 % 73 % 1012,8 hPa 0,0 l/m² 2,1 km/h (1 Bft) O-NO 73 ° 1 min 439 W/m² 16,5 °C 21,6 °C 4,8 km/h (1 Bft)
19.06.2023 10:17 22,7 °C 21,7 °C 58 % 74 % 1012,8 hPa 0,0 l/m² 0,7 km/h (0 Bft) O-NO 73 ° 1 min 424 W/m² 16,9 °C 21,7 °C 1,6 km/h (1 Bft)
19.06.2023 10:18 22,7 °C 21,8 °C 58 % 72 % 1012,8 hPa 0,0 l/m² 2,4 km/h (1 Bft) O-NO 70 ° 1 min 427 W/m² 16,5 °C 21,8 °C 4,8 km/h (1 Bft)
19.06.2023 10:19 22,7 °C 21,9 °C 58 % 71 % 1012,8 hPa 0,0 l/m² 0,7 km/h (0 Bft) O-NO 70 ° 1 min 434 W/m² 16,4 °C 21,9 °C 3,2 km/h (1 Bft)
19.06.2023 10:21 22,7 °C 22,0 °C 58 % 71 % 1012,7 hPa 0,0 l/m² 2,9 km/h (1 Bft) O-NO 76 ° 2 min 434 W/m² 16,5 °C 22,0 °C 4,8 km/h (1 Bft)
19.06.2023 10:22 22,7 °C 22,1 °C 58 % 71 % 1012,7 hPa 0,0 l/m² 1,1 km/h (1 Bft) O-NO 76 ° 1 min 432 W/m² 16,6 °C 22,1 °C 3,2 km/h (1 Bft)
19.06.2023 10:23 22,7 °C 22,1 °C 58 % 72 % 1012,8 hPa 0,0 l/m² 1,0 km/h (0 Bft) O-NO 76 ° 1 min 454 W/m² 16,8 °C 22,1 °C 3,2 km/h (1 Bft)
19.06.2023 10:24 22,7 °C 22,1 °C 58 % 70 % 1012,8 hPa 0,0 l/m² 0,0 km/h (0 Bft) O-NO 76 ° 1 min 501 W/m² 16,4 °C 22,1 °C 0,0 km/h (0 Bft)
19.06.2023 10:25 22,7 °C 22,2 °C 58 % 71 % 1012,8 hPa 0,0 l/m² 0,1 km/h (0 Bft) O-NO 76 ° 1 min 436 W/m² 16,7 °C 22,2 °C 1,6 km/h (1 Bft)
19.06.2023 10:26 22,7 °C 22,2 °C 58 % 70 % 1012,8 hPa 0,0 l/m² 1,1 km/h (1 Bft) O 86 ° 1 min 420 W/m² 16,5 °C 22,2 °C 4,8 km/h (1 Bft)
19.06.2023 10:27 22,7 °C 22,2 °C 58 % 69 % 1012,9 hPa 0,0 l/m² 2,0 km/h (1 Bft) O 86 ° 1 min 422 W/m² 16,2 °C 22,2 °C 3,2 km/h (1 Bft)
19.06.2023 10:28 22,7 °C 22,2 °C 58 % 70 % 1012,9 hPa 0,0 l/m² 3,1 km/h (1 Bft) S-SO 163 ° 1 min 429 W/m² 16,5 °C 22,2 °C 6,4 km/h (2 Bft)
19.06.2023 10:29 22,8 °C 22,3 °C 58 % 71 % 1013,0 hPa 0,0 l/m² 5,8 km/h (2 Bft) S 175 ° 1 min 420 W/m² 16,8 °C 22,3 °C 8,0 km/h (2 Bft)
19.06.2023 10:31 22,7 °C 22,5 °C 58 % 70 % 1013,1 hPa 0,0 l/m² 7,9 km/h (2 Bft) S-SW 208 ° 2 min 374 W/m² 16,7 °C 22,0 °C 12,9 km/h (3 Bft)
19.06.2023 10:33 22,7 °C 22,4 °C 58 % 71 % 1013,0 hPa 0,0 l/m² 2,6 km/h (1 Bft) S-SW 207 ° 2 min 357 W/m² 16,9 °C 22,4 °C 4,8 km/h (1 Bft)
19.06.2023 10:34 22,7 °C 22,4 °C 58 % 71 % 1013,0 hPa 0,0 l/m² 3,8 km/h (1 Bft) S 189 ° 1 min 345 W/m² 16,9 °C 22,4 °C 4,8 km/h (1 Bft)
19.06.2023 10:35 22,7 °C 22,5 °C 58 % 71 % 1013,0 hPa 0,0 l/m² 4,2 km/h (1 Bft) SW 215 ° 1 min 336 W/m² 17,0 °C 22,5 °C 4,8 km/h (1 Bft)
19.06.2023 10:36 22,7 °C 22,6 °C 58 % 71 % 1013,0 hPa 0,0 l/m² 3,4 km/h (1 Bft) S-SW 205 ° 1 min 327 W/m² 17,1 °C 22,6 °C 4,8 km/h (1 Bft)
19.06.2023 10:37 22,8 °C 22,6 °C 57 % 69 % 1013,0 hPa 0,0 l/m² 0,7 km/h (0 Bft) S-SW 205 ° 1 min 320 W/m² 16,6 °C 22,6 °C 3,2 km/h (1 Bft)
19.06.2023 10:38 22,8 °C 22,6 °C 57 % 69 % 1012,9 hPa 0,0 l/m² 0,6 km/h (0 Bft) S-SW 205 ° 1 min 325 W/m² 16,6 °C 22,6 °C 1,6 km/h (1 Bft)
19.06.2023 10:39 22,8 °C 22,7 °C 57 % 69 % 1012,9 hPa 0,0 l/m² 0,0 km/h (0 Bft) S-SW 205 ° 1 min 338 W/m² 16,7 °C 22,7 °C 0,0 km/h (0 Bft)
19.06.2023 10:40 22,8 °C 22,7 °C 57 % 68 % 1012,8 hPa 0,0 l/m² 0,0 km/h (0 Bft) S-SW 205 ° 1 min 353 W/m² 16,5 °C 22,7 °C 0,0 km/h (0 Bft)
19.06.2023 10:41 22,8 °C 22,7 °C 57 % 66 % 1012,8 hPa 0,0 l/m² 0,0 km/h (0 Bft) S-SW 205 ° 1 min 392 W/m² 16,0 °C 22,7 °C 0,0 km/h (0 Bft)
19.06.2023 10:42 22,8 °C 22,8 °C 57 % 67 % 1012,8 hPa 0,0 l/m² 0,0 km/h (0 Bft) S-SW 205 ° 1 min 420 W/m² 16,3 °C 22,8 °C 0,0 km/h (0 Bft)
19.06.2023 10:43 22,8 °C 22,8 °C 57 % 67 % 1012,8 hPa 0,0 l/m² 0,0 km/h (0 Bft) S-SW 205 ° 1 min 413 W/m² 16,3 °C 22,8 °C 0,0 km/h (0 Bft)
19.06.2023 10:44 22,8 °C 22,8 °C 57 % 67 % 1012,8 hPa 0,0 l/m² 0,2 km/h (0 Bft) S-SW 205 ° 1 min 408 W/m² 16,3 °C 22,8 °C 1,6 km/h (1 Bft)
19.06.2023 10:45 22,8 °C 22,9 °C 57 % 68 % 1012,8 hPa 0,0 l/m² 1,7 km/h (1 Bft) O-NO 57 ° 1 min 411 W/m² 16,7 °C 22,9 °C 3,2 km/h (1 Bft)
19.06.2023 10:46 22,8 °C 23,2 °C 57 % 67 % 1012,8 hPa 0,0 l/m² 2,7 km/h (1 Bft) O-NO 67 ° 1 min 455 W/m² 16,7 °C 23,2 °C 3,2 km/h (1 Bft)
19.06.2023 10:47 22,8 °C 23,3 °C 57 % 66 % 1012,8 hPa 0,0 l/m² 0,3 km/h (0 Bft) O-NO 67 ° 1 min 455 W/m² 16,6 °C 23,3 °C 1,6 km/h (1 Bft)
19.06.2023 10:48 22,8 °C 23,6 °C 57 % 65 % 1012,8 hPa 0,0 l/m² 1,2 km/h (1 Bft) O 79 ° 1 min 455 W/m² 16,6 °C 23,6 °C 3,2 km/h (1 Bft)
19.06.2023 10:49 22,8 °C 23,6 °C 57 % 65 % 1012,8 hPa 0,0 l/m² 0,2 km/h (0 Bft) O 85 ° 1 min 679 W/m² 16,6 °C 23,6 °C 1,6 km/h (1 Bft)
19.06.2023 10:51 22,8 °C 24,3 °C 57 % 67 % 1012,8 hPa 0,0 l/m² 0,2 km/h (0 Bft) O 85 ° 2 min 679 W/m² 17,8 °C 24,3 °C 1,6 km/h (1 Bft)
19.06.2023 10:53 22,8 °C 24,8 °C 57 % 62 % 1012,8 hPa 0,0 l/m² 0,1 km/h (0 Bft) O 85 ° 2 min 643 W/m² 17,0 °C 24,8 °C 1,6 km/h (1 Bft)
19.06.2023 10:54 22,8 °C 24,9 °C 57 % 63 % 1012,8 hPa 0,0 l/m² 0,6 km/h (0 Bft) O 89 ° 1 min 575 W/m² 17,4 °C 24,9 °C 1,6 km/h (1 Bft)
19.06.2023 10:55 22,8 °C 25,0 °C 57 % 63 % 1012,8 hPa 0,0 l/m² 0,1 km/h (0 Bft) O 89 ° 1 min 589 W/m² 17,5 °C 25,0 °C 1,6 km/h (1 Bft)
19.06.2023 10:56 22,8 °C 25,2 °C 57 % 63 % 1012,8 hPa 0,0 l/m² 2,0 km/h (1 Bft) O 83 ° 1 min 589 W/m² 17,6 °C 25,2 °C 4,8 km/h (1 Bft)
19.06.2023 10:57 22,8 °C 25,1 °C 57 % 60 % 1012,7 hPa 0,0 l/m² 0,0 km/h (0 Bft) O 83 ° 1 min 589 W/m² 16,8 °C 25,1 °C 0,0 km/h (0 Bft)
19.06.2023 10:58 22,8 °C 25,0 °C 57 % 62 % 1012,7 hPa 0,0 l/m² 0,3 km/h (0 Bft) O 81 ° 1 min 452 W/m² 17,2 °C 25,0 °C 1,6 km/h (1 Bft)
19.06.2023 10:59 22,9 °C 25,1 °C 57 % 64 % 1012,7 hPa 0,0 l/m² 1,1 km/h (1 Bft) O 100 ° 1 min 392 W/m² 17,8 °C 25,1 °C 4,8 km/h (1 Bft)
19.06.2023 11:01 22,8 °C 25,1 °C 57 % 61 % 1012,7 hPa 0,0 l/m² 3,9 km/h (1 Bft) O 98 ° 2 min 383 W/m² 17,0 °C 25,1 °C 4,8 km/h (1 Bft)
19.06.2023 11:03 22,9 °C 25,0 °C 57 % 62 % 1012,7 hPa 0,0 l/m² 2,8 km/h (1 Bft) O 93 ° 2 min 422 W/m² 17,2 °C 25,0 °C 4,8 km/h (1 Bft)
19.06.2023 11:04 22,9 °C 25,0 °C 57 % 61 % 1012,6 hPa 0,0 l/m² 3,1 km/h (1 Bft) O 97 ° 1 min 425 W/m² 16,9 °C 25,0 °C 4,8 km/h (1 Bft)
19.06.2023 11:05 22,9 °C 25,0 °C 57 % 61 % 1012,7 hPa 0,0 l/m² 5,0 km/h (1 Bft) O 99 ° 1 min 413 W/m² 16,9 °C 25,0 °C 6,4 km/h (2 Bft)
19.06.2023 11:07 22,9 °C 25,1 °C 57 % 62 % 1012,6 hPa 0,0 l/m² 3,2 km/h (1 Bft) O-NO 78 ° 2 min 485 W/m² 17,3 °C 25,1 °C 6,4 km/h (2 Bft)
19.06.2023 11:08 22,9 °C 25,0 °C 57 % 61 % 1012,6 hPa 0,0 l/m² 3,0 km/h (1 Bft) O-NO 77 ° 1 min 485 W/m² 16,9 °C 25,0 °C 4,8 km/h (1 Bft)
19.06.2023 11:09 22,9 °C 25,1 °C 57 % 62 % 1012,6 hPa 0,0 l/m² 3,1 km/h (1 Bft) O-NO 76 ° 1 min 761 W/m² 17,3 °C 25,1 °C 6,4 km/h (2 Bft)
19.06.2023 11:10 22,9 °C 25,1 °C 57 % 64 % 1012,6 hPa 0,0 l/m² 3,7 km/h (1 Bft) O-NO 69 ° 1 min 821 W/m² 17,8 °C 25,1 °C 4,8 km/h (1 Bft)
19.06.2023 11:11 22,9 °C 25,6 °C 57 % 62 % 1012,6 hPa 0,0 l/m² 1,9 km/h (1 Bft) O-NO 74 ° 1 min 821 W/m² 17,8 °C 25,6 °C 4,8 km/h (1 Bft)
19.06.2023 11:12 22,9 °C 25,8 °C 57 % 60 % 1012,5 hPa 0,0 l/m² 6,4 km/h (2 Bft) O 94 ° 1 min 826 W/m² 17,4 °C 25,8 °C 9,7 km/h (2 Bft)
19.06.2023 11:13 22,9 °C 25,9 °C 57 % 59 % 1012,6 hPa 0,0 l/m² 5,7 km/h (2 Bft) O 92 ° 1 min 823 W/m² 17,3 °C 25,9 °C 6,4 km/h (2 Bft)
19.06.2023 11:14 22,9 °C 26,1 °C 57 % 59 % 1012,6 hPa 0,0 l/m² 5,3 km/h (1 Bft) O 88 ° 1 min 824 W/m² 17,4 °C 26,1 °C 8,0 km/h (2 Bft)
19.06.2023 11:15 22,9 °C 26,3 °C 57 % 58 % 1012,6 hPa 0,0 l/m² 4,8 km/h (1 Bft) O-NO 71 ° 1 min 821 W/m² 17,4 °C 26,3 °C 8,0 km/h (2 Bft)
19.06.2023 11:16 22,9 °C 26,6 °C 57 % 56 % 1012,6 hPa 0,0 l/m² 5,4 km/h (2 Bft) SO 130 ° 1 min 819 W/m² 17,1 °C 26,6 °C 6,4 km/h (2 Bft)
19.06.2023 11:17 22,9 °C 26,8 °C 57 % 56 % 1012,5 hPa 0,0 l/m² 5,0 km/h (1 Bft) O-SO 105 ° 1 min 816 W/m² 17,3 °C 26,8 °C 9,7 km/h (2 Bft)
19.06.2023 11:18 23,0 °C 26,9 °C 57 % 56 % 1012,6 hPa 0,0 l/m² 5,7 km/h (2 Bft) O-SO 114 ° 1 min 826 W/m² 17,4 °C 26,9 °C 9,7 km/h (2 Bft)
19.06.2023 11:19 23,0 °C 26,7 °C 57 % 53 % 1012,6 hPa 0,0 l/m² 2,7 km/h (1 Bft) O-SO 112 ° 1 min 826 W/m² 16,3 °C 26,7 °C 4,8 km/h (1 Bft)
19.06.2023 11:20 23,0 °C 26,7 °C 57 % 54 % 1012,6 hPa 0,0 l/m² 7,5 km/h (2 Bft) SO 134 ° 1 min 824 W/m² 16,6 °C 26,5 °C 11,3 km/h (2 Bft)
19.06.2023 11:22 23,0 °C 26,8 °C 57 % 51 % 1012,6 hPa 0,0 l/m² 5,7 km/h (2 Bft) O-SO 104 ° 2 min 823 W/m² 15,8 °C 26,8 °C 11,3 km/h (2 Bft)
19.06.2023 11:23 23,1 °C 27,1 °C 57 % 55 % 1012,5 hPa 0,0 l/m² 3,7 km/h (1 Bft) NO 51 ° 1 min 837 W/m² 17,3 °C 27,1 °C 4,8 km/h (1 Bft)
19.06.2023 11:24 23,1 °C 27,0 °C 57 % 55 % 1012,5 hPa 0,0 l/m² 5,6 km/h (2 Bft) NO 51 ° 1 min 828 W/m² 17,2 °C 27,0 °C 8,0 km/h (2 Bft)
19.06.2023 11:25 23,1 °C 27,0 °C 57 % 56 % 1012,6 hPa 0,0 l/m² 5,6 km/h (2 Bft) O-NO 75 ° 1 min 842 W/m² 17,5 °C 27,0 °C 8,0 km/h (2 Bft)
19.06.2023 11:26 23,1 °C 27,2 °C 57 % 55 % 1012,6 hPa 0,0 l/m² 3,2 km/h (1 Bft) O-NO 61 ° 1 min 835 W/m² 17,4 °C 27,2 °C 4,8 km/h (1 Bft)
19.06.2023 11:27 23,0 °C 27,2 °C 57 % 55 % 1012,6 hPa 0,0 l/m² 1,7 km/h (1 Bft) O-NO 61 ° 1 min 831 W/m² 17,4 °C 27,2 °C 4,8 km/h (1 Bft)
19.06.2023 11:28 23,1 °C 27,2 °C 57 % 53 % 1012,5 hPa 0,0 l/m² 6,0 km/h (2 Bft) O-SO 110 ° 1 min 853 W/m² 16,8 °C 27,2 °C 11,3 km/h (2 Bft)
19.06.2023 11:29 23,1 °C 27,2 °C 57 % 55 % 1012,5 hPa 0,0 l/m² 5,0 km/h (1 Bft) O-SO 120 ° 1 min 867 W/m² 17,4 °C 27,2 °C 6,4 km/h (2 Bft)
19.06.2023 11:30 23,1 °C 27,4 °C 57 % 52 % 1012,6 hPa 0,0 l/m² 7,2 km/h (2 Bft) O-SO 108 ° 1 min 833 W/m² 16,7 °C 27,3 °C 9,7 km/h (2 Bft)
19.06.2023 11:32 23,1 °C 27,6 °C 57 % 52 % 1012,4 hPa 0,0 l/m² 5,8 km/h (2 Bft) O 97 ° 2 min 780 W/m² 16,8 °C 27,6 °C 9,7 km/h (2 Bft)
19.06.2023 11:33 23,1 °C 27,6 °C 57 % 50 % 1012,5 hPa 0,0 l/m² 3,6 km/h (1 Bft) O 93 ° 1 min 780 W/m² 16,2 °C 27,6 °C 11,3 km/h (2 Bft)
19.06.2023 11:34 23,1 °C 27,7 °C 57 % 52 % 1012,5 hPa 0,0 l/m² 9,1 km/h (2 Bft) O-SO 110 ° 1 min 780 W/m² 16,9 °C 27,3 °C 11,3 km/h (2 Bft)
19.06.2023 11:35 23,1 °C 27,8 °C 57 % 50 % 1012,5 hPa 0,0 l/m² 4,2 km/h (1 Bft) O-SO 103 ° 1 min 851 W/m² 16,4 °C 27,8 °C 6,4 km/h (2 Bft)
19.06.2023 11:36 23,1 °C 27,7 °C 57 % 49 % 1012,5 hPa 0,0 l/m² 7,4 km/h (2 Bft) O 98 ° 1 min 872 W/m² 16,0 °C 27,5 °C 11,3 km/h (2 Bft)
19.06.2023 11:37 23,1 °C 27,7 °C 57 % 49 % 1012,4 hPa 0,0 l/m² 5,0 km/h (1 Bft) O 92 ° 1 min 886 W/m² 16,0 °C 27,7 °C 6,4 km/h (2 Bft)
19.06.2023 11:38 23,1 °C 27,7 °C 57 % 50 % 1012,5 hPa 0,0 l/m² 6,5 km/h (2 Bft) O 99 ° 1 min 911 W/m² 16,3 °C 27,7 °C 9,7 km/h (2 Bft)
19.06.2023 11:39 23,1 °C 27,8 °C 57 % 50 % 1012,5 hPa 0,0 l/m² 8,3 km/h (2 Bft) O 83 ° 1 min 933 W/m² 16,4 °C 27,5 °C 16,1 km/h (3 Bft)
19.06.2023 11:40 23,1 °C 27,9 °C 57 % 49 % 1012,5 hPa 0,0 l/m² 9,7 km/h (2 Bft) O-SO 113 ° 1 min 837 W/m² 16,2 °C 27,4 °C 16,1 km/h (3 Bft)
19.06.2023 11:42 23,1 °C 28,2 °C 56 % 49 % 1012,5 hPa 0,0 l/m² 8,3 km/h (2 Bft) O 94 ° 2 min 659 W/m² 16,5 °C 27,9 °C 12,9 km/h (3 Bft)
19.06.2023 11:43 23,2 °C 28,4 °C 56 % 49 % 1012,5 hPa 0,0 l/m² 11,3 km/h (2 Bft) O-SO 110 ° 1 min 846 W/m² 16,6 °C 27,8 °C 12,9 km/h (3 Bft)
19.06.2023 11:44 23,2 °C 28,6 °C 56 % 47 % 1012,5 hPa 0,0 l/m² 6,9 km/h (2 Bft) S-SO 148 ° 1 min 889 W/m² 16,2 °C 28,5 °C 12,9 km/h (3 Bft)
19.06.2023 11:45 23,2 °C 28,6 °C 56 % 47 % 1012,5 hPa 0,0 l/m² 3,0 km/h (1 Bft) S-SO 155 ° 1 min 889 W/m² 16,2 °C 28,6 °C 4,8 km/h (1 Bft)
19.06.2023 11:46 23,2 °C 28,6 °C 56 % 48 % 1012,5 hPa 0,0 l/m² 4,1 km/h (1 Bft) SO 142 ° 1 min 889 W/m² 16,5 °C 28,6 °C 6,4 km/h (2 Bft)
19.06.2023 11:47 23,2 °C 28,5 °C 56 % 47 % 1012,5 hPa 0,0 l/m² 4,0 km/h (1 Bft) O-SO 118 ° 1 min 891 W/m² 16,1 °C 28,5 °C 6,4 km/h (2 Bft)
19.06.2023 11:48 23,2 °C 28,7 °C 56 % 48 % 1012,4 hPa 0,0 l/m² 7,7 km/h (2 Bft) O-SO 123 ° 1 min 889 W/m² 16,6 °C 28,5 °C 9,7 km/h (2 Bft)
19.06.2023 11:49 23,2 °C 28,8 °C 56 % 44 % 1012,4 hPa 0,0 l/m² 6,4 km/h (2 Bft) O-SO 117 ° 1 min 856 W/m² 15,3 °C 28,8 °C 9,7 km/h (2 Bft)
19.06.2023 11:50 23,2 °C 28,8 °C 56 % 43 % 1012,5 hPa 0,0 l/m² 6,4 km/h (2 Bft) SO 136 ° 1 min 882 W/m² 15,0 °C 28,8 °C 11,3 km/h (2 Bft)
19.06.2023 11:52 23,2 °C 28,9 °C 56 % 44 % 1012,5 hPa 0,0 l/m² 7,8 km/h (2 Bft) S-SO 159 ° 2 min 784 W/m² 15,4 °C 28,7 °C 14,5 km/h (3 Bft)
19.06.2023 11:53 23,2 °C 28,9 °C 56 % 44 % 1012,5 hPa 0,0 l/m² 6,8 km/h (2 Bft) S 169 ° 1 min 925 W/m² 15,4 °C 28,8 °C 9,7 km/h (2 Bft)
19.06.2023 11:54 23,2 °C 29,0 °C 56 % 44 % 1012,5 hPa 0,0 l/m² 11,0 km/h (2 Bft) S-SO 165 ° 1 min 944 W/m² 15,5 °C 28,5 °C 19,3 km/h (3 Bft)
19.06.2023 11:55 23,2 °C 29,1 °C 56 % 43 % 1012,5 hPa 0,0 l/m² 9,7 km/h (2 Bft) S 189 ° 1 min 970 W/m² 15,2 °C 28,7 °C 12,9 km/h (3 Bft)
19.06.2023 11:56 23,2 °C 29,1 °C 56 % 42 % 1012,5 hPa 0,0 l/m² 9,4 km/h (2 Bft) S-SW 194 ° 1 min 962 W/m² 14,9 °C 28,8 °C 11,3 km/h (2 Bft)
19.06.2023 11:57 23,2 °C 29,2 °C 56 % 42 % 1012,4 hPa 0,0 l/m² 8,8 km/h (2 Bft) S-SW 196 ° 1 min 962 W/m² 14,9 °C 28,9 °C 12,9 km/h (3 Bft)
19.06.2023 11:58 23,2 °C 29,2 °C 56 % 42 % 1012,5 hPa 0,0 l/m² 10,1 km/h (2 Bft) S-SO 168 ° 1 min 962 W/m² 14,9 °C 28,8 °C 16,1 km/h (3 Bft)
19.06.2023 11:59 23,2 °C 29,1 °C 56 % 41 % 1012,4 hPa 0,0 l/m² 6,8 km/h (2 Bft) S 177 ° 1 min 962 W/m² 14,5 °C 29,1 °C 11,3 km/h (2 Bft)
19.06.2023 12:00 23,2 °C 29,2 °C 56 % 43 % 1012,4 hPa 0,0 l/m² 11,1 km/h (2 Bft) S-SO 168 ° 1 min 962 W/m² 15,3 °C 28,7 °C 16,1 km/h (3 Bft)
19.06.2023 12:02 23,1 °C 28,8 °C 56 % 42 % 1012,4 hPa 0,0 l/m² 11,6 km/h (2 Bft) SO 131 ° 2 min 434 W/m² 14,6 °C 28,2 °C 16,1 km/h (3 Bft)
19.06.2023 12:03 23,1 °C 28,8 °C 56 % 42 % 1012,5 hPa 0,0 l/m² 8,1 km/h (2 Bft) S 182 ° 1 min 434 W/m² 14,6 °C 28,6 °C 12,9 km/h (3 Bft)
19.06.2023 12:04 23,1 °C 28,9 °C 57 % 42 % 1012,3 hPa 0,0 l/m² 10,7 km/h (2 Bft) S 173 ° 1 min 940 W/m² 14,7 °C 28,4 °C 14,5 km/h (3 Bft)
19.06.2023 12:05 23,1 °C 28,9 °C 57 % 41 % 1012,4 hPa 0,0 l/m² 11,9 km/h (2 Bft) SO 138 ° 1 min 933 W/m² 14,3 °C 28,3 °C 14,5 km/h (3 Bft)
19.06.2023 12:06 23,1 °C 29,1 °C 57 % 42 % 1012,4 hPa 0,0 l/m² 11,5 km/h (2 Bft) S-SO 163 ° 1 min 932 W/m² 14,9 °C 28,6 °C 14,5 km/h (3 Bft)
19.06.2023 12:07 23,1 °C 29,2 °C 57 % 41 % 1012,5 hPa 0,0 l/m² 10,7 km/h (2 Bft) S-SO 155 ° 1 min 925 W/m² 14,6 °C 28,7 °C 14,5 km/h (3 Bft)
19.06.2023 12:08 23,1 °C 29,4 °C 57 % 40 % 1012,5 hPa 0,0 l/m² 9,2 km/h (2 Bft) SO 136 ° 1 min 918 W/m² 14,4 °C 29,1 °C 14,5 km/h (3 Bft)
19.06.2023 12:09 23,1 °C 29,6 °C 57 % 41 % 1012,4 hPa 0,0 l/m² 6,9 km/h (2 Bft) S-SO 147 ° 1 min 909 W/m² 14,9 °C 29,5 °C 11,3 km/h (2 Bft)
19.06.2023 12:10 23,1 °C 29,8 °C 57 % 42 % 1012,4 hPa 0,0 l/m² 3,2 km/h (1 Bft) S-SO 163 ° 1 min 889 W/m² 15,5 °C 29,8 °C 6,4 km/h (2 Bft)
19.06.2023 12:12 23,1 °C 29,8 °C 57 % 41 % 1012,5 hPa 0,0 l/m² 10,3 km/h (2 Bft) S 170 ° 2 min 601 W/m² 15,1 °C 29,4 °C 16,1 km/h (3 Bft)
19.06.2023 12:13 23,1 °C 29,6 °C 57 % 40 % 1012,4 hPa 0,0 l/m² 8,9 km/h (2 Bft) S-SW 212 ° 1 min 900 W/m² 14,5 °C 29,3 °C 11,3 km/h (2 Bft)
19.06.2023 12:15 23,1 °C 29,4 °C 57 % 41 % 1012,3 hPa 0,0 l/m² 6,8 km/h (2 Bft) S-SW 192 ° 2 min 895 W/m² 14,7 °C 29,4 °C 11,3 km/h (2 Bft)
19.06.2023 12:16 23,0 °C 29,5 °C 57 % 41 % 1012,4 hPa 0,0 l/m² 8,7 km/h (2 Bft) S 171 ° 1 min 932 W/m² 14,8 °C 29,3 °C 12,9 km/h (3 Bft)
19.06.2023 12:17 23,1 °C 29,7 °C 57 % 41 % 1012,3 hPa 0,0 l/m² 10,9 km/h (2 Bft) S-SO 161 ° 1 min 926 W/m² 15,0 °C 29,3 °C 16,1 km/h (3 Bft)
19.06.2023 12:18 23,1 °C 29,8 °C 57 % 40 % 1012,3 hPa 0,0 l/m² 9,7 km/h (2 Bft) S 169 ° 1 min 942 W/m² 14,7 °C 29,5 °C 12,9 km/h (3 Bft)
19.06.2023 12:19 23,1 °C 29,8 °C 57 % 40 % 1012,4 hPa 0,0 l/m² 11,4 km/h (2 Bft) S 175 ° 1 min 944 W/m² 14,7 °C 29,4 °C 14,5 km/h (3 Bft)
19.06.2023 12:21 23,0 °C 29,8 °C 57 % 41 % 1012,4 hPa 0,0 l/m² 9,2 km/h (2 Bft) S 185 ° 2 min 965 W/m² 15,1 °C 29,5 °C 14,5 km/h (3 Bft)
19.06.2023 12:23 23,0 °C 29,6 °C 57 % 41 % 1012,4 hPa 0,0 l/m² 7,5 km/h (2 Bft) S 181 ° 2 min 1002 W/m² 14,9 °C 29,5 °C 11,3 km/h (2 Bft)
19.06.2023 12:24 23,0 °C 29,6 °C 57 % 41 % 1012,4 hPa 0,0 l/m² 7,1 km/h (2 Bft) S 183 ° 1 min 1002 W/m² 14,9 °C 29,5 °C 11,3 km/h (2 Bft)
19.06.2023 12:25 23,0 °C 29,4 °C 57 % 41 % 1012,4 hPa 0,0 l/m² 5,5 km/h (2 Bft) SW 227 ° 1 min 431 W/m² 14,7 °C 29,4 °C 9,7 km/h (2 Bft)
19.06.2023 12:26 23,0 °C 29,4 °C 57 % 42 % 1012,4 hPa 0,0 l/m² 7,3 km/h (2 Bft) S 175 ° 1 min 446 W/m² 15,1 °C 29,3 °C 12,9 km/h (3 Bft)
19.06.2023 12:27 23,0 °C 29,3 °C 57 % 42 % 1012,3 hPa 0,0 l/m² 10,4 km/h (2 Bft) SO 146 ° 1 min 446 W/m² 15,0 °C 28,9 °C 14,5 km/h (3 Bft)
19.06.2023 12:28 23,0 °C 29,3 °C 57 % 41 % 1012,3 hPa 0,0 l/m² 11,9 km/h (2 Bft) SO 141 ° 1 min 768 W/m² 14,7 °C 28,7 °C 14,5 km/h (3 Bft)
19.06.2023 12:29 23,0 °C 29,3 °C 57 % 40 % 1012,3 hPa 0,0 l/m² 12,1 km/h (2 Bft) S-SO 152 ° 1 min 868 W/m² 14,3 °C 28,7 °C 16,1 km/h (3 Bft)
19.06.2023 12:31 23,0 °C 29,4 °C 57 % 39 % 1012,3 hPa 0,0 l/m² 11,0 km/h (2 Bft) S-SO 151 ° 2 min 868 W/m² 14,0 °C 28,9 °C 16,1 km/h (3 Bft)
19.06.2023 12:33 23,0 °C 29,6 °C 57 % 39 % 1012,3 hPa 0,0 l/m² 9,3 km/h (2 Bft) S 178 ° 2 min 1169 W/m² 14,2 °C 29,3 °C 12,9 km/h (3 Bft)
19.06.2023 12:34 23,0 °C 29,7 °C 57 % 41 % 1012,3 hPa 0,0 l/m² 8,8 km/h (2 Bft) S 186 ° 1 min 986 W/m² 15,0 °C 29,5 °C 11,3 km/h (2 Bft)
19.06.2023 12:35 23,0 °C 29,9 °C 57 % 39 % 1012,3 hPa 0,0 l/m² 10,6 km/h (2 Bft) S-SW 196 ° 1 min 986 W/m² 14,4 °C 29,5 °C 14,5 km/h (3 Bft)
19.06.2023 12:36 23,0 °C 30,0 °C 57 % 39 % 1012,3 hPa 0,0 l/m² 8,2 km/h (2 Bft) S-SO 161 ° 1 min 584 W/m² 14,5 °C 29,8 °C 11,3 km/h (2 Bft)
19.06.2023 12:37 23,0 °C 30,0 °C 57 % 37 % 1012,3 hPa 0,0 l/m² 8,0 km/h (2 Bft) S 179 ° 1 min 584 W/m² 13,7 °C 29,9 °C 12,9 km/h (3 Bft)
19.06.2023 12:38 23,0 °C 29,7 °C 57 % 39 % 1012,3 hPa 0,0 l/m² 7,3 km/h (2 Bft) S 169 ° 1 min 396 W/m² 14,2 °C 29,6 °C 11,3 km/h (2 Bft)
19.06.2023 12:39 23,0 °C 29,6 °C 57 % 38 % 1012,2 hPa 0,0 l/m² 10,7 km/h (2 Bft) S 182 ° 1 min 390 W/m² 13,8 °C 29,2 °C 14,5 km/h (3 Bft)
19.06.2023 12:41 22,9 °C 29,1 °C 57 % 39 % 1012,2 hPa 0,0 l/m² 9,5 km/h (2 Bft) S-SO 157 ° 2 min 348 W/m² 13,7 °C 28,7 °C 14,5 km/h (3 Bft)
19.06.2023 12:43 22,9 °C 28,8 °C 57 % 41 % 1012,3 hPa 0,0 l/m² 10,7 km/h (2 Bft) S-SO 153 ° 2 min 338 W/m² 14,2 °C 28,3 °C 16,1 km/h (3 Bft)
19.06.2023 12:44 22,9 °C 28,6 °C 57 % 41 % 1012,2 hPa 0,0 l/m² 7,9 km/h (2 Bft) SO 142 ° 1 min 338 W/m² 14,0 °C 28,4 °C 12,9 km/h (3 Bft)
19.06.2023 12:46 22,9 °C 28,5 °C 57 % 42 % 1012,3 hPa 0,0 l/m² 10,2 km/h (2 Bft) S-SO 147 ° 2 min 383 W/m² 14,3 °C 28,0 °C 14,5 km/h (3 Bft)
19.06.2023 12:47 22,9 °C 28,4 °C 57 % 42 % 1012,3 hPa 0,0 l/m² 5,6 km/h (2 Bft) SO 143 ° 1 min 413 W/m² 14,2 °C 28,4 °C 8,0 km/h (2 Bft)
19.06.2023 12:48 22,9 °C 28,4 °C 57 % 42 % 1012,2 hPa 0,0 l/m² 8,4 km/h (2 Bft) S 186 ° 1 min 462 W/m² 14,2 °C 28,1 °C 11,3 km/h (2 Bft)
19.06.2023 12:49 22,9 °C 28,4 °C 57 % 42 % 1012,3 hPa 0,0 l/m² 7,6 km/h (2 Bft) S-SO 159 ° 1 min 462 W/m² 14,2 °C 28,2 °C 11,3 km/h (2 Bft)
19.06.2023 12:51 22,9 °C 28,8 °C 57 % 43 % 1012,2 hPa 0,0 l/m² 7,6 km/h (2 Bft) S-SW 207 ° 2 min 570 W/m² 15,0 °C 28,6 °C 11,3 km/h (2 Bft)
19.06.2023 12:53 22,9 °C 29,1 °C 57 % 42 % 1012,2 hPa 0,0 l/m² 9,2 km/h (2 Bft) S-SO 149 ° 2 min 580 W/m² 14,9 °C 28,8 °C 14,5 km/h (3 Bft)
19.06.2023 12:54 22,9 °C 29,1 °C 57 % 41 % 1012,2 hPa 0,0 l/m² 8,8 km/h (2 Bft) SO 132 ° 1 min 664 W/m² 14,5 °C 28,8 °C 11,3 km/h (2 Bft)
19.06.2023 12:55 22,9 °C 29,1 °C 57 % 41 % 1012,1 hPa 0,0 l/m² 8,5 km/h (2 Bft) SO 143 ° 1 min 664 W/m² 14,5 °C 28,8 °C 11,3 km/h (2 Bft)
19.06.2023 12:56 22,9 °C 29,1 °C 57 % 41 % 1012,1 hPa 0,0 l/m² 7,3 km/h (2 Bft) SO 146 ° 1 min 664 W/m² 14,5 °C 29,0 °C 11,3 km/h (2 Bft)
19.06.2023 12:57 22,9 °C 29,1 °C 57 % 41 % 1012,2 hPa 0,0 l/m² 9,0 km/h (2 Bft) S-SO 161 ° 1 min 635 W/m² 14,5 °C 28,8 °C 11,3 km/h (2 Bft)
19.06.2023 12:58 23,0 °C 29,0 °C 57 % 40 % 1012,2 hPa 0,0 l/m² 4,0 km/h (1 Bft) S-SO 147 ° 1 min 635 W/m² 14,0 °C 29,0 °C 8,0 km/h (2 Bft)
19.06.2023 12:59 23,0 °C 29,1 °C 57 % 41 % 1012,2 hPa 0,0 l/m² 5,5 km/h (2 Bft) SO 134 ° 1 min 499 W/m² 14,5 °C 29,1 °C 6,4 km/h (2 Bft)
19.06.2023 13:01 22,9 °C 29,1 °C 57 % 40 % 1012,2 hPa 0,0 l/m² 3,8 km/h (1 Bft) SO 142 ° 2 min 499 W/m² 14,1 °C 29,1 °C 6,4 km/h (2 Bft)
19.06.2023 13:03 22,9 °C 29,2 °C 57 % 41 % 1012,2 hPa 0,0 l/m² 3,3 km/h (1 Bft) S 169 ° 2 min 900 W/m² 14,6 °C 29,2 °C 6,4 km/h (2 Bft)
19.06.2023 13:04 22,9 °C 29,4 °C 57 % 41 % 1012,2 hPa 0,0 l/m² 2,3 km/h (1 Bft) S-SW 192 ° 1 min 904 W/m² 14,7 °C 29,4 °C 6,4 km/h (2 Bft)
19.06.2023 13:05 22,9 °C 29,8 °C 57 % 42 % 1012,1 hPa 0,0 l/m² 7,4 km/h (2 Bft) S-SW 207 ° 1 min 909 W/m² 15,5 °C 29,7 °C 9,7 km/h (2 Bft)
19.06.2023 13:07 22,9 °C 30,4 °C 57 % 40 % 1012,2 hPa 0,0 l/m² 9,7 km/h (2 Bft) SO 132 ° 2 min 896 W/m² 15,3 °C 30,1 °C 19,3 km/h (3 Bft)
19.06.2023 13:08 22,9 °C 30,6 °C 57 % 39 % 1012,2 hPa 0,0 l/m² 3,6 km/h (1 Bft) S-SO 157 ° 1 min 923 W/m² 15,0 °C 30,6 °C 6,4 km/h (2 Bft)
19.06.2023 13:09 23,0 °C 30,6 °C 57 % 38 % 1012,2 hPa 0,0 l/m² 0,3 km/h (0 Bft) S-SO 157 ° 1 min 949 W/m² 14,6 °C 30,6 °C 1,6 km/h (1 Bft)
19.06.2023 13:10 23,0 °C 30,4 °C 57 % 38 % 1012,2 hPa 0,0 l/m² 0,0 km/h (0 Bft) S-SO 157 ° 1 min 949 W/m² 14,5 °C 30,4 °C 1,6 km/h (1 Bft)
19.06.2023 13:11 22,9 °C 30,4 °C 57 % 39 % 1012,1 hPa 0,0 l/m² 6,4 km/h (2 Bft) S 180 ° 1 min 802 W/m² 14,9 °C 30,4 °C 12,9 km/h (3 Bft)
19.06.2023 13:16 23,0 °C 30,1 °C 57 % 40 % 1012,2 hPa 0,0 l/m² 7,7 km/h (2 Bft) S-SO 157 ° 5 min 782 W/m² 15,0 °C 30,0 °C 9,7 km/h (2 Bft)
19.06.2023 13:18 22,9 °C 29,8 °C 57 % 39 % 1012,2 hPa 0,0 l/m² 5,7 km/h (2 Bft) S-SW 199 ° 2 min 643 W/m² 14,3 °C 29,8 °C 9,7 km/h (2 Bft)
19.06.2023 13:19 22,9 °C 29,6 °C 57 % 40 % 1012,2 hPa 0,0 l/m² 7,2 km/h (2 Bft) S-SW 200 ° 1 min 721 W/m² 14,5 °C 29,5 °C 16,1 km/h (3 Bft)
19.06.2023 13:21 23,0 °C 29,7 °C 57 % 40 % 1012,2 hPa 0,0 l/m² 9,6 km/h (2 Bft) S-SW 205 ° 2 min 868 W/m² 14,6 °C 29,4 °C 14,5 km/h (3 Bft)
19.06.2023 13:22 23,0 °C 29,9 °C 57 % 40 % 1012,2 hPa 0,0 l/m² 10,8 km/h (2 Bft) S 191 ° 1 min 752 W/m² 14,8 °C 29,5 °C 14,5 km/h (3 Bft)
19.06.2023 13:24 22,9 °C 30,1 °C 57 % 38 % 1012,2 hPa 0,0 l/m² 9,3 km/h (2 Bft) S 187 ° 2 min 895 W/m² 14,2 °C 29,8 °C 14,5 km/h (3 Bft)
19.06.2023 13:26 22,9 °C 29,9 °C 57 % 38 % 1012,2 hPa 0,0 l/m² 7,9 km/h (2 Bft) S-SW 210 ° 2 min 907 W/m² 14,0 °C 29,8 °C 11,3 km/h (2 Bft)
19.06.2023 13:28 23,0 °C 30,1 °C 57 % 39 % 1012,3 hPa 0,0 l/m² 10,6 km/h (2 Bft) S-SO 155 ° 2 min 928 W/m² 14,6 °C 29,8 °C 14,5 km/h (3 Bft)
19.06.2023 13:30 22,9 °C 30,4 °C 57 % 38 % 1012,3 hPa 0,0 l/m² 8,5 km/h (2 Bft) SW 223 ° 2 min 905 W/m² 14,5 °C 30,2 °C 14,5 km/h (3 Bft)
19.06.2023 13:31 23,0 °C 30,4 °C 57 % 36 % 1012,2 hPa 0,0 l/m² 14,0 km/h (3 Bft) S-SW 206 ° 1 min 830 W/m² 13,6 °C 29,9 °C 16,1 km/h (3 Bft)
19.06.2023 13:32 23,0 °C 30,4 °C 57 % 38 % 1012,2 hPa 0,0 l/m² 11,0 km/h (2 Bft) S-SW 209 ° 1 min 858 W/m² 14,5 °C 30,1 °C 12,9 km/h (3 Bft)
19.06.2023 13:33 23,0 °C 30,4 °C 57 % 37 % 1012,2 hPa 0,0 l/m² 8,2 km/h (2 Bft) SW 222 ° 1 min 842 W/m² 14,0 °C 30,3 °C 11,3 km/h (2 Bft)
19.06.2023 13:34 22,9 °C 30,5 °C 57 % 38 % 1012,3 hPa 0,0 l/m² 11,3 km/h (2 Bft) S-SW 202 ° 1 min 856 W/m² 14,5 °C 30,2 °C 14,5 km/h (3 Bft)
19.06.2023 13:36 23,0 °C 30,4 °C 57 % 38 % 1012,2 hPa 0,0 l/m² 10,0 km/h (2 Bft) S-SO 153 ° 2 min 902 W/m² 14,5 °C 30,1 °C 16,1 km/h (3 Bft)
19.06.2023 13:38 22,9 °C 30,4 °C 57 % 38 % 1012,2 hPa 0,0 l/m² 6,4 km/h (2 Bft) SO 139 ° 2 min 942 W/m² 14,5 °C 30,4 °C 12,9 km/h (3 Bft)
19.06.2023 13:40 22,9 °C 30,6 °C 57 % 39 % 1012,1 hPa 0,0 l/m² 8,1 km/h (2 Bft) W 268 ° 2 min 928 W/m² 15,0 °C 30,5 °C 12,9 km/h (3 Bft)
19.06.2023 13:41 22,9 °C 30,8 °C 57 % 37 % 1012,2 hPa 0,0 l/m² 13,4 km/h (3 Bft) S-SW 202 ° 1 min 928 W/m² 14,4 °C 30,4 °C 16,1 km/h (3 Bft)
19.06.2023 13:42 22,9 °C 30,8 °C 57 % 38 % 1012,2 hPa 0,0 l/m² 12,1 km/h (2 Bft) S-SW 211 ° 1 min 926 W/m² 14,8 °C 30,5 °C 14,5 km/h (3 Bft)
19.06.2023 13:43 22,9 °C 30,9 °C 57 % 38 % 1012,2 hPa 0,0 l/m² 12,7 km/h (3 Bft) SW 223 ° 1 min 926 W/m² 14,9 °C 30,6 °C 14,5 km/h (3 Bft)
19.06.2023 13:44 23,0 °C 31,1 °C 57 % 37 % 1012,2 hPa 0,0 l/m² 13,7 km/h (3 Bft) SW 221 ° 1 min 877 W/m² 14,7 °C 30,7 °C 17,7 km/h (3 Bft)
19.06.2023 13:46 22,9 °C 30,7 °C 57 % 38 % 1012,2 hPa 0,0 l/m² 10,2 km/h (2 Bft) S 187 ° 2 min 886 W/m² 14,7 °C 30,4 °C 19,3 km/h (3 Bft)
19.06.2023 13:48 22,9 °C 30,8 °C 57 % 38 % 1012,1 hPa 0,0 l/m² 12,2 km/h (2 Bft) S-SW 200 ° 2 min 954 W/m² 14,8 °C 30,5 °C 16,1 km/h (3 Bft)
19.06.2023 13:50 22,9 °C 31,2 °C 57 % 37 % 1012,1 hPa 0,0 l/m² 12,5 km/h (2 Bft) SO 138 ° 2 min 898 W/m² 14,8 °C 30,9 °C 19,3 km/h (3 Bft)
19.06.2023 13:51 23,0 °C 31,3 °C 57 % 38 % 1012,1 hPa 0,0 l/m² 10,1 km/h (2 Bft) S-SO 156 ° 1 min 853 W/m² 15,3 °C 31,1 °C 14,5 km/h (3 Bft)
19.06.2023 13:52 23,0 °C 31,1 °C 57 % 37 % 1012,1 hPa 0,0 l/m² 7,7 km/h (2 Bft) SO 144 ° 1 min 844 W/m² 14,7 °C 31,0 °C 11,3 km/h (2 Bft)
19.06.2023 13:53 22,9 °C 30,9 °C 57 % 37 % 1012,1 hPa 0,0 l/m² 8,2 km/h (2 Bft) SO 132 ° 1 min 854 W/m² 14,5 °C 30,8 °C 14,5 km/h (3 Bft)
19.06.2023 13:54 22,9 °C 30,9 °C 57 % 37 % 1012,1 hPa 0,0 l/m² 7,4 km/h (2 Bft) S-SW 200 ° 1 min 851 W/m² 14,5 °C 30,8 °C 11,3 km/h (2 Bft)
19.06.2023 13:56 23,0 °C 30,7 °C 57 % 38 % 1012,1 hPa 0,0 l/m² 6,1 km/h (2 Bft) S-SO 148 ° 2 min 895 W/m² 14,7 °C 30,7 °C 12,9 km/h (3 Bft)
19.06.2023 13:58 23,0 °C 30,9 °C 57 % 38 % 1012,1 hPa 0,0 l/m² 10,5 km/h (2 Bft) S-SO 159 ° 2 min 824 W/m² 14,9 °C 30,7 °C 14,5 km/h (3 Bft)
19.06.2023 13:59 23,0 °C 31,0 °C 57 % 39 % 1012,1 hPa 0,0 l/m² 10,2 km/h (2 Bft) S-SW 207 ° 1 min 916 W/m² 15,4 °C 30,8 °C 14,5 km/h (3 Bft)
19.06.2023 14:00 23,0 °C 31,1 °C 57 % 37 % 1012,1 hPa 0,0 l/m² 9,3 km/h (2 Bft) S-SW 212 ° 1 min 939 W/m² 14,7 °C 30,9 °C 12,9 km/h (3 Bft)
19.06.2023 14:02 23,0 °C 31,0 °C 57 % 38 % 1012,1 hPa 0,0 l/m² 6,6 km/h (2 Bft) O-SO 119 ° 2 min 886 W/m² 15,0 °C 31,0 °C 11,3 km/h (2 Bft)
19.06.2023 14:03 23,0 °C 31,1 °C 57 % 38 % 1012,1 hPa 0,0 l/m² 8,0 km/h (2 Bft) S-SW 202 ° 1 min 893 W/m² 15,1 °C 31,0 °C 9,7 km/h (2 Bft)
19.06.2023 14:04 23,0 °C 31,3 °C 57 % 38 % 1012,1 hPa 0,0 l/m² 12,5 km/h (2 Bft) S-SW 208 ° 1 min 888 W/m² 15,3 °C 31,0 °C 22,5 km/h (4 Bft)
19.06.2023 14:06 23,0 °C 31,6 °C 57 % 38 % 1012,1 hPa 0,0 l/m² 12,5 km/h (2 Bft) S 175 ° 2 min 882 W/m² 15,5 °C 31,4 °C 17,7 km/h (3 Bft)
19.06.2023 14:08 23,0 °C 31,8 °C 57 % 37 % 1012,0 hPa 0,0 l/m² 12,0 km/h (2 Bft) S-SW 200 ° 2 min 879 W/m² 15,3 °C 31,6 °C 16,1 km/h (3 Bft)
19.06.2023 14:10 23,0 °C 31,4 °C 57 % 37 % 1012,0 hPa 0,0 l/m² 10,4 km/h (2 Bft) SW 218 ° 2 min 867 W/m² 14,9 °C 31,2 °C 12,9 km/h (3 Bft)
19.06.2023 14:11 23,0 °C 31,3 °C 57 % 37 % 1012,0 hPa 0,0 l/m² 7,1 km/h (2 Bft) SW 214 ° 1 min 867 W/m² 14,8 °C 31,3 °C 12,9 km/h (3 Bft)
19.06.2023 14:12 23,0 °C 31,1 °C 57 % 37 % 1012,0 hPa 0,0 l/m² 8,5 km/h (2 Bft) S-SW 209 ° 1 min 882 W/m² 14,7 °C 31,0 °C 12,9 km/h (3 Bft)
19.06.2023 14:13 23,0 °C 31,1 °C 57 % 38 % 1012,0 hPa 0,0 l/m² 12,1 km/h (2 Bft) SW 216 ° 1 min 872 W/m² 15,1 °C 30,8 °C 17,7 km/h (3 Bft)
19.06.2023 14:14 23,0 °C 31,1 °C 57 % 38 % 1011,9 hPa 0,0 l/m² 6,8 km/h (2 Bft) W-SW 238 ° 1 min 886 W/m² 15,1 °C 31,1 °C 12,9 km/h (3 Bft)
19.06.2023 14:16 23,0 °C 31,1 °C 57 % 38 % 1011,9 hPa 0,0 l/m² 5,7 km/h (2 Bft) S-SW 205 ° 2 min 896 W/m² 15,1 °C 31,1 °C 11,3 km/h (2 Bft)
19.06.2023 14:18 23,0 °C 31,2 °C 57 % 39 % 1012,0 hPa 0,0 l/m² 11,7 km/h (2 Bft) S 173 ° 2 min 912 W/m² 15,6 °C 30,9 °C 16,1 km/h (3 Bft)
19.06.2023 14:20 23,0 °C 31,3 °C 57 % 37 % 1012,0 hPa 0,0 l/m² 10,9 km/h (2 Bft) SW 223 ° 2 min 882 W/m² 14,8 °C 31,1 °C 16,1 km/h (3 Bft)
19.06.2023 14:21 23,1 °C 31,2 °C 57 % 37 % 1012,0 hPa 0,0 l/m² 9,7 km/h (2 Bft) S 182 ° 1 min 868 W/m² 14,8 °C 31,0 °C 19,3 km/h (3 Bft)
19.06.2023 14:22 23,1 °C 31,2 °C 57 % 38 % 1012,0 hPa 0,0 l/m² 14,3 km/h (3 Bft) SW 221 ° 1 min 858 W/m² 15,2 °C 30,8 °C 17,7 km/h (3 Bft)
19.06.2023 14:23 23,1 °C 31,1 °C 57 % 38 % 1012,0 hPa 0,0 l/m² 3,5 km/h (1 Bft) S 191 ° 1 min 865 W/m² 15,1 °C 31,1 °C 9,7 km/h (2 Bft)
19.06.2023 14:24 23,0 °C 31,2 °C 57 % 39 % 1012,0 hPa 0,0 l/m² 11,3 km/h (2 Bft) S 188 ° 1 min 886 W/m² 15,6 °C 31,0 °C 16,1 km/h (3 Bft)
19.06.2023 14:26 23,0 °C 31,3 °C 57 % 38 % 1011,9 hPa 0,0 l/m² 9,8 km/h (2 Bft) SO 124 ° 2 min 863 W/m² 15,3 °C 31,1 °C 16,1 km/h (3 Bft)
19.06.2023 14:28 23,0 °C 31,2 °C 57 % 38 % 1011,9 hPa 0,0 l/m² 4,9 km/h (1 Bft) S-SW 198 ° 2 min 867 W/m² 15,2 °C 31,2 °C 8,0 km/h (2 Bft)
19.06.2023 14:30 23,0 °C 31,2 °C 57 % 37 % 1011,9 hPa 0,0 l/m² 5,5 km/h (2 Bft) SO 131 ° 2 min 831 W/m² 14,8 °C 31,2 °C 9,7 km/h (2 Bft)
19.06.2023 14:31 23,1 °C 31,2 °C 57 % 38 % 1012,0 hPa 0,0 l/m² 10,3 km/h (2 Bft) S-SO 166 ° 1 min 882 W/m² 15,2 °C 31,0 °C 17,7 km/h (3 Bft)
19.06.2023 14:32 23,1 °C 31,2 °C 57 % 37 % 1012,0 hPa 0,0 l/m² 8,9 km/h (2 Bft) SO 137 ° 1 min 886 W/m² 14,8 °C 31,1 °C 12,9 km/h (3 Bft)
19.06.2023 14:33 23,0 °C 31,3 °C 57 % 38 % 1011,9 hPa 0,0 l/m² 7,7 km/h (2 Bft) SO 146 ° 1 min 886 W/m² 15,3 °C 31,2 °C 11,3 km/h (2 Bft)
19.06.2023 14:34 23,1 °C 31,3 °C 57 % 37 % 1011,9 hPa 0,0 l/m² 11,2 km/h (2 Bft) S-SW 193 ° 1 min 886 W/m² 14,8 °C 31,1 °C 19,3 km/h (3 Bft)
19.06.2023 14:36 23,0 °C 31,7 °C 57 % 36 % 1012,0 hPa 0,0 l/m² 13,0 km/h (3 Bft) S 188 ° 2 min 879 W/m² 14,8 °C 31,5 °C 20,9 km/h (4 Bft)
19.06.2023 14:38 23,0 °C 31,3 °C 57 % 37 % 1011,9 hPa 0,0 l/m² 7,3 km/h (2 Bft) S 189 ° 2 min 721 W/m² 14,8 °C 31,3 °C 14,5 km/h (3 Bft)
19.06.2023 14:40 23,0 °C 31,4 °C 57 % 37 % 1011,8 hPa 0,0 l/m² 11,2 km/h (2 Bft) S 184 ° 2 min 856 W/m² 14,9 °C 31,2 °C 16,1 km/h (3 Bft)
19.06.2023 14:41 23,1 °C 31,6 °C 58 % 37 % 1011,9 hPa 0,0 l/m² 9,5 km/h (2 Bft) S 177 ° 1 min 854 W/m² 15,1 °C 31,5 °C 12,9 km/h (3 Bft)
19.06.2023 14:42 23,1 °C 31,5 °C 58 % 36 % 1011,9 hPa 0,0 l/m² 9,4 km/h (2 Bft) S-SO 160 ° 1 min 851 W/m² 14,6 °C 31,4 °C 17,7 km/h (3 Bft)
19.06.2023 14:43 23,1 °C 31,6 °C 58 % 37 % 1011,8 hPa 0,0 l/m² 14,2 km/h (3 Bft) SO 146 ° 1 min 807 W/m² 15,1 °C 31,3 °C 16,1 km/h (3 Bft)
19.06.2023 14:44 23,1 °C 31,8 °C 58 % 36 % 1011,8 hPa 0,0 l/m² 12,5 km/h (2 Bft) S-SO 155 ° 1 min 775 W/m² 14,9 °C 31,6 °C 17,7 km/h (3 Bft)
19.06.2023 14:46 23,1 °C 31,8 °C 58 % 36 % 1011,7 hPa 0,0 l/m² 11,4 km/h (2 Bft) S-SO 161 ° 2 min 775 W/m² 14,9 °C 31,6 °C 17,7 km/h (3 Bft)
19.06.2023 14:47 23,1 °C 31,7 °C 58 % 37 % 1011,9 hPa 0,0 l/m² 10,0 km/h (2 Bft) SW 228 ° 1 min 487 W/m² 15,2 °C 31,6 °C 12,9 km/h (3 Bft)
19.06.2023 14:48 23,1 °C 31,6 °C 58 % 37 % 1011,9 hPa 0,0 l/m² 12,5 km/h (2 Bft) SW 235 ° 1 min 432 W/m² 15,1 °C 31,4 °C 20,9 km/h (4 Bft)
19.06.2023 14:50 23,1 °C 31,1 °C 58 % 37 % 1011,8 hPa 0,0 l/m² 14,2 km/h (3 Bft) SW 219 ° 2 min 385 W/m² 14,7 °C 30,7 °C 19,3 km/h (3 Bft)
19.06.2023 14:51 23,1 °C 30,9 °C 58 % 38 % 1011,8 hPa 0,0 l/m² 11,2 km/h (2 Bft) SW 231 ° 1 min 849 W/m² 14,9 °C 30,6 °C 14,5 km/h (3 Bft)
19.06.2023 14:52 23,1 °C 30,9 °C 58 % 38 % 1011,8 hPa 0,0 l/m² 9,0 km/h (2 Bft) W-SW 251 ° 1 min 896 W/m² 14,9 °C 30,7 °C 12,9 km/h (3 Bft)
19.06.2023 14:53 23,1 °C 30,9 °C 58 % 38 % 1011,8 hPa 0,0 l/m² 8,9 km/h (2 Bft) W-SW 244 ° 1 min 861 W/m² 14,9 °C 30,7 °C 12,9 km/h (3 Bft)
19.06.2023 14:54 23,1 °C 30,8 °C 58 % 38 % 1011,8 hPa 0,0 l/m² 9,5 km/h (2 Bft) W-SW 247 ° 1 min 844 W/m² 14,8 °C 30,6 °C 12,9 km/h (3 Bft)
19.06.2023 14:56 23,1 °C 31,0 °C 58 % 42 % 1011,8 hPa 0,0 l/m² 5,0 km/h (1 Bft) S 191 ° 2 min 729 W/m² 16,6 °C 31,0 °C 12,9 km/h (3 Bft)
19.06.2023 14:58 23,1 °C 31,5 °C 58 % 38 % 1011,7 hPa 0,0 l/m² 12,3 km/h (2 Bft) S-SW 209 ° 2 min 731 W/m² 15,4 °C 31,3 °C 16,1 km/h (3 Bft)
19.06.2023 15:00 23,1 °C 31,7 °C 58 % 38 % 1011,7 hPa 0,0 l/m² 10,9 km/h (2 Bft) SW 234 ° 2 min 703 W/m² 15,6 °C 31,5 °C 17,7 km/h (3 Bft)
19.06.2023 15:01 23,1 °C 31,8 °C 58 % 39 % 1011,7 hPa 0,0 l/m² 11,8 km/h (2 Bft) SW 214 ° 1 min 689 W/m² 16,1 °C 31,6 °C 16,1 km/h (3 Bft)
19.06.2023 15:02 23,1 °C 31,9 °C 58 % 39 % 1011,7 hPa 0,0 l/m² 16,2 km/h (3 Bft) S-SW 207 ° 1 min 747 W/m² 16,2 °C 31,6 °C 19,3 km/h (3 Bft)
19.06.2023 15:03 23,1 °C 32,1 °C 58 % 38 % 1011,8 hPa 0,0 l/m² 15,3 km/h (3 Bft) SW 219 ° 1 min 763 W/m² 16,0 °C 31,9 °C 22,5 km/h (4 Bft)
19.06.2023 15:04 23,1 °C 32,0 °C 58 % 37 % 1011,8 hPa 0,0 l/m² 15,2 km/h (3 Bft) SW 230 ° 1 min 784 W/m² 15,5 °C 31,8 °C 19,3 km/h (3 Bft)
19.06.2023 15:06 23,1 °C 31,8 °C 58 % 38 % 1011,8 hPa 0,0 l/m² 13,8 km/h (3 Bft) SW 233 ° 2 min 708 W/m² 15,7 °C 31,6 °C 17,7 km/h (3 Bft)
19.06.2023 15:08 23,1 °C 31,6 °C 58 % 38 % 1011,8 hPa 0,0 l/m² 12,4 km/h (2 Bft) SW 219 ° 2 min 628 W/m² 15,5 °C 31,4 °C 22,5 km/h (4 Bft)
19.06.2023 15:10 23,1 °C 31,5 °C 58 % 38 % 1011,9 hPa 0,0 l/m² 12,5 km/h (2 Bft) S-SO 167 ° 2 min 647 W/m² 15,4 °C 31,3 °C 14,5 km/h (3 Bft)
19.06.2023 15:11 23,1 °C 31,4 °C 58 % 38 % 1011,6 hPa 0,0 l/m² 8,7 km/h (2 Bft) S-SO 165 ° 1 min 633 W/m² 15,3 °C 31,3 °C 12,9 km/h (3 Bft)
19.06.2023 15:12 23,1 °C 31,3 °C 58 % 39 % 1011,6 hPa 0,0 l/m² 8,0 km/h (2 Bft) S-SW 204 ° 1 min 633 W/m² 15,7 °C 31,2 °C 16,1 km/h (3 Bft)
19.06.2023 15:13 23,1 °C 31,3 °C 58 % 38 % 1011,8 hPa 0,0 l/m² 15,4 km/h (3 Bft) SW 225 ° 1 min 432 W/m² 15,3 °C 30,9 °C 20,9 km/h (4 Bft)
19.06.2023 15:14 23,1 °C 31,3 °C 58 % 39 % 1011,8 hPa 0,0 l/m² 12,3 km/h (2 Bft) SW 223 ° 1 min 487 W/m² 15,7 °C 31,0 °C 17,7 km/h (3 Bft)
19.06.2023 15:16 23,1 °C 31,0 °C 58 % 39 % 1011,8 hPa 0,0 l/m² 15,7 km/h (3 Bft) S-SW 194 ° 2 min 415 W/m² 15,4 °C 30,6 °C 20,9 km/h (4 Bft)
19.06.2023 15:18 23,1 °C 30,9 °C 58 % 40 % 1011,9 hPa 0,0 l/m² 13,0 km/h (3 Bft) S 184 ° 2 min 522 W/m² 15,7 °C 30,5 °C 20,9 km/h (4 Bft)
19.06.2023 15:20 23,1 °C 30,7 °C 58 % 39 % 1011,9 hPa 0,0 l/m² 14,9 km/h (3 Bft) S-SW 203 ° 2 min 443 W/m² 15,1 °C 30,2 °C 24,1 km/h (4 Bft)
19.06.2023 15:21 23,1 °C 30,7 °C 58 % 40 % 1011,9 hPa 0,0 l/m² 9,3 km/h (2 Bft) W-SW 237 ° 1 min 378 W/m² 15,5 °C 30,5 °C 12,9 km/h (3 Bft)
19.06.2023 15:22 23,1 °C 30,7 °C 58 % 40 % 1011,9 hPa 0,0 l/m² 12,0 km/h (2 Bft) SW 227 ° 1 min 371 W/m² 15,5 °C 30,4 °C 16,1 km/h (3 Bft)
19.06.2023 15:24 23,1 °C 30,6 °C 58 % 41 % 1011,9 hPa 0,0 l/m² 15,3 km/h (3 Bft) SW 223 ° 2 min 436 W/m² 15,8 °C 30,1 °C 22,5 km/h (4 Bft)
19.06.2023 15:25 23,1 °C 30,5 °C 58 % 41 % 1011,9 hPa 0,0 l/m² 16,2 km/h (3 Bft) SW 215 ° 1 min 429 W/m² 15,7 °C 29,9 °C 22,5 km/h (4 Bft)
19.06.2023 15:27 23,1 °C 30,4 °C 58 % 41 % 1011,9 hPa 0,0 l/m² 15,9 km/h (3 Bft) SW 232 ° 2 min 399 W/m² 15,6 °C 29,8 °C 20,9 km/h (4 Bft)
19.06.2023 15:29 23,1 °C 30,2 °C 58 % 42 % 1011,9 hPa 0,0 l/m² 16,2 km/h (3 Bft) W-SW 254 ° 2 min 367 W/m² 15,8 °C 29,5 °C 25,7 km/h (4 Bft)
19.06.2023 15:30 23,1 °C 30,1 °C 58 % 41 % 1011,8 hPa 0,0 l/m² 16,4 km/h (3 Bft) SW 227 ° 1 min 353 W/m² 15,4 °C 29,4 °C 20,9 km/h (4 Bft)
19.06.2023 15:32 23,1 °C 29,8 °C 58 % 41 % 1011,9 hPa 0,0 l/m² 15,0 km/h (3 Bft) SW 226 ° 2 min 355 W/m² 15,1 °C 29,1 °C 22,5 km/h (4 Bft)
19.06.2023 15:33 23,1 °C 29,8 °C 58 % 42 % 1011,9 hPa 0,0 l/m² 14,5 km/h (3 Bft) W-SW 249 ° 1 min 364 W/m² 15,5 °C 29,2 °C 19,3 km/h (3 Bft)
19.06.2023 15:34 23,1 °C 29,7 °C 58 % 42 % 1011,8 hPa 0,0 l/m² 11,8 km/h (2 Bft) SW 229 ° 1 min 357 W/m² 15,4 °C 29,2 °C 14,5 km/h (3 Bft)
19.06.2023 15:36 23,1 °C 29,6 °C 58 % 42 % 1012,0 hPa 0,0 l/m² 11,9 km/h (2 Bft) W 259 ° 2 min 355 W/m² 15,3 °C 29,1 °C 16,1 km/h (3 Bft)
19.06.2023 15:38 23,1 °C 29,7 °C 58 % 43 % 1011,9 hPa 0,0 l/m² 12,8 km/h (3 Bft) SW 222 ° 2 min 345 W/m² 15,8 °C 29,1 °C 17,7 km/h (3 Bft)
19.06.2023 15:40 23,1 °C 29,7 °C 58 % 42 % 1011,9 hPa 0,0 l/m² 10,9 km/h (2 Bft) SW 214 ° 2 min 341 W/m² 15,4 °C 29,3 °C 14,5 km/h (3 Bft)
19.06.2023 15:41 23,1 °C 29,6 °C 58 % 43 % 1011,9 hPa 0,0 l/m² 8,3 km/h (2 Bft) SW 229 ° 1 min 338 W/m² 15,7 °C 29,4 °C 9,7 km/h (2 Bft)
19.06.2023 15:42 23,1 °C 29,6 °C 58 % 43 % 1011,9 hPa 0,0 l/m² 8,9 km/h (2 Bft) SW 227 ° 1 min 343 W/m² 15,7 °C 29,3 °C 11,3 km/h (2 Bft)
19.06.2023 15:43 23,1 °C 29,7 °C 58 % 43 % 1011,9 hPa 0,0 l/m² 8,0 km/h (2 Bft) SW 229 ° 1 min 352 W/m² 15,8 °C 29,5 °C 12,9 km/h (3 Bft)
19.06.2023 15:44 23,1 °C 29,7 °C 58 % 44 % 1011,9 hPa 0,0 l/m² 10,6 km/h (2 Bft) SW 221 ° 1 min 355 W/m² 16,1 °C 29,3 °C 14,5 km/h (3 Bft)
19.06.2023 15:46 23,1 °C 29,7 °C 58 % 44 % 1011,9 hPa 0,0 l/m² 11,1 km/h (2 Bft) SW 225 ° 2 min 388 W/m² 16,1 °C 29,3 °C 17,7 km/h (3 Bft)
19.06.2023 15:48 23,0 °C 29,8 °C 58 % 45 % 1011,8 hPa 0,0 l/m² 12,7 km/h (3 Bft) SW 226 ° 2 min 418 W/m² 16,6 °C 29,3 °C 20,9 km/h (4 Bft)
19.06.2023 15:50 23,1 °C 29,9 °C 58 % 44 % 1011,8 hPa 0,0 l/m² 13,0 km/h (3 Bft) SW 227 ° 2 min 459 W/m² 16,3 °C 29,4 °C 20,9 km/h (4 Bft)
19.06.2023 15:51 23,1 °C 30,0 °C 58 % 44 % 1011,9 hPa 0,0 l/m² 12,5 km/h (2 Bft) W-SW 245 ° 1 min 469 W/m² 16,4 °C 29,5 °C 19,3 km/h (3 Bft)
19.06.2023 15:52 23,1 °C 30,0 °C 58 % 44 % 1011,8 hPa 0,0 l/m² 17,7 km/h (3 Bft) SW 231 ° 1 min 577 W/m² 16,4 °C 29,2 °C 20,9 km/h (4 Bft)
19.06.2023 15:53 23,1 °C 29,9 °C 58 % 44 % 1011,8 hPa 0,0 l/m² 14,9 km/h (3 Bft) SW 223 ° 1 min 596 W/m² 16,3 °C 29,2 °C 17,7 km/h (3 Bft)
19.06.2023 15:54 23,1 °C 30,0 °C 58 % 44 % 1011,8 hPa 0,0 l/m² 10,9 km/h (2 Bft) SW 221 ° 1 min 575 W/m² 16,4 °C 29,6 °C 16,1 km/h (3 Bft)
19.06.2023 15:55 23,0 °C 30,2 °C 58 % 44 % 1011,8 hPa 0,0 l/m² 10,7 km/h (2 Bft) S-SW 212 ° 1 min 606 W/m² 16,6 °C 29,9 °C 12,9 km/h (3 Bft)
19.06.2023 15:57 23,1 °C 30,5 °C 58 % 44 % 1011,8 hPa 0,0 l/m² 11,6 km/h (2 Bft) W 267 ° 2 min 540 W/m² 16,8 °C 30,1 °C 16,1 km/h (3 Bft)
19.06.2023 15:59 23,1 °C 30,3 °C 58 % 44 % 1011,8 hPa 0,0 l/m² 6,6 km/h (2 Bft) W-SW 246 ° 2 min 455 W/m² 16,7 °C 30,3 °C 12,9 km/h (3 Bft)
19.06.2023 16:00 23,1 °C 30,2 °C 58 % 44 % 1011,5 hPa 0,0 l/m² 4,3 km/h (1 Bft) W 264 ° 1 min 531 W/m² 16,6 °C 30,2 °C 8,0 km/h (2 Bft)
19.06.2023 16:01 23,1 °C 30,1 °C 58 % 46 % 1011,6 hPa 0,0 l/m² 4,8 km/h (1 Bft) SW 217 ° 1 min 487 W/m² 17,2 °C 30,1 °C 9,7 km/h (2 Bft)
19.06.2023 16:02 23,1 °C 30,2 °C 58 % 44 % 1011,6 hPa 0,0 l/m² 9,0 km/h (2 Bft) SW 221 ° 1 min 510 W/m² 16,6 °C 30,0 °C 12,9 km/h (3 Bft)
19.06.2023 16:04 23,1 °C 30,6 °C 58 % 44 % 1011,6 hPa 0,0 l/m² 7,5 km/h (2 Bft) S-SW 209 ° 2 min 570 W/m² 16,9 °C 30,5 °C 12,9 km/h (3 Bft)
19.06.2023 16:05 23,1 °C 30,7 °C 58 % 45 % 1011,6 hPa 0,0 l/m² 7,8 km/h (2 Bft) S-SW 207 ° 1 min 629 W/m² 17,4 °C 30,6 °C 9,7 km/h (2 Bft)
19.06.2023 16:07 23,1 °C 30,8 °C 58 % 44 % 1011,5 hPa 0,0 l/m² 7,1 km/h (2 Bft) SW 219 ° 2 min 615 W/m² 17,1 °C 30,8 °C 8,0 km/h (2 Bft)
19.06.2023 16:09 23,1 °C 30,8 °C 58 % 45 % 1011,6 hPa 0,0 l/m² 5,9 km/h (2 Bft) W-SW 239 ° 2 min 617 W/m² 17,5 °C 30,8 °C 12,9 km/h (3 Bft)
19.06.2023 16:10 23,0 °C 30,9 °C 58 % 45 % 1011,6 hPa 0,0 l/m² 12,6 km/h (3 Bft) SW 223 ° 1 min 585 W/m² 17,6 °C 30,6 °C 17,7 km/h (3 Bft)
19.06.2023 16:11 23,1 °C 31,0 °C 58 % 44 % 1011,6 hPa 0,0 l/m² 15,0 km/h (3 Bft) S-SW 209 ° 1 min 584 W/m² 17,3 °C 30,6 °C 17,7 km/h (3 Bft)
19.06.2023 16:12 23,1 °C 31,1 °C 58 % 44 % 1011,6 hPa 0,0 l/m² 16,0 km/h (3 Bft) S-SW 205 ° 1 min 612 W/m² 17,4 °C 30,7 °C 19,3 km/h (3 Bft)
19.06.2023 16:14 23,1 °C 31,2 °C 58 % 44 % 1011,7 hPa 0,0 l/m² 13,6 km/h (3 Bft) S-SW 205 ° 2 min 633 W/m² 17,5 °C 30,9 °C 17,7 km/h (3 Bft)
19.06.2023 16:15 23,1 °C 31,2 °C 58 % 44 % 1011,7 hPa 0,0 l/m² 15,1 km/h (3 Bft) SW 219 ° 1 min 650 W/m² 17,5 °C 30,8 °C 19,3 km/h (3 Bft)
19.06.2023 16:17 23,1 °C 31,3 °C 58 % 44 % 1011,7 hPa 0,0 l/m² 10,9 km/h (2 Bft) SW 216 ° 2 min 673 W/m² 17,6 °C 31,1 °C 17,7 km/h (3 Bft)
19.06.2023 16:19 23,1 °C 31,4 °C 58 % 43 % 1011,6 hPa 0,0 l/m² 12,2 km/h (2 Bft) SW 223 ° 2 min 694 W/m² 17,3 °C 31,2 °C 17,7 km/h (3 Bft)
19.06.2023 16:20 23,1 °C 31,3 °C 58 % 43 % 1011,6 hPa 0,0 l/m² 12,7 km/h (3 Bft) SW 220 ° 1 min 705 W/m² 17,2 °C 31,0 °C 19,3 km/h (3 Bft)
19.06.2023 16:22 23,0 °C 31,4 °C 58 % 44 % 1011,7 hPa 0,0 l/m² 12,7 km/h (3 Bft) W 269 ° 2 min 788 W/m² 17,6 °C 31,1 °C 24,1 km/h (4 Bft)
19.06.2023 16:24 23,1 °C 31,3 °C 58 % 45 % 1011,7 hPa 0,0 l/m² 7,8 km/h (2 Bft) SW 225 ° 2 min 789 W/m² 17,9 °C 31,2 °C 16,1 km/h (3 Bft)
19.06.2023 16:26 23,1 °C 31,3 °C 58 % 44 % 1011,6 hPa 0,0 l/m² 6,9 km/h (2 Bft) W 273 ° 2 min 768 W/m² 17,6 °C 31,3 °C 16,1 km/h (3 Bft)
19.06.2023 16:28 23,0 °C 31,4 °C 58 % 45 % 1011,7 hPa 0,0 l/m² 11,1 km/h (2 Bft) S 184 ° 2 min 742 W/m² 18,0 °C 31,2 °C 16,1 km/h (3 Bft)
19.06.2023 16:30 23,1 °C 31,5 °C 58 % 44 % 1011,8 hPa 0,0 l/m² 11,2 km/h (2 Bft) S-SW 194 ° 2 min 701 W/m² 17,7 °C 31,3 °C 16,1 km/h (3 Bft)
19.06.2023 16:31 23,1 °C 31,5 °C 58 % 44 % 1011,8 hPa 0,0 l/m² 10,9 km/h (2 Bft) SW 217 ° 1 min 712 W/m² 17,7 °C 31,3 °C 14,5 km/h (3 Bft)
19.06.2023 16:32 23,1 °C 31,6 °C 58 % 44 % 1011,8 hPa 0,0 l/m² 10,9 km/h (2 Bft) S-SW 212 ° 1 min 707 W/m² 17,8 °C 31,4 °C 12,9 km/h (3 Bft)
19.06.2023 16:33 23,1 °C 31,6 °C 58 % 44 % 1011,8 hPa 0,0 l/m² 14,5 km/h (3 Bft) W-SW 244 ° 1 min 712 W/m² 17,8 °C 31,3 °C 17,7 km/h (3 Bft)
19.06.2023 16:35 23,1 °C 31,2 °C 58 % 43 % 1011,8 hPa 0,0 l/m² 13,4 km/h (3 Bft) W-SW 238 ° 2 min 731 W/m² 17,1 °C 30,9 °C 19,3 km/h (3 Bft)
19.06.2023 16:37 23,1 °C 30,8 °C 58 % 45 % 1011,8 hPa 0,0 l/m² 3,2 km/h (1 Bft) W 263 ° 2 min 724 W/m² 17,5 °C 30,8 °C 12,9 km/h (3 Bft)
19.06.2023 16:39 23,1 °C 30,7 °C 58 % 47 % 1011,7 hPa 0,0 l/m² 5,3 km/h (1 Bft) W 271 ° 2 min 701 W/m² 18,1 °C 30,7 °C 12,9 km/h (3 Bft)
19.06.2023 16:40 23,1 °C 30,8 °C 58 % 47 % 1011,6 hPa 0,0 l/m² 10,8 km/h (2 Bft) W-SW 242 ° 1 min 719 W/m² 18,2 °C 30,5 °C 16,1 km/h (3 Bft)
19.06.2023 16:42 23,1 °C 31,2 °C 58 % 45 % 1011,6 hPa 0,0 l/m² 10,2 km/h (2 Bft) S-SO 157 ° 2 min 707 W/m² 17,8 °C 31,0 °C 17,7 km/h (3 Bft)
19.06.2023 16:43 23,1 °C 31,3 °C 58 % 44 % 1011,6 hPa 0,0 l/m² 7,9 km/h (2 Bft) S 175 ° 1 min 705 W/m² 17,6 °C 31,2 °C 12,9 km/h (3 Bft)
19.06.2023 16:44 23,1 °C 31,4 °C 58 % 45 % 1011,6 hPa 0,0 l/m² 10,6 km/h (2 Bft) SW 220 ° 1 min 705 W/m² 18,0 °C 31,2 °C 14,5 km/h (3 Bft)
19.06.2023 16:46 23,1 °C 31,2 °C 58 % 44 % 1011,6 hPa 0,0 l/m² 7,6 km/h (2 Bft) W-SW 239 ° 2 min 599 W/m² 17,5 °C 31,1 °C 14,5 km/h (3 Bft)
19.06.2023 16:48 23,1 °C 30,8 °C 58 % 44 % 1011,6 hPa 0,0 l/m² 1,6 km/h (1 Bft) S-SW 211 ° 2 min 295 W/m² 17,1 °C 30,8 °C 6,4 km/h (2 Bft)
19.06.2023 16:50 23,1 °C 30,4 °C 58 % 47 % 1011,6 hPa 0,0 l/m² 3,2 km/h (1 Bft) S 186 ° 2 min 329 W/m² 17,8 °C 30,4 °C 9,7 km/h (2 Bft)
19.06.2023 16:51 23,1 °C 30,4 °C 58 % 46 % 1011,7 hPa 0,0 l/m² 6,6 km/h (2 Bft) W-SW 239 ° 1 min 278 W/m² 17,5 °C 30,4 °C 11,3 km/h (2 Bft)
19.06.2023 16:52 23,1 °C 30,4 °C 58 % 46 % 1011,7 hPa 0,0 l/m² 7,8 km/h (2 Bft) W-SW 239 ° 1 min 287 W/m² 17,5 °C 30,3 °C 11,3 km/h (2 Bft)
19.06.2023 16:53 23,1 °C 30,3 °C 58 % 47 % 1011,6 hPa 0,0 l/m² 7,9 km/h (2 Bft) W-SW 248 ° 1 min 250 W/m² 17,7 °C 30,2 °C 12,9 km/h (3 Bft)
19.06.2023 16:55 23,1 °C 30,0 °C 58 % 47 % 1011,7 hPa 0,0 l/m² 6,3 km/h (2 Bft) S-SW 203 ° 2 min 183 W/m² 17,4 °C 30,0 °C 11,3 km/h (2 Bft)
19.06.2023 16:57 23,1 °C 29,7 °C 58 % 47 % 1011,7 hPa 0,0 l/m² 7,4 km/h (2 Bft) SW 228 ° 2 min 169 W/m² 17,2 °C 29,6 °C 11,3 km/h (2 Bft)
19.06.2023 16:59 23,1 °C 29,5 °C 58 % 49 % 1011,6 hPa 0,0 l/m² 8,5 km/h (2 Bft) S 184 ° 2 min 155 W/m² 17,6 °C 29,3 °C 14,5 km/h (3 Bft)
19.06.2023 17:00 23,1 °C 29,4 °C 58 % 49 % 1011,6 hPa 0,0 l/m² 11,7 km/h (2 Bft) S 182 ° 1 min 153 W/m² 17,5 °C 28,9 °C 14,5 km/h (3 Bft)
19.06.2023 17:01 23,1 °C 29,4 °C 58 % 49 % 1011,6 hPa 0,0 l/m² 9,7 km/h (2 Bft) S 174 ° 1 min 153 W/m² 17,5 °C 29,1 °C 12,9 km/h (3 Bft)
19.06.2023 17:02 23,1 °C 29,3 °C 58 % 49 % 1011,6 hPa 0,0 l/m² 11,9 km/h (2 Bft) SW 215 ° 1 min 160 W/m² 17,5 °C 28,7 °C 16,1 km/h (3 Bft)
19.06.2023 17:04 23,1 °C 29,2 °C 58 % 49 % 1011,8 hPa 0,0 l/m² 10,6 km/h (2 Bft) S-SW 197 ° 2 min 197 W/m² 17,4 °C 28,7 °C 12,9 km/h (3 Bft)
19.06.2023 17:06 23,1 °C 29,3 °C 58 % 49 % 1011,8 hPa 0,0 l/m² 8,5 km/h (2 Bft) SW 216 ° 2 min 174 W/m² 17,5 °C 29,1 °C 11,3 km/h (2 Bft)
19.06.2023 17:08 23,1 °C 29,3 °C 58 % 50 % 1011,8 hPa 0,0 l/m² 8,9 km/h (2 Bft) SW 221 ° 2 min 165 W/m² 17,8 °C 29,0 °C 12,9 km/h (3 Bft)
19.06.2023 17:10 23,1 °C 29,2 °C 59 % 49 % 1011,9 hPa 0,0 l/m² 7,7 km/h (2 Bft) W-SW 244 ° 2 min 190 W/m² 17,4 °C 29,0 °C 11,3 km/h (2 Bft)
19.06.2023 17:11 23,1 °C 29,3 °C 59 % 49 % 1011,7 hPa 0,0 l/m² 5,2 km/h (1 Bft) SW 214 ° 1 min 190 W/m² 17,5 °C 29,3 °C 6,4 km/h (2 Bft)
19.06.2023 17:12 23,1 °C 29,3 °C 59 % 49 % 1011,7 hPa 0,0 l/m² 5,3 km/h (1 Bft) SW 219 ° 1 min 262 W/m² 17,5 °C 29,3 °C 8,0 km/h (2 Bft)
19.06.2023 17:13 23,0 °C 29,4 °C 59 % 49 % 1011,7 hPa 0,0 l/m² 5,2 km/h (1 Bft) SW 235 ° 1 min 258 W/m² 17,5 °C 29,4 °C 8,0 km/h (2 Bft)
19.06.2023 17:15 23,1 °C 29,6 °C 59 % 49 % 1011,7 hPa 0,0 l/m² 6,0 km/h (2 Bft) W 259 ° 2 min 241 W/m² 17,7 °C 29,6 °C 9,7 km/h (2 Bft)
19.06.2023 17:17 23,1 °C 29,5 °C 59 % 49 % 1011,8 hPa 0,0 l/m² 5,6 km/h (2 Bft) S-SW 211 ° 2 min 243 W/m² 17,6 °C 29,5 °C 12,9 km/h (3 Bft)
19.06.2023 17:19 23,1 °C 29,4 °C 59 % 49 % 1011,8 hPa 0,0 l/m² 1,4 km/h (1 Bft) S-SW 193 ° 2 min 260 W/m² 17,5 °C 29,4 °C 4,8 km/h (1 Bft)
19.06.2023 17:20 23,1 °C 29,4 °C 59 % 49 % 1011,8 hPa 0,0 l/m² 6,1 km/h (2 Bft) SO 130 ° 1 min 253 W/m² 17,5 °C 29,4 °C 9,7 km/h (2 Bft)
19.06.2023 17:21 23,1 °C 29,5 °C 59 % 49 % 1011,8 hPa 0,0 l/m² 6,6 km/h (2 Bft) S-SO 152 ° 1 min 622 W/m² 17,6 °C 29,5 °C 9,7 km/h (2 Bft)
19.06.2023 17:22 23,1 °C 29,8 °C 59 % 49 % 1011,6 hPa 0,0 l/m² 5,4 km/h (2 Bft) SO 143 ° 1 min 622 W/m² 17,9 °C 29,8 °C 8,0 km/h (2 Bft)
19.06.2023 17:24 23,1 °C 30,2 °C 59 % 48 % 1011,7 hPa 0,0 l/m² 9,0 km/h (2 Bft) S-SO 162 ° 2 min 654 W/m² 17,9 °C 30,0 °C 12,9 km/h (3 Bft)
19.06.2023 17:26 23,1 °C 30,6 °C 59 % 47 % 1011,6 hPa 0,0 l/m² 9,7 km/h (2 Bft) S-SO 151 ° 2 min 622 W/m² 18,0 °C 30,4 °C 16,1 km/h (3 Bft)
19.06.2023 17:28 23,1 °C 30,5 °C 59 % 47 % 1011,7 hPa 0,0 l/m² 6,8 km/h (2 Bft) O-SO 118 ° 2 min 573 W/m² 17,9 °C 30,5 °C 11,3 km/h (2 Bft)
19.06.2023 17:30 23,1 °C 30,4 °C 59 % 47 % 1011,7 hPa 0,0 l/m² 8,1 km/h (2 Bft) SO 133 ° 2 min 179 W/m² 17,8 °C 30,3 °C 12,9 km/h (3 Bft)
19.06.2023 17:31 23,1 °C 30,2 °C 59 % 47 % 1011,6 hPa 0,0 l/m² 9,6 km/h (2 Bft) SO 131 ° 1 min 181 W/m² 17,6 °C 29,9 °C 12,9 km/h (3 Bft)
19.06.2023 17:32 23,1 °C 30,1 °C 59 % 47 % 1011,6 hPa 0,0 l/m² 10,5 km/h (2 Bft) S-SO 147 ° 1 min 185 W/m² 17,5 °C 29,8 °C 14,5 km/h (3 Bft)
19.06.2023 17:33 23,1 °C 29,9 °C 59 % 48 % 1011,6 hPa 0,0 l/m² 10,2 km/h (2 Bft) S-SO 167 ° 1 min 174 W/m² 17,7 °C 29,6 °C 12,9 km/h (3 Bft)
19.06.2023 17:35 23,1 °C 29,7 °C 59 % 48 % 1011,6 hPa 0,0 l/m² 10,0 km/h (2 Bft) S 183 ° 2 min 172 W/m² 17,5 °C 29,4 °C 14,5 km/h (3 Bft)
19.06.2023 17:37 23,1 °C 29,5 °C 59 % 49 % 1011,7 hPa 0,0 l/m² 6,3 km/h (2 Bft) S 183 ° 2 min 183 W/m² 17,6 °C 29,5 °C 9,7 km/h (2 Bft)
19.06.2023 17:39 23,1 °C 29,7 °C 59 % 49 % 1011,5 hPa 0,0 l/m² 7,7 km/h (2 Bft) S 170 ° 2 min 503 W/m² 17,8 °C 29,6 °C 11,3 km/h (2 Bft)
19.06.2023 17:40 23,1 °C 30,0 °C 59 % 49 % 1011,6 hPa 0,0 l/m² 7,6 km/h (2 Bft) S-SO 164 ° 1 min 503 W/m² 18,1 °C 29,9 °C 9,7 km/h (2 Bft)
19.06.2023 17:41 23,1 °C 30,1 °C 59 % 49 % 1011,6 hPa 0,0 l/m² 7,0 km/h (2 Bft) SO 125 ° 1 min 557 W/m² 18,2 °C 30,0 °C 12,9 km/h (3 Bft)
19.06.2023 17:42 23,1 °C 30,2 °C 59 % 47 % 1011,5 hPa 0,0 l/m² 11,1 km/h (2 Bft) SO 134 ° 1 min 557 W/m² 17,6 °C 29,8 °C 14,5 km/h (3 Bft)
19.06.2023 17:43 23,1 °C 30,2 °C 59 % 47 % 1011,4 hPa 0,0 l/m² 9,0 km/h (2 Bft) SO 146 ° 1 min 227 W/m² 17,6 °C 30,0 °C 14,5 km/h (3 Bft)
19.06.2023 17:44 23,1 °C 30,2 °C 59 % 47 % 1011,4 hPa 0,0 l/m² 8,9 km/h (2 Bft) SO 140 ° 1 min 227 W/m² 17,6 °C 30,0 °C 12,9 km/h (3 Bft)
19.06.2023 17:45 23,1 °C 30,1 °C 59 % 48 % 1011,3 hPa 0,0 l/m² 8,6 km/h (2 Bft) SO 143 ° 1 min 397 W/m² 17,9 °C 29,9 °C 11,3 km/h (2 Bft)
19.06.2023 17:46 23,1 °C 30,1 °C 59 % 48 % 1011,3 hPa 0,0 l/m² 7,1 km/h (2 Bft) O-SO 118 ° 1 min 162 W/m² 17,9 °C 30,0 °C 8,0 km/h (2 Bft)
19.06.2023 17:47 23,1 °C 29,9 °C 59 % 48 % 1011,4 hPa 0,0 l/m² 7,3 km/h (2 Bft) S-SO 152 ° 1 min 144 W/m² 17,7 °C 29,8 °C 9,7 km/h (2 Bft)
19.06.2023 17:48 23,1 °C 29,8 °C 59 % 48 % 1011,3 hPa 0,0 l/m² 6,7 km/h (2 Bft) SO 134 ° 1 min 128 W/m² 17,6 °C 29,8 °C 9,7 km/h (2 Bft)
19.06.2023 17:49 23,1 °C 29,6 °C 59 % 48 % 1011,3 hPa 0,0 l/m² 4,8 km/h (1 Bft) SO 143 ° 1 min 114 W/m² 17,4 °C 29,6 °C 6,4 km/h (2 Bft)
19.06.2023 17:51 23,1 °C 29,4 °C 59 % 48 % 1011,3 hPa 0,0 l/m² 4,9 km/h (1 Bft) S 184 ° 2 min 93 W/m² 17,2 °C 29,4 °C 8,0 km/h (2 Bft)
19.06.2023 17:53 23,1 °C 29,2 °C 59 % 49 % 1011,3 hPa 0,0 l/m² 7,5 km/h (2 Bft) S-SO 165 ° 2 min 91 W/m² 17,4 °C 29,1 °C 14,5 km/h (3 Bft)
19.06.2023 17:54 23,1 °C 29,1 °C 59 % 50 % 1011,3 hPa 0,0 l/m² 7,3 km/h (2 Bft) S-SO 155 ° 1 min 93 W/m² 17,6 °C 29,0 °C 9,7 km/h (2 Bft)
19.06.2023 17:55 23,1 °C 28,9 °C 59 % 50 % 1011,3 hPa 0,0 l/m² 7,6 km/h (2 Bft) S-SO 153 ° 1 min 97 W/m² 17,4 °C 28,7 °C 11,3 km/h (2 Bft)
19.06.2023 17:56 23,1 °C 28,9 °C 59 % 50 % 1011,3 hPa 0,0 l/m² 7,9 km/h (2 Bft) S-SO 159 ° 1 min 104 W/m² 17,4 °C 28,7 °C 9,7 km/h (2 Bft)
19.06.2023 17:57 23,1 °C 28,8 °C 59 % 50 % 1011,2 hPa 0,0 l/m² 4,8 km/h (1 Bft) S-SO 159 ° 1 min 111 W/m² 17,3 °C 28,8 °C 8,0 km/h (2 Bft)
19.06.2023 17:58 23,1 °C 28,8 °C 59 % 50 % 1011,3 hPa 0,0 l/m² 5,7 km/h (2 Bft) O-SO 117 ° 1 min 118 W/m² 17,3 °C 28,8 °C 8,0 km/h (2 Bft)
19.06.2023 17:59 23,1 °C 28,7 °C 59 % 50 % 1011,2 hPa 0,0 l/m² 4,5 km/h (1 Bft) O-SO 117 ° 1 min 128 W/m² 17,2 °C 28,7 °C 6,4 km/h (2 Bft)
19.06.2023 18:00 23,1 °C 28,7 °C 59 % 51 % 1011,3 hPa 0,0 l/m² 3,7 km/h (1 Bft) S-SO 150 ° 1 min 144 W/m² 17,5 °C 28,7 °C 4,8 km/h (1 Bft)
19.06.2023 18:02 23,1 °C 28,7 °C 59 % 51 % 1011,3 hPa 0,0 l/m² 2,5 km/h (1 Bft) S-SO 148 ° 2 min 213 W/m² 17,5 °C 28,7 °C 4,8 km/h (1 Bft)
19.06.2023 18:03 23,1 °C 28,7 °C 59 % 51 % 1011,3 hPa 0,0 l/m² 1,0 km/h (0 Bft) S-SO 148 ° 1 min 209 W/m² 17,5 °C 28,7 °C 3,2 km/h (1 Bft)
19.06.2023 18:04 23,1 °C 28,8 °C 59 % 52 % 1011,3 hPa 0,0 l/m² 1,8 km/h (1 Bft) S-SO 148 ° 1 min 209 W/m² 17,9 °C 28,8 °C 3,2 km/h (1 Bft)
19.06.2023 18:05 23,1 °C 28,8 °C 59 % 51 % 1011,3 hPa 0,0 l/m² 1,3 km/h (1 Bft) S-SO 148 ° 1 min 218 W/m² 17,6 °C 28,8 °C 3,2 km/h (1 Bft)
19.06.2023 18:06 23,1 °C 28,9 °C 59 % 52 % 1011,3 hPa 0,0 l/m² 0,0 km/h (0 Bft) S-SO 148 ° 1 min 209 W/m² 18,0 °C 28,9 °C 0,0 km/h (0 Bft)
19.06.2023 18:07 23,1 °C 28,9 °C 59 % 51 % 1011,4 hPa 0,0 l/m² 0,0 km/h (0 Bft) S-SO 148 ° 1 min 204 W/m² 17,7 °C 28,9 °C 0,0 km/h (0 Bft)
19.06.2023 18:08 23,1 °C 29,0 °C 59 % 50 % 1011,3 hPa 0,0 l/m² 0,9 km/h (0 Bft) S-SO 148 ° 1 min 204 W/m² 17,5 °C 29,0 °C 3,2 km/h (1 Bft)
19.06.2023 18:09 23,1 °C 29,1 °C 59 % 51 % 1011,4 hPa 0,0 l/m² 0,2 km/h (0 Bft) S-SO 148 ° 1 min 216 W/m² 17,9 °C 29,1 °C 1,6 km/h (1 Bft)
19.06.2023 18:10 23,1 °C 29,2 °C 59 % 51 % 1011,4 hPa 0,0 l/m² 0,0 km/h (0 Bft) S-SO 148 ° 1 min 211 W/m² 18,0 °C 29,2 °C 0,0 km/h (0 Bft)
19.06.2023 18:12 23,1 °C 29,2 °C 59 % 54 % 1011,3 hPa 0,0 l/m² 0,0 km/h (0 Bft) S-SO 148 ° 2 min 197 W/m² 18,9 °C 29,2 °C 0,0 km/h (0 Bft)
19.06.2023 18:13 23,1 °C 29,1 °C 59 % 52 % 1011,4 hPa 0,0 l/m² 0,1 km/h (0 Bft) S-SO 148 ° 1 min 149 W/m² 18,2 °C 29,1 °C 1,6 km/h (1 Bft)
19.06.2023 18:14 23,1 °C 29,2 °C 59 % 52 % 1011,4 hPa 0,0 l/m² 0,1 km/h (0 Bft) S-SO 148 ° 1 min 174 W/m² 18,3 °C 29,2 °C 1,6 km/h (1 Bft)
19.06.2023 18:15 23,1 °C 29,1 °C 59 % 53 % 1011,3 hPa 0,0 l/m² 1,3 km/h (1 Bft) S-SO 148 ° 1 min 156 W/m² 18,5 °C 29,1 °C 3,2 km/h (1 Bft)
19.06.2023 18:16 23,1 °C 29,1 °C 59 % 51 % 1011,3 hPa 0,0 l/m² 0,7 km/h (0 Bft) S-SO 148 ° 1 min 197 W/m² 17,9 °C 29,1 °C 3,2 km/h (1 Bft)
19.06.2023 18:17 23,1 °C 29,1 °C 59 % 50 % 1011,2 hPa 0,0 l/m² 0,0 km/h (0 Bft) S-SO 148 ° 1 min 139 W/m² 17,6 °C 29,1 °C 0,0 km/h (0 Bft)
19.06.2023 18:18 23,1 °C 29,1 °C 59 % 50 % 1011,3 hPa 0,0 l/m² 1,7 km/h (1 Bft) S-SO 148 ° 1 min 139 W/m² 17,6 °C 29,1 °C 3,2 km/h (1 Bft)
19.06.2023 18:19 23,1 °C 29,1 °C 59 % 50 % 1011,3 hPa 0,0 l/m² 0,4 km/h (0 Bft) S-SO 148 ° 1 min 139 W/m² 17,6 °C 29,1 °C 1,6 km/h (1 Bft)
19.06.2023 18:20 23,1 °C 29,1 °C 59 % 50 % 1011,3 hPa 0,0 l/m² 0,0 km/h (0 Bft) S-SO 148 ° 1 min 142 W/m² 17,6 °C 29,1 °C 0,0 km/h (0 Bft)
19.06.2023 18:22 23,2 °C 29,1 °C 59 % 51 % 1011,3 hPa 0,0 l/m² 0,3 km/h (0 Bft) S-SO 148 ° 2 min 137 W/m² 17,9 °C 29,1 °C 1,6 km/h (1 Bft)
19.06.2023 18:23 23,2 °C 29,1 °C 59 % 51 % 1011,2 hPa 0,0 l/m² 1,0 km/h (0 Bft) S-SO 148 ° 1 min 135 W/m² 17,9 °C 29,1 °C 1,6 km/h (1 Bft)
19.06.2023 18:24 23,2 °C 29,1 °C 59 % 51 % 1011,2 hPa 0,0 l/m² 0,4 km/h (0 Bft) S-SO 148 ° 1 min 135 W/m² 17,9 °C 29,1 °C 1,6 km/h (1 Bft)
19.06.2023 18:25 23,2 °C 29,1 °C 59 % 52 % 1011,4 hPa 0,0 l/m² 0,9 km/h (0 Bft) S-SO 148 ° 1 min 135 W/m² 18,2 °C 29,1 °C 3,2 km/h (1 Bft)
19.06.2023 18:26 23,2 °C 29,1 °C 59 % 51 % 1011,2 hPa 0,0 l/m² 4,6 km/h (1 Bft) SO 138 ° 1 min 132 W/m² 17,9 °C 29,1 °C 6,4 km/h (2 Bft)
19.06.2023 18:27 23,2 °C 29,1 °C 59 % 51 % 1011,3 hPa 0,0 l/m² 2,9 km/h (1 Bft) SO 138 ° 1 min 134 W/m² 17,9 °C 29,1 °C 4,8 km/h (1 Bft)
19.06.2023 18:28 23,1 °C 29,0 °C 59 % 52 % 1011,3 hPa 0,0 l/m² 3,7 km/h (1 Bft) SO 138 ° 1 min 142 W/m² 18,1 °C 29,0 °C 4,8 km/h (1 Bft)
19.06.2023 18:29 23,2 °C 29,0 °C 59 % 52 % 1011,3 hPa 0,0 l/m² 3,7 km/h (1 Bft) SO 138 ° 1 min 134 W/m² 18,1 °C 29,0 °C 4,8 km/h (1 Bft)
19.06.2023 18:30 23,1 °C 29,0 °C 59 % 51 % 1011,2 hPa 0,0 l/m² 4,0 km/h (1 Bft) O-SO 111 ° 1 min 135 W/m² 17,8 °C 29,0 °C 9,7 km/h (2 Bft)
19.06.2023 18:32 23,2 °C 28,9 °C 59 % 51 % 1011,3 hPa 0,0 l/m² 7,2 km/h (2 Bft) O-SO 109 ° 2 min 146 W/m² 17,7 °C 28,8 °C 11,3 km/h (2 Bft)
19.06.2023 18:33 23,2 °C 28,9 °C 59 % 51 % 1011,3 hPa 0,0 l/m² 5,7 km/h (2 Bft) O-SO 116 ° 1 min 169 W/m² 17,7 °C 28,9 °C 9,7 km/h (2 Bft)
19.06.2023 18:34 23,2 °C 28,9 °C 59 % 51 % 1011,3 hPa 0,0 l/m² 3,1 km/h (1 Bft) O-SO 116 ° 1 min 156 W/m² 17,7 °C 28,9 °C 4,8 km/h (1 Bft)
19.06.2023 18:35 23,2 °C 28,9 °C 59 % 52 % 1011,3 hPa 0,0 l/m² 1,9 km/h (1 Bft) O-SO 116 ° 1 min 142 W/m² 18,0 °C 28,9 °C 3,2 km/h (1 Bft)
19.06.2023 18:36 23,2 °C 28,9 °C 59 % 51 % 1011,3 hPa 0,0 l/m² 0,9 km/h (0 Bft) O-SO 116 ° 1 min 137 W/m² 17,7 °C 28,9 °C 1,6 km/h (1 Bft)
19.06.2023 18:37 23,2 °C 28,9 °C 59 % 53 % 1011,2 hPa 0,0 l/m² 0,9 km/h (0 Bft) O-SO 116 ° 1 min 137 W/m² 18,3 °C 28,9 °C 1,6 km/h (1 Bft)
19.06.2023 18:38 23,2 °C 28,9 °C 60 % 52 % 1011,3 hPa 0,0 l/m² 1,8 km/h (1 Bft) O-SO 116 ° 1 min 137 W/m² 18,0 °C 28,9 °C 3,2 km/h (1 Bft)
19.06.2023 18:39 23,2 °C 28,9 °C 60 % 52 % 1011,2 hPa 0,0 l/m² 0,8 km/h (0 Bft) O-SO 116 ° 1 min 139 W/m² 18,0 °C 28,9 °C 1,6 km/h (1 Bft)
19.06.2023 18:40 23,2 °C 28,9 °C 60 % 52 % 1011,2 hPa 0,0 l/m² 0,0 km/h (0 Bft) O-SO 116 ° 1 min 139 W/m² 18,0 °C 28,9 °C 0,0 km/h (0 Bft)
19.06.2023 18:42 23,2 °C 29,0 °C 60 % 53 % 1011,2 hPa 0,0 l/m² 0,0 km/h (0 Bft) O-SO 116 ° 2 min 134 W/m² 18,4 °C 29,0 °C 0,0 km/h (0 Bft)
19.06.2023 18:43 23,2 °C 28,9 °C 60 % 52 % 1011,2 hPa 0,0 l/m² 1,1 km/h (1 Bft) O-SO 116 ° 1 min 95 W/m² 18,0 °C 28,9 °C 3,2 km/h (1 Bft)
19.06.2023 18:44 23,2 °C 28,9 °C 60 % 51 % 1011,2 hPa 0,0 l/m² 0,0 km/h (0 Bft) O-SO 116 ° 1 min 95 W/m² 17,7 °C 28,9 °C 1,6 km/h (1 Bft)
19.06.2023 18:45 23,2 °C 28,9 °C 60 % 51 % 1011,2 hPa 0,0 l/m² 1,7 km/h (1 Bft) O-SO 116 ° 1 min 116 W/m² 17,7 °C 28,9 °C 3,2 km/h (1 Bft)
19.06.2023 18:46 23,2 °C 28,9 °C 60 % 52 % 1011,3 hPa 0,0 l/m² 1,9 km/h (1 Bft) O-SO 116 ° 1 min 109 W/m² 18,0 °C 28,9 °C 3,2 km/h (1 Bft)
19.06.2023 18:47 23,2 °C 28,9 °C 60 % 51 % 1011,2 hPa 0,0 l/m² 2,6 km/h (1 Bft) O-SO 116 ° 1 min 102 W/m² 17,7 °C 28,9 °C 4,8 km/h (1 Bft)
19.06.2023 18:48 23,2 °C 28,9 °C 60 % 51 % 1011,2 hPa 0,0 l/m² 0,4 km/h (0 Bft) O-SO 116 ° 1 min 93 W/m² 17,7 °C 28,9 °C 1,6 km/h (1 Bft)
19.06.2023 18:49 23,2 °C 28,9 °C 60 % 51 % 1011,3 hPa 0,0 l/m² 0,7 km/h (0 Bft) O-SO 116 ° 1 min 81 W/m² 17,7 °C 28,9 °C 1,6 km/h (1 Bft)
19.06.2023 18:50 23,2 °C 28,9 °C 60 % 52 % 1011,2 hPa 0,0 l/m² 0,1 km/h (0 Bft) O-SO 116 ° 1 min 76 W/m² 18,0 °C 28,9 °C 1,6 km/h (1 Bft)
19.06.2023 18:52 23,2 °C 28,9 °C 60 % 51 % 1011,2 hPa 0,0 l/m² 0,1 km/h (0 Bft) O-SO 116 ° 2 min 72 W/m² 17,7 °C 28,9 °C 1,6 km/h (1 Bft)
19.06.2023 18:53 23,2 °C 28,8 °C 60 % 52 % 1011,2 hPa 0,0 l/m² 0,3 km/h (0 Bft) O-SO 116 ° 1 min 72 W/m² 17,9 °C 28,8 °C 1,6 km/h (1 Bft)
19.06.2023 18:54 23,2 °C 28,8 °C 60 % 51 % 1011,2 hPa 0,0 l/m² 0,2 km/h (0 Bft) O-SO 116 ° 1 min 72 W/m² 17,6 °C 28,8 °C 1,6 km/h (1 Bft)
19.06.2023 18:55 23,3 °C 28,8 °C 60 % 52 % 1011,2 hPa 0,0 l/m² 0,7 km/h (0 Bft) O-SO 116 ° 1 min 67 W/m² 17,9 °C 28,8 °C 1,6 km/h (1 Bft)
19.06.2023 18:56 23,2 °C 28,8 °C 60 % 52 % 1011,3 hPa 0,0 l/m² 1,5 km/h (1 Bft) O-SO 116 ° 1 min 62 W/m² 17,9 °C 28,8 °C 1,6 km/h (1 Bft)
19.06.2023 18:57 23,2 °C 28,7 °C 60 % 52 % 1011,3 hPa 0,0 l/m² 3,8 km/h (1 Bft) S 177 ° 1 min 58 W/m² 17,8 °C 28,7 °C 8,0 km/h (2 Bft)
19.06.2023 18:58 23,2 °C 28,7 °C 60 % 53 % 1011,4 hPa 0,0 l/m² 10,7 km/h (2 Bft) S-SW 192 ° 1 min 54 W/m² 18,2 °C 28,2 °C 16,1 km/h (3 Bft)
19.06.2023 18:59 23,3 °C 28,6 °C 60 % 52 % 1011,5 hPa 0,0 l/m² 18,2 km/h (3 Bft) S 169 ° 0 min 51 W/m² 17,8 °C 27,4 °C 24,1 km/h (4 Bft)
19.06.2023 19:00 23,2 °C 28,4 °C 60 % 53 % 1011,4 hPa 0,0 l/m² 14,6 km/h (3 Bft) S 188 ° 0 min 47 W/m² 17,9 °C 27,5 °C 17,7 km/h (3 Bft)
19.06.2023 19:02 23,3 °C 28,2 °C 60 % 53 % 1011,4 hPa 0,0 l/m² 10,4 km/h (2 Bft) S-SW 205 ° 0 min 46 W/m² 17,7 °C 27,7 °C 16,1 km/h (3 Bft)
19.06.2023 19:03 23,3 °C 28,0 °C 60 % 53 % 1011,5 hPa 0,0 l/m² 10,8 km/h (2 Bft) S 188 ° 0 min 46 W/m² 17,5 °C 27,4 °C 14,5 km/h (3 Bft)
19.06.2023 19:04 23,3 °C 27,9 °C 60 % 53 % 1011,5 hPa 0,0 l/m² 12,7 km/h (3 Bft) S-SW 197 ° 0 min 47 W/m² 17,4 °C 27,1 °C 14,5 km/h (3 Bft)
19.06.2023 19:05 23,3 °C 27,8 °C 60 % 54 % 1011,5 hPa 0,0 l/m² 9,9 km/h (2 Bft) S-SW 205 ° 0 min 49 W/m² 17,6 °C 27,3 °C 12,9 km/h (3 Bft)
19.06.2023 19:06 23,3 °C 27,7 °C 60 % 54 % 1011,6 hPa 0,0 l/m² 6,0 km/h (2 Bft) S-SW 200 ° 1 min 56 W/m² 17,5 °C 27,7 °C 8,0 km/h (2 Bft)
19.06.2023 19:07 23,3 °C 27,6 °C 60 % 55 % 1011,6 hPa 0,0 l/m² 10,1 km/h (2 Bft) S 175 ° 1 min 60 W/m² 17,7 °C 27,0 °C 12,9 km/h (3 Bft)
19.06.2023 19:08 23,3 °C 27,4 °C 60 % 55 % 1011,6 hPa 0,0 l/m² 15,3 km/h (3 Bft) S-SW 205 ° 1 min 63 W/m² 17,5 °C 26,2 °C 19,3 km/h (3 Bft)
19.06.2023 19:09 23,3 °C 27,4 °C 60 % 55 % 1011,6 hPa 0,0 l/m² 16,8 km/h (3 Bft) S 187 ° 1 min 67 W/m² 17,5 °C 26,0 °C 27,4 km/h (5 Bft)
19.06.2023 19:11 23,3 °C 27,2 °C 60 % 56 % 1011,8 hPa 0,0 l/m² 16,3 km/h (3 Bft) S 177 ° 2 min 74 W/m² 17,6 °C 25,8 °C 27,4 km/h (5 Bft)
19.06.2023 19:13 23,3 °C 26,9 °C 60 % 57 % 1011,8 hPa 0,0 l/m² 15,2 km/h (3 Bft) SO 138 ° 2 min 83 W/m² 17,6 °C 25,6 °C 19,3 km/h (3 Bft)
19.06.2023 19:14 23,2 °C 26,8 °C 60 % 58 % 1011,8 hPa 0,0 l/m² 10,8 km/h (2 Bft) S-SO 154 ° 1 min 86 W/m² 17,8 °C 26,0 °C 16,1 km/h (3 Bft)
19.06.2023 19:15 23,2 °C 26,7 °C 60 % 58 % 1011,8 hPa 0,0 l/m² 13,4 km/h (3 Bft) S-SO 150 ° 1 min 88 W/m² 17,7 °C 25,6 °C 17,7 km/h (3 Bft)
19.06.2023 19:16 23,3 °C 26,6 °C 60 % 58 % 1011,8 hPa 0,0 l/m² 11,4 km/h (2 Bft) S-SO 150 ° 1 min 90 W/m² 17,6 °C 25,7 °C 16,1 km/h (3 Bft)
19.06.2023 19:17 23,3 °C 26,5 °C 60 % 59 % 1011,9 hPa 0,0 l/m² 12,1 km/h (2 Bft) S-SO 159 ° 1 min 91 W/m² 17,8 °C 25,5 °C 14,5 km/h (3 Bft)
19.06.2023 19:18 23,3 °C 26,4 °C 60 % 59 % 1011,9 hPa 0,0 l/m² 10,6 km/h (2 Bft) S-SO 159 ° 1 min 93 W/m² 17,7 °C 25,6 °C 16,1 km/h (3 Bft)
19.06.2023 19:19 23,3 °C 26,4 °C 60 % 59 % 1011,9 hPa 0,0 l/m² 15,8 km/h (3 Bft) S-SO 154 ° 1 min 93 W/m² 17,7 °C 24,9 °C 22,5 km/h (4 Bft)
19.06.2023 19:21 23,3 °C 26,3 °C 60 % 60 % 1011,9 hPa 0,0 l/m² 13,1 km/h (3 Bft) SO 144 ° 2 min 97 W/m² 17,9 °C 25,1 °C 17,7 km/h (3 Bft)
19.06.2023 19:23 23,3 °C 26,1 °C 60 % 61 % 1011,8 hPa 0,0 l/m² 8,6 km/h (2 Bft) S-SO 165 ° 2 min 100 W/m² 18,0 °C 25,6 °C 12,9 km/h (3 Bft)
19.06.2023 19:24 23,3 °C 26,1 °C 60 % 61 % 1011,8 hPa 0,0 l/m² 4,8 km/h (1 Bft) SO 130 ° 1 min 102 W/m² 18,0 °C 26,1 °C 8,0 km/h (2 Bft)
19.06.2023 19:25 23,3 °C 26,1 °C 60 % 61 % 1011,9 hPa 0,0 l/m² 4,9 km/h (1 Bft) S-SO 147 ° 1 min 104 W/m² 18,0 °C 26,1 °C 11,3 km/h (2 Bft)
19.06.2023 19:27 23,3 °C 26,1 °C 60 % 61 % 1011,8 hPa 0,0 l/m² 5,6 km/h (2 Bft) S-SO 166 ° 2 min 105 W/m² 18,0 °C 26,1 °C 9,7 km/h (2 Bft)
19.06.2023 19:28 23,3 °C 26,0 °C 60 % 61 % 1011,8 hPa 0,0 l/m² 6,3 km/h (2 Bft) S-SO 166 ° 1 min 107 W/m² 17,9 °C 26,0 °C 8,0 km/h (2 Bft)
19.06.2023 19:29 23,3 °C 26,0 °C 60 % 61 % 1011,8 hPa 0,0 l/m² 6,2 km/h (2 Bft) SO 138 ° 1 min 107 W/m² 17,9 °C 26,0 °C 8,0 km/h (2 Bft)
19.06.2023 19:31 23,3 °C 25,9 °C 60 % 61 % 1011,7 hPa 0,0 l/m² 8,2 km/h (2 Bft) S-SO 161 ° 2 min 100 W/m² 17,8 °C 25,5 °C 11,3 km/h (2 Bft)
19.06.2023 19:33 23,3 °C 25,8 °C 61 % 62 % 1011,7 hPa 0,0 l/m² 6,0 km/h (2 Bft) S-SO 149 ° 2 min 95 W/m² 18,0 °C 25,8 °C 9,7 km/h (2 Bft)
19.06.2023 19:34 23,3 °C 25,8 °C 61 % 62 % 1011,8 hPa 0,0 l/m² 5,3 km/h (1 Bft) SO 142 ° 1 min 91 W/m² 18,0 °C 25,8 °C 11,3 km/h (2 Bft)
19.06.2023 19:35 23,3 °C 25,7 °C 61 % 62 % 1011,8 hPa 0,0 l/m² 6,2 km/h (2 Bft) S-SO 161 ° 1 min 88 W/m² 17,9 °C 25,7 °C 8,0 km/h (2 Bft)
19.06.2023 19:36 23,3 °C 25,7 °C 61 % 62 % 1011,8 hPa 0,0 l/m² 4,8 km/h (1 Bft) SO 131 ° 1 min 83 W/m² 17,9 °C 25,7 °C 8,0 km/h (2 Bft)
19.06.2023 19:37 23,3 °C 25,6 °C 61 % 63 % 1011,9 hPa 0,0 l/m² 5,0 km/h (1 Bft) SO 142 ° 1 min 81 W/m² 18,0 °C 25,6 °C 8,0 km/h (2 Bft)
19.06.2023 19:38 23,3 °C 25,6 °C 61 % 63 % 1011,8 hPa 0,0 l/m² 4,6 km/h (1 Bft) S 186 ° 1 min 79 W/m² 18,0 °C 25,6 °C 8,0 km/h (2 Bft)
19.06.2023 19:39 23,3 °C 25,5 °C 61 % 63 % 1011,8 hPa 0,0 l/m² 6,8 km/h (2 Bft) SO 146 ° 1 min 79 W/m² 17,9 °C 25,4 °C 8,0 km/h (2 Bft)
19.06.2023 19:41 23,3 °C 25,4 °C 61 % 63 % 1011,8 hPa 0,0 l/m² 7,5 km/h (2 Bft) S-SO 148 ° 2 min 79 W/m² 17,8 °C 25,1 °C 11,3 km/h (2 Bft)
19.06.2023 19:43 23,3 °C 25,3 °C 61 % 63 % 1011,8 hPa 0,0 l/m² 7,0 km/h (2 Bft) S-SO 167 ° 2 min 81 W/m² 17,7 °C 25,2 °C 9,7 km/h (2 Bft)
19.06.2023 19:44 23,3 °C 25,3 °C 61 % 64 % 1011,8 hPa 0,0 l/m² 5,9 km/h (2 Bft) S-SO 163 ° 1 min 83 W/m² 18,0 °C 25,3 °C 8,0 km/h (2 Bft)
19.06.2023 19:45 23,3 °C 25,2 °C 61 % 64 % 1011,8 hPa 0,0 l/m² 6,3 km/h (2 Bft) S-SO 154 ° 1 min 83 W/m² 17,9 °C 25,2 °C 8,0 km/h (2 Bft)
19.06.2023 19:46 23,3 °C 25,2 °C 61 % 64 % 1011,7 hPa 0,0 l/m² 3,8 km/h (1 Bft) S-SO 154 ° 1 min 84 W/m² 17,9 °C 25,2 °C 4,8 km/h (1 Bft)
19.06.2023 19:47 23,3 °C 25,2 °C 61 % 64 % 1011,8 hPa 0,0 l/m² 2,5 km/h (1 Bft) S-SO 154 ° 1 min 84 W/m² 17,9 °C 25,2 °C 3,2 km/h (1 Bft)
19.06.2023 19:48 23,3 °C 25,2 °C 61 % 64 % 1011,8 hPa 0,0 l/m² 0,9 km/h (0 Bft) S-SO 154 ° 1 min 86 W/m² 17,9 °C 25,2 °C 1,6 km/h (1 Bft)
19.06.2023 19:49 23,3 °C 25,1 °C 61 % 65 % 1011,8 hPa 0,0 l/m² 0,4 km/h (0 Bft) S-SO 154 ° 1 min 86 W/m² 18,0 °C 25,1 °C 1,6 km/h (1 Bft)
19.06.2023 19:51 23,3 °C 25,1 °C 61 % 65 % 1011,8 hPa 0,0 l/m² 0,0 km/h (0 Bft) S-SO 154 ° 2 min 86 W/m² 18,0 °C 25,1 °C 0,0 km/h (0 Bft)
19.06.2023 19:53 23,3 °C 25,1 °C 61 % 65 % 1011,7 hPa 0,0 l/m² 2,0 km/h (1 Bft) SO 139 ° 2 min 81 W/m² 18,0 °C 25,1 °C 4,8 km/h (1 Bft)
19.06.2023 19:54 23,3 °C 25,1 °C 61 % 64 % 1011,7 hPa 0,0 l/m² 2,7 km/h (1 Bft) SO 139 ° 1 min 79 W/m² 17,8 °C 25,1 °C 4,8 km/h (1 Bft)
19.06.2023 19:55 23,3 °C 25,1 °C 61 % 64 % 1011,8 hPa 0,0 l/m² 3,1 km/h (1 Bft) O-SO 120 ° 1 min 77 W/m² 17,8 °C 25,1 °C 4,8 km/h (1 Bft)
19.06.2023 19:56 23,3 °C 25,1 °C 61 % 65 % 1011,8 hPa 0,0 l/m² 2,1 km/h (1 Bft) S-SO 168 ° 1 min 76 W/m² 18,0 °C 25,1 °C 3,2 km/h (1 Bft)
19.06.2023 19:57 23,3 °C 25,1 °C 61 % 64 % 1011,8 hPa 0,0 l/m² 2,8 km/h (1 Bft) S-SO 162 ° 1 min 74 W/m² 17,8 °C 25,1 °C 6,4 km/h (2 Bft)
19.06.2023 19:58 23,3 °C 25,1 °C 61 % 64 % 1011,8 hPa 0,0 l/m² 1,5 km/h (1 Bft) S-SO 162 ° 1 min 70 W/m² 17,8 °C 25,1 °C 3,2 km/h (1 Bft)
19.06.2023 19:59 23,3 °C 25,1 °C 61 % 64 % 1011,7 hPa 0,0 l/m² 0,5 km/h (0 Bft) S-SO 162 ° 1 min 65 W/m² 17,8 °C 25,1 °C 1,6 km/h (1 Bft)
19.06.2023 20:01 23,3 °C 25,1 °C 61 % 65 % 1011,6 hPa 0,0 l/m² 0,7 km/h (0 Bft) S-SO 162 ° 2 min 62 W/m² 18,0 °C 25,1 °C 1,6 km/h (1 Bft)
19.06.2023 20:03 23,3 °C 25,0 °C 61 % 65 % 1011,8 hPa 0,0 l/m² 1,1 km/h (1 Bft) S-SO 162 ° 2 min 56 W/m² 17,9 °C 25,0 °C 3,2 km/h (1 Bft)
19.06.2023 20:04 23,3 °C 25,1 °C 61 % 65 % 1011,7 hPa 0,0 l/m² 0,9 km/h (0 Bft) S-SO 162 ° 1 min 56 W/m² 18,0 °C 25,1 °C 3,2 km/h (1 Bft)
19.06.2023 20:05 23,3 °C 25,0 °C 61 % 65 % 1011,7 hPa 0,0 l/m² 0,3 km/h (0 Bft) S-SO 162 ° 1 min 54 W/m² 17,9 °C 25,0 °C 1,6 km/h (1 Bft)
19.06.2023 20:06 23,3 °C 24,9 °C 61 % 66 % 1011,8 hPa 0,0 l/m² 1,7 km/h (1 Bft) S-SO 162 ° 1 min 54 W/m² 18,1 °C 24,9 °C 3,2 km/h (1 Bft)
19.06.2023 20:07 23,3 °C 24,9 °C 61 % 66 % 1011,8 hPa 0,0 l/m² 1,8 km/h (1 Bft) S-SO 162 ° 1 min 54 W/m² 18,1 °C 24,9 °C 3,2 km/h (1 Bft)
19.06.2023 20:08 23,3 °C 24,9 °C 61 % 66 % 1011,8 hPa 0,0 l/m² 0,9 km/h (0 Bft) S-SO 162 ° 1 min 54 W/m² 18,1 °C 24,9 °C 1,6 km/h (1 Bft)
19.06.2023 20:09 23,3 °C 24,9 °C 61 % 66 % 1011,8 hPa 0,0 l/m² 0,0 km/h (0 Bft) S-SO 162 ° 1 min 54 W/m² 18,1 °C 24,9 °C 0,0 km/h (0 Bft)
19.06.2023 20:11 23,3 °C 24,8 °C 61 % 67 % 1011,8 hPa 0,0 l/m² 1,1 km/h (1 Bft) S-SO 162 ° 2 min 54 W/m² 18,2 °C 24,8 °C 3,2 km/h (1 Bft)
19.06.2023 20:13 23,3 °C 24,7 °C 60 % 67 % 1011,8 hPa 0,0 l/m² 2,0 km/h (1 Bft) S-SO 162 ° 2 min 54 W/m² 18,1 °C 24,7 °C 3,2 km/h (1 Bft)
19.06.2023 20:14 23,2 °C 24,7 °C 61 % 68 % 1011,9 hPa 0,0 l/m² 2,6 km/h (1 Bft) S-SO 162 ° 1 min 54 W/m² 18,4 °C 24,7 °C 3,2 km/h (1 Bft)
19.06.2023 20:15 23,3 °C 24,6 °C 61 % 69 % 1011,9 hPa 0,0 l/m² 2,2 km/h (1 Bft) S-SO 162 ° 1 min 54 W/m² 18,5 °C 24,6 °C 3,2 km/h (1 Bft)
19.06.2023 20:16 23,3 °C 24,6 °C 61 % 69 % 1011,8 hPa 0,0 l/m² 1,5 km/h (1 Bft) S-SO 162 ° 1 min 54 W/m² 18,5 °C 24,6 °C 3,2 km/h (1 Bft)
19.06.2023 20:17 23,3 °C 24,5 °C 61 % 69 % 1011,8 hPa 0,0 l/m² 0,5 km/h (0 Bft) S-SO 162 ° 1 min 54 W/m² 18,4 °C 24,5 °C 1,6 km/h (1 Bft)
19.06.2023 20:18 23,3 °C 24,5 °C 61 % 69 % 1011,8 hPa 0,0 l/m² 1,7 km/h (1 Bft) S-SO 162 ° 1 min 53 W/m² 18,4 °C 24,5 °C 3,2 km/h (1 Bft)
19.06.2023 20:19 23,3 °C 24,5 °C 61 % 69 % 1011,8 hPa 0,0 l/m² 2,5 km/h (1 Bft) S-SO 162 ° 1 min 53 W/m² 18,4 °C 24,5 °C 3,2 km/h (1 Bft)
19.06.2023 20:21 23,2 °C 24,4 °C 61 % 68 % 1011,8 hPa 0,0 l/m² 2,3 km/h (1 Bft) O 83 ° 0 min 51 W/m² 18,1 °C 24,4 °C 4,8 km/h (1 Bft)
19.06.2023 20:23 23,3 °C 24,6 °C 61 % 68 % 1011,8 hPa 0,0 l/m² 0,7 km/h (0 Bft) O 83 ° 0 min 51 W/m² 18,3 °C 24,6 °C 1,6 km/h (1 Bft)
19.06.2023 20:24 23,2 °C 24,6 °C 61 % 68 % 1011,9 hPa 0,0 l/m² 0,4 km/h (0 Bft) O 83 ° 1 min 53 W/m² 18,3 °C 24,6 °C 1,6 km/h (1 Bft)
19.06.2023 20:25 23,2 °C 24,7 °C 61 % 67 % 1011,9 hPa 0,0 l/m² 0,0 km/h (0 Bft) O 83 ° 1 min 53 W/m² 18,1 °C 24,7 °C 0,0 km/h (0 Bft)
19.06.2023 20:26 23,3 °C 24,7 °C 61 % 67 % 1012,0 hPa 0,0 l/m² 1,0 km/h (0 Bft) O 83 ° 1 min 53 W/m² 18,1 °C 24,7 °C 1,6 km/h (1 Bft)
19.06.2023 20:27 23,3 °C 24,7 °C 61 % 67 % 1011,9 hPa 0,0 l/m² 0,1 km/h (0 Bft) O 83 ° 1 min 54 W/m² 18,1 °C 24,7 °C 1,6 km/h (1 Bft)
19.06.2023 20:28 23,3 °C 24,8 °C 61 % 68 % 1012,0 hPa 0,0 l/m² 0,3 km/h (0 Bft) O 83 ° 1 min 56 W/m² 18,5 °C 24,8 °C 1,6 km/h (1 Bft)
19.06.2023 20:29 23,3 °C 24,8 °C 61 % 67 % 1012,0 hPa 0,0 l/m² 0,2 km/h (0 Bft) O 83 ° 1 min 58 W/m² 18,2 °C 24,8 °C 1,6 km/h (1 Bft)
19.06.2023 20:31 23,3 °C 24,8 °C 61 % 66 % 1012,1 hPa 0,0 l/m² 0,0 km/h (0 Bft) O 83 ° 2 min 60 W/m² 18,0 °C 24,8 °C 0,0 km/h (0 Bft)
19.06.2023 20:33 23,3 °C 24,8 °C 61 % 67 % 1012,2 hPa 0,0 l/m² 1,8 km/h (1 Bft) W 265 ° 2 min 62 W/m² 18,2 °C 24,8 °C 6,4 km/h (2 Bft)
19.06.2023 20:34 23,3 °C 24,8 °C 61 % 67 % 1012,2 hPa 0,0 l/m² 4,8 km/h (1 Bft) W-NW 285 ° 1 min 62 W/m² 18,2 °C 24,8 °C 6,4 km/h (2 Bft)
19.06.2023 20:35 23,3 °C 24,7 °C 61 % 67 % 1012,2 hPa 0,0 l/m² 2,1 km/h (1 Bft) W 265 ° 1 min 62 W/m² 18,1 °C 24,7 °C 4,8 km/h (1 Bft)
19.06.2023 20:36 23,3 °C 24,7 °C 61 % 67 % 1012,2 hPa 0,0 l/m² 0,0 km/h (0 Bft) W 265 ° 1 min 62 W/m² 18,1 °C 24,7 °C 0,0 km/h (0 Bft)
19.06.2023 20:37 23,3 °C 24,6 °C 61 % 68 % 1012,2 hPa 0,0 l/m² 0,0 km/h (0 Bft) W 265 ° 1 min 62 W/m² 18,3 °C 24,6 °C 0,0 km/h (0 Bft)
19.06.2023 20:38 23,3 °C 24,6 °C 61 % 68 % 1012,2 hPa 0,0 l/m² 0,0 km/h (0 Bft) W 265 ° 1 min 62 W/m² 18,3 °C 24,6 °C 0,0 km/h (0 Bft)
19.06.2023 20:39 23,3 °C 24,6 °C 61 % 68 % 1012,1 hPa 0,0 l/m² 0,0 km/h (0 Bft) W 265 ° 1 min 62 W/m² 18,3 °C 24,6 °C 0,0 km/h (0 Bft)
19.06.2023 20:41 23,3 °C 24,6 °C 61 % 69 % 1012,1 hPa 0,0 l/m² 0,3 km/h (0 Bft) W 265 ° 2 min 62 W/m² 18,5 °C 24,6 °C 1,6 km/h (1 Bft)
19.06.2023 20:43 23,3 °C 24,5 °C 61 % 69 % 1012,1 hPa 0,0 l/m² 0,4 km/h (0 Bft) W 265 ° 2 min 62 W/m² 18,4 °C 24,5 °C 3,2 km/h (1 Bft)
19.06.2023 20:44 23,3 °C 24,4 °C 61 % 68 % 1012,2 hPa 0,0 l/m² 0,3 km/h (0 Bft) W 265 ° 1 min 60 W/m² 18,1 °C 24,4 °C 1,6 km/h (1 Bft)
19.06.2023 20:45 23,3 °C 24,4 °C 61 % 68 % 1012,1 hPa 0,0 l/m² 0,0 km/h (0 Bft) W 265 ° 1 min 60 W/m² 18,1 °C 24,4 °C 0,0 km/h (0 Bft)
19.06.2023 20:46 23,3 °C 24,4 °C 61 % 68 % 1012,2 hPa 0,0 l/m² 0,5 km/h (0 Bft) W 265 ° 1 min 56 W/m² 18,1 °C 24,4 °C 3,2 km/h (1 Bft)
19.06.2023 20:47 23,4 °C 24,4 °C 61 % 68 % 1012,2 hPa 0,0 l/m² 0,0 km/h (0 Bft) W 265 ° 1 min 54 W/m² 18,1 °C 24,4 °C 0,0 km/h (0 Bft)
19.06.2023 20:48 23,4 °C 24,4 °C 61 % 69 % 1012,2 hPa 0,0 l/m² 0,0 km/h (0 Bft) W 265 ° 1 min 53 W/m² 18,3 °C 24,4 °C 0,0 km/h (0 Bft)
19.06.2023 20:49 23,3 °C 24,2 °C 61 % 69 % 1012,2 hPa 0,0 l/m² 0,0 km/h (0 Bft) W 265 ° 0 min 51 W/m² 18,1 °C 24,2 °C 0,0 km/h (0 Bft)
19.06.2023 20:50 23,3 °C 24,1 °C 61 % 70 % 1012,2 hPa 0,0 l/m² 0,0 km/h (0 Bft) W 265 ° 0 min 49 W/m² 18,3 °C 24,1 °C 0,0 km/h (0 Bft)
19.06.2023 20:52 23,4 °C 23,8 °C 61 % 71 % 1012,2 hPa 0,0 l/m² 0,0 km/h (0 Bft) W 265 ° 0 min 44 W/m² 18,2 °C 23,8 °C 0,0 km/h (0 Bft)
19.06.2023 20:53 23,4 °C 23,7 °C 61 % 71 % 1012,2 hPa 0,0 l/m² 0,0 km/h (0 Bft) W 265 ° 0 min 42 W/m² 18,1 °C 23,7 °C 0,0 km/h (0 Bft)
19.06.2023 20:54 23,4 °C 23,7 °C 61 % 71 % 1012,2 hPa 0,0 l/m² 0,1 km/h (0 Bft) W 265 ° 0 min 40 W/m² 18,1 °C 23,7 °C 1,6 km/h (1 Bft)
19.06.2023 20:55 23,4 °C 23,7 °C 61 % 71 % 1012,2 hPa 0,0 l/m² 0,0 km/h (0 Bft) W 265 ° 0 min 39 W/m² 18,1 °C 23,7 °C 0,0 km/h (0 Bft)
19.06.2023 20:56 23,4 °C 23,7 °C 61 % 72 % 1012,2 hPa 0,0 l/m² 0,0 km/h (0 Bft) W 265 ° 0 min 39 W/m² 18,3 °C 23,7 °C 0,0 km/h (0 Bft)
19.06.2023 20:57 23,4 °C 23,8 °C 61 % 72 % 1012,2 hPa 0,0 l/m² 0,0 km/h (0 Bft) W 265 ° 0 min 37 W/m² 18,4 °C 23,8 °C 0,0 km/h (0 Bft)
19.06.2023 20:58 23,4 °C 23,7 °C 61 % 72 % 1012,2 hPa 0,0 l/m² 1,2 km/h (1 Bft) W 265 ° 0 min 33 W/m² 18,3 °C 23,7 °C 3,2 km/h (1 Bft)
19.06.2023 20:59 23,4 °C 23,8 °C 61 % 71 % 1012,1 hPa 0,0 l/m² 0,6 km/h (0 Bft) W 265 ° 0 min 32 W/m² 18,2 °C 23,8 °C 1,6 km/h (1 Bft)
19.06.2023 21:00 23,4 °C 23,8 °C 61 % 71 % 1012,2 hPa 0,0 l/m² 0,6 km/h (0 Bft) W 265 ° 0 min 32 W/m² 18,2 °C 23,8 °C 1,6 km/h (1 Bft)
19.06.2023 21:02 23,4 °C 23,8 °C 61 % 70 % 1012,2 hPa 0,0 l/m² 0,0 km/h (0 Bft) W 265 ° 0 min 28 W/m² 18,0 °C 23,8 °C 0,0 km/h (0 Bft)
19.06.2023 21:03 23,4 °C 23,8 °C 61 % 70 % 1012,2 hPa 0,0 l/m² 0,0 km/h (0 Bft) W 265 ° 0 min 26 W/m² 18,0 °C 23,8 °C 0,0 km/h (0 Bft)
19.06.2023 21:04 23,4 °C 23,9 °C 61 % 70 % 1012,2 hPa 0,0 l/m² 1,0 km/h (0 Bft) W 265 ° 0 min 25 W/m² 18,1 °C 23,9 °C 3,2 km/h (1 Bft)
19.06.2023 21:05 23,4 °C 23,8 °C 61 % 70 % 1012,1 hPa 0,0 l/m² 0,1 km/h (0 Bft) W 265 ° 0 min 23 W/m² 18,0 °C 23,8 °C 1,6 km/h (1 Bft)
19.06.2023 21:06 23,4 °C 23,7 °C 61 % 70 % 1012,2 hPa 0,0 l/m² 0,0 km/h (0 Bft) W 265 ° 0 min 23 W/m² 17,9 °C 23,7 °C 0,0 km/h (0 Bft)
19.06.2023 21:07 23,4 °C 23,6 °C 61 % 72 % 1012,3 hPa 0,0 l/m² 0,0 km/h (0 Bft) W 265 ° 0 min 21 W/m² 18,2 °C 23,6 °C 0,0 km/h (0 Bft)
19.06.2023 21:08 23,4 °C 23,4 °C 61 % 72 % 1012,3 hPa 0,0 l/m² 0,1 km/h (0 Bft) W 265 ° 0 min 21 W/m² 18,1 °C 23,4 °C 1,6 km/h (1 Bft)
19.06.2023 21:09 23,4 °C 23,3 °C 61 % 73 % 1012,2 hPa 0,0 l/m² 0,3 km/h (0 Bft) W 265 ° 0 min 19 W/m² 18,2 °C 23,3 °C 3,2 km/h (1 Bft)
19.06.2023 21:11 23,4 °C 23,2 °C 61 % 73 % 1012,2 hPa 0,0 l/m² 0,7 km/h (0 Bft) W 265 ° 0 min 18 W/m² 18,1 °C 23,2 °C 4,8 km/h (1 Bft)
19.06.2023 21:13 23,4 °C 23,1 °C 61 % 73 % 1012,2 hPa 0,0 l/m² 0,0 km/h (0 Bft) W 265 ° 0 min 16 W/m² 18,0 °C 23,1 °C 0,0 km/h (0 Bft)
19.06.2023 21:14 23,4 °C 22,9 °C 61 % 73 % 1012,3 hPa 0,0 l/m² 0,0 km/h (0 Bft) W 265 ° 0 min 14 W/m² 17,8 °C 22,9 °C 0,0 km/h (0 Bft)
19.06.2023 21:15 23,4 °C 22,8 °C 61 % 73 % 1012,3 hPa 0,0 l/m² 0,0 km/h (0 Bft) W 265 ° 0 min 12 W/m² 17,7 °C 22,8 °C 0,0 km/h (0 Bft)
19.06.2023 21:16 23,4 °C 22,7 °C 61 % 74 % 1012,3 hPa 0,0 l/m² 0,0 km/h (0 Bft) W 265 ° 0 min 12 W/m² 17,8 °C 22,7 °C 0,0 km/h (0 Bft)
19.06.2023 21:17 23,4 °C 22,6 °C 61 % 74 % 1012,3 hPa 0,0 l/m² 0,0 km/h (0 Bft) W 265 ° 0 min 12 W/m² 17,7 °C 22,6 °C 0,0 km/h (0 Bft)
19.06.2023 21:18 23,4 °C 22,6 °C 61 % 74 % 1012,3 hPa 0,0 l/m² 0,0 km/h (0 Bft) W 265 ° 0 min 11 W/m² 17,7 °C 22,6 °C 0,0 km/h (0 Bft)
19.06.2023 21:19 23,4 °C 22,4 °C 61 % 75 % 1012,4 hPa 0,0 l/m² 0,0 km/h (0 Bft) W 265 ° 0 min 11 W/m² 17,7 °C 22,4 °C 0,0 km/h (0 Bft)
19.06.2023 21:21 23,4 °C 22,4 °C 61 % 75 % 1012,4 hPa 0,0 l/m² 0,0 km/h (0 Bft) W 265 ° 0 min 9 W/m² 17,7 °C 22,4 °C 0,0 km/h (0 Bft)
19.06.2023 21:23 23,4 °C 22,3 °C 61 % 76 % 1012,4 hPa 0,0 l/m² 0,0 km/h (0 Bft) W 265 ° 0 min 7 W/m² 17,9 °C 22,3 °C 0,0 km/h (0 Bft)
19.06.2023 21:24 23,4 °C 22,4 °C 61 % 77 % 1012,4 hPa 0,0 l/m² 0,0 km/h (0 Bft) W 265 ° 0 min 7 W/m² 18,2 °C 22,4 °C 0,0 km/h (0 Bft)
19.06.2023 21:25 23,4 °C 22,4 °C 61 % 77 % 1012,4 hPa 0,0 l/m² 0,0 km/h (0 Bft) W 265 ° 0 min 7 W/m² 18,2 °C 22,4 °C 0,0 km/h (0 Bft)
19.06.2023 21:26 23,4 °C 22,4 °C 61 % 77 % 1012,4 hPa 0,0 l/m² 0,0 km/h (0 Bft) W 265 ° 0 min 5 W/m² 18,2 °C 22,4 °C 0,0 km/h (0 Bft)
19.06.2023 21:27 23,4 °C 22,3 °C 61 % 77 % 1012,4 hPa 0,0 l/m² 0,0 km/h (0 Bft) W 265 ° 0 min 5 W/m² 18,1 °C 22,3 °C 0,0 km/h (0 Bft)
19.06.2023 21:28 23,4 °C 22,3 °C 61 % 77 % 1012,5 hPa 0,0 l/m² 0,0 km/h (0 Bft) W 265 ° 0 min 5 W/m² 18,1 °C 22,3 °C 0,0 km/h (0 Bft)
19.06.2023 21:29 23,4 °C 22,3 °C 61 % 76 % 1012,4 hPa 0,0 l/m² 0,0 km/h (0 Bft) W 265 ° 0 min 5 W/m² 17,9 °C 22,3 °C 0,0 km/h (0 Bft)
19.06.2023 21:30 23,4 °C 22,3 °C 61 % 76 % 1012,4 hPa 0,0 l/m² 0,0 km/h (0 Bft) W 265 ° 0 min 0 W/m² 17,9 °C 22,3 °C 0,0 km/h (0 Bft)
19.06.2023 21:32 23,4 °C 22,2 °C 61 % 77 % 1012,4 hPa 0,0 l/m² 0,0 km/h (0 Bft) W 265 ° 0 min 0 W/m² 18,0 °C 22,2 °C 0,0 km/h (0 Bft)
19.06.2023 21:33 23,4 °C 22,2 °C 61 % 78 % 1012,5 hPa 0,0 l/m² 0,0 km/h (0 Bft) W 265 ° 0 min 0 W/m² 18,2 °C 22,2 °C 0,0 km/h (0 Bft)
19.06.2023 21:34 23,4 °C 22,2 °C 61 % 78 % 1012,5 hPa 0,0 l/m² 0,0 km/h (0 Bft) W 265 ° 0 min 0 W/m² 18,2 °C 22,2 °C 0,0 km/h (0 Bft)
19.06.2023 21:35 23,4 °C 22,1 °C 61 % 79 % 1012,5 hPa 0,0 l/m² 0,0 km/h (0 Bft) W 265 ° 0 min 0 W/m² 18,3 °C 22,1 °C 0,0 km/h (0 Bft)
19.06.2023 21:36 23,4 °C 22,1 °C 61 % 79 % 1012,6 hPa 0,0 l/m² 0,0 km/h (0 Bft) W 265 ° 0 min 0 W/m² 18,3 °C 22,1 °C 0,0 km/h (0 Bft)
19.06.2023 21:37 23,4 °C 22,1 °C 61 % 79 % 1012,5 hPa 0,0 l/m² 0,0 km/h (0 Bft) W 265 ° 0 min 0 W/m² 18,3 °C 22,1 °C 0,0 km/h (0 Bft)
19.06.2023 21:38 23,4 °C 22,1 °C 61 % 79 % 1012,6 hPa 0,0 l/m² 0,7 km/h (0 Bft) W 265 ° 0 min 0 W/m² 18,3 °C 22,1 °C 3,2 km/h (1 Bft)
19.06.2023 21:39 23,4 °C 22,1 °C 61 % 79 % 1012,7 hPa 0,0 l/m² 2,0 km/h (1 Bft) W 265 ° 0 min 0 W/m² 18,3 °C 22,1 °C 3,2 km/h (1 Bft)
19.06.2023 21:40 23,4 °C 22,1 °C 61 % 79 % 1012,7 hPa 0,0 l/m² 2,1 km/h (1 Bft) W 266 ° 0 min 0 W/m² 18,3 °C 22,1 °C 4,8 km/h (1 Bft)
19.06.2023 21:42 23,4 °C 22,1 °C 61 % 78 % 1012,7 hPa 0,0 l/m² 1,4 km/h (1 Bft) W 266 ° 0 min 0 W/m² 18,1 °C 22,1 °C 3,2 km/h (1 Bft)
19.06.2023 21:43 23,4 °C 22,1 °C 61 % 79 % 1012,7 hPa 0,0 l/m² 0,5 km/h (0 Bft) W 266 ° 0 min 0 W/m² 18,3 °C 22,1 °C 1,6 km/h (1 Bft)
19.06.2023 21:44 23,4 °C 22,1 °C 61 % 79 % 1012,7 hPa 0,0 l/m² 0,0 km/h (0 Bft) W 266 ° 0 min 0 W/m² 18,3 °C 22,1 °C 3,2 km/h (1 Bft)
19.06.2023 21:45 23,4 °C 22,1 °C 61 % 78 % 1012,7 hPa 0,0 l/m² 1,6 km/h (1 Bft) W 266 ° 0 min 0 W/m² 18,1 °C 22,1 °C 4,8 km/h (1 Bft)
19.06.2023 21:46 23,4 °C 22,1 °C 61 % 77 % 1012,8 hPa 0,0 l/m² 0,5 km/h (0 Bft) W 266 ° 0 min 0 W/m² 17,9 °C 22,1 °C 3,2 km/h (1 Bft)
19.06.2023 21:47 23,4 °C 22,1 °C 61 % 77 % 1012,7 hPa 0,0 l/m² 2,6 km/h (1 Bft) W 269 ° 0 min 0 W/m² 17,9 °C 22,1 °C 4,8 km/h (1 Bft)
19.06.2023 21:48 23,4 °C 22,2 °C 61 % 76 % 1012,8 hPa 0,0 l/m² 2,9 km/h (1 Bft) W 274 ° 0 min 0 W/m² 17,8 °C 22,2 °C 4,8 km/h (1 Bft)
19.06.2023 21:49 23,4 °C 22,2 °C 61 % 75 % 1012,7 hPa 0,0 l/m² 2,7 km/h (1 Bft) W-NW 288 ° 0 min 0 W/m² 17,5 °C 22,2 °C 4,8 km/h (1 Bft)
19.06.2023 21:50 23,4 °C 22,2 °C 61 % 75 % 1012,9 hPa 0,0 l/m² 2,7 km/h (1 Bft) W-NW 288 ° 0 min 0 W/m² 17,5 °C 22,2 °C 4,8 km/h (1 Bft)
19.06.2023 21:52 23,4 °C 22,3 °C 61 % 74 % 1012,7 hPa 0,0 l/m² 3,1 km/h (1 Bft) W-NW 294 ° 0 min 0 W/m² 17,4 °C 22,3 °C 4,8 km/h (1 Bft)
19.06.2023 21:53 23,4 °C 22,3 °C 61 % 74 % 1012,8 hPa 0,0 l/m² 2,6 km/h (1 Bft) W-NW 295 ° 0 min 0 W/m² 17,4 °C 22,3 °C 4,8 km/h (1 Bft)
19.06.2023 21:54 23,4 °C 22,4 °C 61 % 74 % 1012,8 hPa 0,0 l/m² 2,6 km/h (1 Bft) W-NW 295 ° 0 min 0 W/m² 17,5 °C 22,4 °C 4,8 km/h (1 Bft)
19.06.2023 21:55 23,4 °C 22,4 °C 61 % 74 % 1012,8 hPa 0,0 l/m² 2,4 km/h (1 Bft) W-NW 297 ° 0 min 0 W/m² 17,5 °C 22,4 °C 4,8 km/h (1 Bft)
19.06.2023 21:56 23,4 °C 22,4 °C 61 % 74 % 1012,8 hPa 0,0 l/m² 2,5 km/h (1 Bft) W-NW 297 ° 0 min 0 W/m² 17,5 °C 22,4 °C 4,8 km/h (1 Bft)
19.06.2023 21:57 23,4 °C 22,4 °C 61 % 74 % 1012,8 hPa 0,0 l/m² 1,8 km/h (1 Bft) W-NW 297 ° 0 min 0 W/m² 17,5 °C 22,4 °C 3,2 km/h (1 Bft)
19.06.2023 21:58 23,4 °C 22,4 °C 61 % 74 % 1012,8 hPa 0,0 l/m² 2,0 km/h (1 Bft) W-NW 297 ° 0 min 0 W/m² 17,5 °C 22,4 °C 4,8 km/h (1 Bft)
19.06.2023 21:59 23,4 °C 22,4 °C 61 % 74 % 1012,8 hPa 0,0 l/m² 1,7 km/h (1 Bft) W-NW 297 ° 0 min 0 W/m² 17,5 °C 22,4 °C 3,2 km/h (1 Bft)
19.06.2023 22:00 23,4 °C 22,4 °C 61 % 74 % 1012,8 hPa 0,0 l/m² 2,5 km/h (1 Bft) W-NW 300 ° 0 min 0 W/m² 17,5 °C 22,4 °C 6,4 km/h (2 Bft)
19.06.2023 22:02 23,4 °C 22,3 °C 61 % 74 % 1012,8 hPa 0,0 l/m² 3,5 km/h (1 Bft) NW 322 ° 0 min 0 W/m² 17,4 °C 22,3 °C 6,4 km/h (2 Bft)
19.06.2023 22:03 23,4 °C 22,3 °C 61 % 74 % 1012,9 hPa 0,0 l/m² 2,0 km/h (1 Bft) NW 317 ° 0 min 0 W/m² 17,4 °C 22,3 °C 4,8 km/h (1 Bft)
19.06.2023 22:04 23,4 °C 22,2 °C 61 % 74 % 1012,9 hPa 0,0 l/m² 3,5 km/h (1 Bft) W 281 ° 0 min 0 W/m² 17,3 °C 22,2 °C 6,4 km/h (2 Bft)
19.06.2023 22:05 23,4 °C 22,3 °C 61 % 74 % 1012,9 hPa 0,0 l/m² 4,0 km/h (1 Bft) W-NW 290 ° 0 min 0 W/m² 17,4 °C 22,3 °C 6,4 km/h (2 Bft)
19.06.2023 22:06 23,4 °C 22,3 °C 61 % 74 % 1012,9 hPa 0,0 l/m² 3,6 km/h (1 Bft) NW 306 ° 0 min 0 W/m² 17,4 °C 22,3 °C 8,0 km/h (2 Bft)
19.06.2023 22:07 23,4 °C 22,2 °C 61 % 74 % 1012,9 hPa 0,0 l/m² 2,3 km/h (1 Bft) N-NW 331 ° 0 min 0 W/m² 17,3 °C 22,2 °C 4,8 km/h (1 Bft)
19.06.2023 22:08 23,4 °C 22,3 °C 61 % 74 % 1012,9 hPa 0,0 l/m² 3,3 km/h (1 Bft) NW 304 ° 0 min 0 W/m² 17,4 °C 22,3 °C 4,8 km/h (1 Bft)
19.06.2023 22:09 23,4 °C 22,3 °C 61 % 74 % 1012,9 hPa 0,0 l/m² 4,0 km/h (1 Bft) NW 313 ° 0 min 0 W/m² 17,4 °C 22,3 °C 8,0 km/h (2 Bft)
19.06.2023 22:10 23,4 °C 22,3 °C 61 % 74 % 1012,9 hPa 0,0 l/m² 2,8 km/h (1 Bft) N-NW 333 ° 0 min 0 W/m² 17,4 °C 22,3 °C 6,4 km/h (2 Bft)
19.06.2023 22:12 23,4 °C 22,3 °C 61 % 74 % 1012,9 hPa 0,0 l/m² 3,8 km/h (1 Bft) NW 325 ° 0 min 0 W/m² 17,4 °C 22,3 °C 8,0 km/h (2 Bft)
19.06.2023 22:13 23,4 °C 22,3 °C 61 % 74 % 1013,0 hPa 0,0 l/m² 1,6 km/h (1 Bft) NW 313 ° 0 min 0 W/m² 17,4 °C 22,3 °C 4,8 km/h (1 Bft)
19.06.2023 22:14 23,4 °C 22,3 °C 61 % 74 % 1013,0 hPa 0,0 l/m² 3,5 km/h (1 Bft) NW 314 ° 0 min 0 W/m² 17,4 °C 22,3 °C 6,4 km/h (2 Bft)
19.06.2023 22:15 23,4 °C 22,3 °C 61 % 74 % 1012,9 hPa 0,0 l/m² 3,6 km/h (1 Bft) W-NW 287 ° 0 min 0 W/m² 17,4 °C 22,3 °C 6,4 km/h (2 Bft)
19.06.2023 22:16 23,4 °C 22,3 °C 61 % 74 % 1012,9 hPa 0,0 l/m² 2,3 km/h (1 Bft) W-NW 300 ° 0 min 0 W/m² 17,4 °C 22,3 °C 3,2 km/h (1 Bft)
19.06.2023 22:17 23,4 °C 22,3 °C 61 % 74 % 1012,9 hPa 0,0 l/m² 3,2 km/h (1 Bft) NW 308 ° 0 min 0 W/m² 17,4 °C 22,3 °C 6,4 km/h (2 Bft)
19.06.2023 22:18 23,4 °C 22,3 °C 61 % 74 % 1012,9 hPa 0,0 l/m² 5,8 km/h (2 Bft) NW 308 ° 0 min 0 W/m² 17,4 °C 22,3 °C 8,0 km/h (2 Bft)
19.06.2023 22:19 23,4 °C 22,3 °C 61 % 74 % 1013,0 hPa 0,0 l/m² 2,3 km/h (1 Bft) W-NW 295 ° 0 min 0 W/m² 17,4 °C 22,3 °C 4,8 km/h (1 Bft)
19.06.2023 22:20 23,4 °C 22,3 °C 61 % 74 % 1013,0 hPa 0,0 l/m² 4,6 km/h (1 Bft) W-NW 302 ° 0 min 0 W/m² 17,4 °C 22,3 °C 8,0 km/h (2 Bft)
19.06.2023 22:21 23,4 °C 22,3 °C 61 % 74 % 1013,0 hPa 0,0 l/m² 5,8 km/h (2 Bft) NW 311 ° 0 min 0 W/m² 17,4 °C 22,3 °C 11,3 km/h (2 Bft)
19.06.2023 22:22 23,4 °C 22,3 °C 61 % 74 % 1013,0 hPa 0,0 l/m² 3,1 km/h (1 Bft) W-NW 300 ° 0 min 0 W/m² 17,4 °C 22,3 °C 4,8 km/h (1 Bft)
19.06.2023 22:23 23,4 °C 22,3 °C 61 % 73 % 1013,0 hPa 0,0 l/m² 6,1 km/h (2 Bft) W 273 ° 0 min 0 W/m² 17,2 °C 22,3 °C 14,5 km/h (3 Bft)
19.06.2023 22:24 23,4 °C 22,3 °C 61 % 73 % 1013,0 hPa 0,0 l/m² 2,3 km/h (1 Bft) NW 304 ° 0 min 0 W/m² 17,2 °C 22,3 °C 6,4 km/h (2 Bft)
19.06.2023 22:25 23,4 °C 22,3 °C 61 % 73 % 1013,0 hPa 0,0 l/m² 2,2 km/h (1 Bft) NW 321 ° 0 min 0 W/m² 17,2 °C 22,3 °C 9,7 km/h (2 Bft)
19.06.2023 22:26 23,4 °C 22,3 °C 61 % 73 % 1013,1 hPa 0,0 l/m² 2,0 km/h (1 Bft) N-NW 327 ° 0 min 0 W/m² 17,2 °C 22,3 °C 4,8 km/h (1 Bft)
19.06.2023 22:27 23,4 °C 22,3 °C 61 % 73 % 1013,1 hPa 0,0 l/m² 0,9 km/h (0 Bft) W-NW 286 ° 0 min 0 W/m² 17,2 °C 22,3 °C 3,2 km/h (1 Bft)
19.06.2023 22:28 23,4 °C 22,3 °C 61 % 73 % 1013,0 hPa 0,0 l/m² 0,7 km/h (0 Bft) W 275 ° 0 min 0 W/m² 17,2 °C 22,3 °C 3,2 km/h (1 Bft)
19.06.2023 22:29 23,4 °C 22,3 °C 61 % 73 % 1013,0 hPa 0,0 l/m² 0,7 km/h (0 Bft) W 275 ° 0 min 0 W/m² 17,2 °C 22,3 °C 1,6 km/h (1 Bft)
19.06.2023 22:30 23,4 °C 22,3 °C 61 % 73 % 1013,1 hPa 0,0 l/m² 2,9 km/h (1 Bft) W-NW 293 ° 0 min 0 W/m² 17,2 °C 22,3 °C 4,8 km/h (1 Bft)
19.06.2023 22:31 23,4 °C 22,3 °C 61 % 73 % 1013,1 hPa 0,0 l/m² 1,2 km/h (1 Bft) N-NW 330 ° 0 min 0 W/m² 17,2 °C 22,3 °C 3,2 km/h (1 Bft)
19.06.2023 22:32 23,4 °C 22,3 °C 61 % 73 % 1013,0 hPa 0,0 l/m² 2,1 km/h (1 Bft) NW 317 ° 0 min 0 W/m² 17,2 °C 22,3 °C 4,8 km/h (1 Bft)
19.06.2023 22:33 23,4 °C 22,3 °C 61 % 73 % 1013,0 hPa 0,0 l/m² 2,4 km/h (1 Bft) W-NW 288 ° 0 min 0 W/m² 17,2 °C 22,3 °C 4,8 km/h (1 Bft)
19.06.2023 22:34 23,4 °C 22,2 °C 61 % 73 % 1013,1 hPa 0,0 l/m² 2,3 km/h (1 Bft) W 279 ° 0 min 0 W/m² 17,1 °C 22,2 °C 4,8 km/h (1 Bft)
19.06.2023 22:35 23,4 °C 22,2 °C 61 % 73 % 1013,1 hPa 0,0 l/m² 3,7 km/h (1 Bft) N-NW 329 ° 0 min 0 W/m² 17,1 °C 22,2 °C 6,4 km/h (2 Bft)
19.06.2023 22:36 23,4 °C 22,2 °C 61 % 73 % 1013,1 hPa 0,0 l/m² 3,9 km/h (1 Bft) N-NW 328 ° 0 min 0 W/m² 17,1 °C 22,2 °C 6,4 km/h (2 Bft)
19.06.2023 22:37 23,4 °C 22,2 °C 61 % 74 % 1013,1 hPa 0,0 l/m² 2,7 km/h (1 Bft) W 271 ° 0 min 0 W/m² 17,3 °C 22,2 °C 4,8 km/h (1 Bft)
19.06.2023 22:38 23,4 °C 22,2 °C 61 % 74 % 1013,1 hPa 0,0 l/m² 0,8 km/h (0 Bft) W-NW 288 ° 0 min 0 W/m² 17,3 °C 22,2 °C 3,2 km/h (1 Bft)
19.06.2023 22:39 23,4 °C 22,2 °C 61 % 74 % 1013,1 hPa 0,0 l/m² 1,1 km/h (1 Bft) W 261 ° 0 min 0 W/m² 17,3 °C 22,2 °C 3,2 km/h (1 Bft)
19.06.2023 22:40 23,4 °C 22,2 °C 61 % 74 % 1013,1 hPa 0,0 l/m² 0,6 km/h (0 Bft) W 272 ° 0 min 0 W/m² 17,3 °C 22,2 °C 3,2 km/h (1 Bft)
19.06.2023 22:41 23,4 °C 22,2 °C 61 % 73 % 1013,2 hPa 0,0 l/m² 1,3 km/h (1 Bft) W-NW 291 ° 0 min 0 W/m² 17,1 °C 22,2 °C 4,8 km/h (1 Bft)
19.06.2023 22:42 23,4 °C 22,2 °C 61 % 73 % 1013,1 hPa 0,0 l/m² 3,6 km/h (1 Bft) NW 317 ° 0 min 0 W/m² 17,1 °C 22,2 °C 6,4 km/h (2 Bft)
19.06.2023 22:43 23,4 °C 22,2 °C 61 % 73 % 1013,1 hPa 0,0 l/m² 0,7 km/h (0 Bft) W-NW 290 ° 0 min 0 W/m² 17,1 °C 22,2 °C 3,2 km/h (1 Bft)
19.06.2023 22:44 23,4 °C 22,2 °C 61 % 73 % 1013,1 hPa 0,0 l/m² 2,3 km/h (1 Bft) NW 320 ° 0 min 0 W/m² 17,1 °C 22,2 °C 6,4 km/h (2 Bft)
19.06.2023 22:45 23,4 °C 22,2 °C 61 % 73 % 1013,1 hPa 0,0 l/m² 2,0 km/h (1 Bft) N-NW 335 ° 0 min 0 W/m² 17,1 °C 22,2 °C 3,2 km/h (1 Bft)
19.06.2023 22:46 23,4 °C 22,2 °C 61 % 73 % 1013,2 hPa 0,0 l/m² 1,1 km/h (1 Bft) NW 323 ° 0 min 0 W/m² 17,1 °C 22,2 °C 4,8 km/h (1 Bft)
19.06.2023 22:47 23,4 °C 22,2 °C 61 % 73 % 1013,1 hPa 0,0 l/m² 0,2 km/h (0 Bft) NW 323 ° 0 min 0 W/m² 17,1 °C 22,2 °C 1,6 km/h (1 Bft)
19.06.2023 22:48 23,4 °C 22,2 °C 61 % 73 % 1013,2 hPa 0,0 l/m² 4,8 km/h (1 Bft) N-NW 342 ° 0 min 0 W/m² 17,1 °C 22,2 °C 9,7 km/h (2 Bft)
19.06.2023 22:49 23,4 °C 22,2 °C 61 % 73 % 1013,1 hPa 0,0 l/m² 2,7 km/h (1 Bft) NW 318 ° 0 min 0 W/m² 17,1 °C 22,2 °C 4,8 km/h (1 Bft)
19.06.2023 22:50 23,4 °C 22,2 °C 61 % 73 % 1013,1 hPa 0,0 l/m² 0,0 km/h (0 Bft) NW 317 ° 0 min 0 W/m² 17,1 °C 22,2 °C 0,0 km/h (0 Bft)
19.06.2023 22:51 23,4 °C 22,2 °C 61 % 73 % 1013,1 hPa 0,0 l/m² 3,6 km/h (1 Bft) W 275 ° 0 min 0 W/m² 17,1 °C 22,2 °C 9,7 km/h (2 Bft)
19.06.2023 22:52 23,5 °C 22,2 °C 61 % 73 % 1013,1 hPa 0,0 l/m² 0,6 km/h (0 Bft) W-NW 282 ° 0 min 0 W/m² 17,1 °C 22,2 °C 1,6 km/h (1 Bft)
19.06.2023 22:53 23,5 °C 22,2 °C 61 % 73 % 1013,1 hPa 0,0 l/m² 0,2 km/h (0 Bft) W-NW 282 ° 0 min 0 W/m² 17,1 °C 22,2 °C 1,6 km/h (1 Bft)
19.06.2023 22:54 23,5 °C 22,3 °C 61 % 73 % 1013,1 hPa 0,0 l/m² 1,9 km/h (1 Bft) W-NW 287 ° 0 min 0 W/m² 17,2 °C 22,3 °C 3,2 km/h (1 Bft)
19.06.2023 22:55 23,5 °C 22,3 °C 61 % 73 % 1013,1 hPa 0,0 l/m² 2,5 km/h (1 Bft) NW 308 ° 0 min 0 W/m² 17,2 °C 22,3 °C 6,4 km/h (2 Bft)
19.06.2023 22:56 23,5 °C 22,3 °C 61 % 73 % 1013,1 hPa 0,0 l/m² 4,0 km/h (1 Bft) NW 319 ° 0 min 0 W/m² 17,2 °C 22,3 °C 6,4 km/h (2 Bft)
19.06.2023 22:57 23,4 °C 22,2 °C 61 % 73 % 1013,1 hPa 0,0 l/m² 0,3 km/h (0 Bft) NW 315 ° 0 min 0 W/m² 17,1 °C 22,2 °C 1,6 km/h (1 Bft)
19.06.2023 22:58 23,4 °C 22,2 °C 61 % 73 % 1013,2 hPa 0,0 l/m² 3,1 km/h (1 Bft) NW 319 ° 0 min 0 W/m² 17,1 °C 22,2 °C 9,7 km/h (2 Bft)
19.06.2023 22:59 23,4 °C 22,2 °C 60 % 73 % 1013,1 hPa 0,0 l/m² 0,9 km/h (0 Bft) NW 324 ° 0 min 0 W/m² 17,1 °C 22,2 °C 4,8 km/h (1 Bft)
19.06.2023 23:00 23,4 °C 22,2 °C 60 % 73 % 1013,1 hPa 0,0 l/m² 0,2 km/h (0 Bft) NW 320 ° 0 min 0 W/m² 17,1 °C 22,2 °C 1,6 km/h (1 Bft)
19.06.2023 23:01 23,4 °C 22,2 °C 60 % 73 % 1013,1 hPa 0,0 l/m² 1,1 km/h (1 Bft) NW 305 ° 0 min 0 W/m² 17,1 °C 22,2 °C 3,2 km/h (1 Bft)
19.06.2023 23:02 23,4 °C 22,2 °C 60 % 73 % 1013,1 hPa 0,0 l/m² 3,7 km/h (1 Bft) NW 315 ° 0 min 0 W/m² 17,1 °C 22,2 °C 6,4 km/h (2 Bft)
19.06.2023 23:03 23,4 °C 22,2 °C 60 % 73 % 1013,1 hPa 0,0 l/m² 0,4 km/h (0 Bft) N-NW 327 ° 0 min 0 W/m² 17,1 °C 22,2 °C 3,2 km/h (1 Bft)
19.06.2023 23:04 23,4 °C 22,2 °C 60 % 73 % 1013,1 hPa 0,0 l/m² 3,2 km/h (1 Bft) W 262 ° 0 min 0 W/m² 17,1 °C 22,2 °C 4,8 km/h (1 Bft)
19.06.2023 23:05 23,4 °C 22,2 °C 60 % 73 % 1013,2 hPa 0,0 l/m² 0,8 km/h (0 Bft) W 278 ° 0 min 0 W/m² 17,1 °C 22,2 °C 3,2 km/h (1 Bft)
19.06.2023 23:06 23,4 °C 22,1 °C 60 % 74 % 1013,1 hPa 0,0 l/m² 1,6 km/h (1 Bft) W 278 ° 0 min 0 W/m² 17,2 °C 22,1 °C 3,2 km/h (1 Bft)
19.06.2023 23:07 23,4 °C 22,1 °C 60 % 74 % 1013,2 hPa 0,0 l/m² 1,3 km/h (1 Bft) N-NW 329 ° 0 min 0 W/m² 17,2 °C 22,1 °C 6,4 km/h (2 Bft)
19.06.2023 23:08 23,4 °C 22,0 °C 60 % 74 % 1013,2 hPa 0,0 l/m² 2,4 km/h (1 Bft) NW 308 ° 0 min 0 W/m² 17,1 °C 22,0 °C 4,8 km/h (1 Bft)
19.06.2023 23:09 23,4 °C 21,9 °C 60 % 74 % 1013,1 hPa 0,0 l/m² 4,2 km/h (1 Bft) W 278 ° 0 min 0 W/m² 17,0 °C 21,9 °C 6,4 km/h (2 Bft)
19.06.2023 23:10 23,4 °C 21,9 °C 60 % 74 % 1013,2 hPa 0,0 l/m² 3,4 km/h (1 Bft) W-NW 285 ° 0 min 0 W/m² 17,0 °C 21,9 °C 4,8 km/h (1 Bft)
19.06.2023 23:11 23,4 °C 21,9 °C 60 % 74 % 1013,1 hPa 0,0 l/m² 0,9 km/h (0 Bft) W-NW 284 ° 0 min 0 W/m² 17,0 °C 21,9 °C 3,2 km/h (1 Bft)
19.06.2023 23:12 23,4 °C 21,7 °C 60 % 74 % 1013,2 hPa 0,0 l/m² 0,9 km/h (0 Bft) W 275 ° 0 min 0 W/m² 16,9 °C 21,7 °C 3,2 km/h (1 Bft)
19.06.2023 23:13 23,4 °C 21,7 °C 60 % 74 % 1013,2 hPa 0,0 l/m² 2,1 km/h (1 Bft) W-NW 294 ° 0 min 0 W/m² 16,9 °C 21,7 °C 4,8 km/h (1 Bft)
19.06.2023 23:14 23,4 °C 21,6 °C 60 % 75 % 1013,3 hPa 0,0 l/m² 2,8 km/h (1 Bft) W 263 ° 0 min 0 W/m² 17,0 °C 21,6 °C 8,0 km/h (2 Bft)
19.06.2023 23:15 23,4 °C 21,4 °C 60 % 75 % 1013,2 hPa 0,0 l/m² 3,4 km/h (1 Bft) NW 315 ° 0 min 0 W/m² 16,8 °C 21,4 °C 6,4 km/h (2 Bft)
19.06.2023 23:16 23,4 °C 21,4 °C 60 % 75 % 1013,2 hPa 0,0 l/m² 1,6 km/h (1 Bft) W 270 ° 0 min 0 W/m² 16,8 °C 21,4 °C 3,2 km/h (1 Bft)
19.06.2023 23:22 23,4 °C 20,9 °C 60 % 76 % 1013,2 hPa 0,0 l/m² 2,0 km/h (1 Bft) W-NW 303 ° 0 min 0 W/m² 16,5 °C 20,9 °C 4,8 km/h (1 Bft)
19.06.2023 23:24 23,4 °C 21,0 °C 60 % 76 % 1013,2 hPa 0,0 l/m² 2,7 km/h (1 Bft) W-NW 290 ° 0 min 0 W/m² 16,6 °C 21,0 °C 6,4 km/h (2 Bft)
19.06.2023 23:25 23,4 °C 21,1 °C 60 % 76 % 1013,2 hPa 0,0 l/m² 2,9 km/h (1 Bft) W-NW 292 ° 0 min 0 W/m² 16,7 °C 21,1 °C 6,4 km/h (2 Bft)
19.06.2023 23:26 23,4 °C 21,1 °C 60 % 76 % 1013,2 hPa 0,0 l/m² 1,8 km/h (1 Bft) NW 306 ° 0 min 0 W/m² 16,7 °C 21,1 °C 4,8 km/h (1 Bft)
19.06.2023 23:28 23,4 °C 21,1 °C 60 % 76 % 1013,3 hPa 0,0 l/m² 1,1 km/h (1 Bft) W-NW 287 ° 0 min 0 W/m² 16,7 °C 21,1 °C 4,8 km/h (1 Bft)
19.06.2023 23:30 23,3 °C 21,1 °C 60 % 76 % 1013,2 hPa 0,0 l/m² 1,4 km/h (1 Bft) W 273 ° 0 min 0 W/m² 16,7 °C 21,1 °C 4,8 km/h (1 Bft)
19.06.2023 23:31 23,4 °C 21,1 °C 60 % 76 % 1013,3 hPa 0,0 l/m² 3,7 km/h (1 Bft) W-NW 288 ° 0 min 0 W/m² 16,7 °C 21,1 °C 8,0 km/h (2 Bft)
19.06.2023 23:32 23,4 °C 21,2 °C 60 % 76 % 1013,3 hPa 0,0 l/m² 4,1 km/h (1 Bft) W 271 ° 0 min 0 W/m² 16,8 °C 21,2 °C 8,0 km/h (2 Bft)
19.06.2023 23:34 23,3 °C 21,2 °C 60 % 76 % 1013,3 hPa 0,0 l/m² 1,5 km/h (1 Bft) W-NW 302 ° 0 min 0 W/m² 16,8 °C 21,2 °C 4,8 km/h (1 Bft)
19.06.2023 23:35 23,4 °C 21,2 °C 60 % 76 % 1013,3 hPa 0,0 l/m² 2,4 km/h (1 Bft) W-NW 298 ° 0 min 0 W/m² 16,8 °C 21,2 °C 4,8 km/h (1 Bft)
19.06.2023 23:37 23,4 °C 21,2 °C 60 % 76 % 1013,3 hPa 0,0 l/m² 2,7 km/h (1 Bft) NW 323 ° 0 min 0 W/m² 16,8 °C 21,2 °C 6,4 km/h (2 Bft)
19.06.2023 23:39 23,4 °C 21,3 °C 60 % 76 % 1013,3 hPa 0,0 l/m² 3,0 km/h (1 Bft) NW 306 ° 0 min 0 W/m² 16,9 °C 21,3 °C 6,4 km/h (2 Bft)
19.06.2023 23:40 23,3 °C 21,3 °C 60 % 75 % 1013,4 hPa 0,0 l/m² 0,2 km/h (0 Bft) NW 304 ° 0 min 0 W/m² 16,7 °C 21,3 °C 1,6 km/h (1 Bft)
19.06.2023 23:41 23,3 °C 21,3 °C 60 % 75 % 1013,3 hPa 0,0 l/m² 0,0 km/h (0 Bft) W-NW 303 ° 0 min 0 W/m² 16,7 °C 21,3 °C 0,0 km/h (0 Bft)
19.06.2023 23:42 23,3 °C 21,3 °C 60 % 75 % 1013,3 hPa 0,0 l/m² 0,7 km/h (0 Bft) W 262 ° 0 min 0 W/m² 16,7 °C 21,3 °C 3,2 km/h (1 Bft)
19.06.2023 23:44 23,4 °C 21,3 °C 60 % 75 % 1013,4 hPa 0,0 l/m² 0,0 km/h (0 Bft) W 262 ° 0 min 0 W/m² 16,7 °C 21,3 °C 0,0 km/h (0 Bft)
19.06.2023 23:45 23,3 °C 21,3 °C 60 % 75 % 1013,4 hPa 0,0 l/m² 0,0 km/h (0 Bft) W 262 ° 0 min 0 W/m² 16,7 °C 21,3 °C 0,0 km/h (0 Bft)
19.06.2023 23:47 23,3 °C 21,2 °C 60 % 76 % 1013,3 hPa 0,0 l/m² 1,1 km/h (1 Bft) W-SW 257 ° 0 min 0 W/m² 16,8 °C 21,2 °C 3,2 km/h (1 Bft)
19.06.2023 23:49 23,3 °C 21,2 °C 60 % 76 % 1013,3 hPa 0,0 l/m² 0,3 km/h (0 Bft) W-SW 258 ° 0 min 0 W/m² 16,8 °C 21,2 °C 1,6 km/h (1 Bft)
19.06.2023 23:50 23,3 °C 21,1 °C 60 % 76 % 1013,3 hPa 0,0 l/m² 0,1 km/h (0 Bft) W-SW 258 ° 0 min 0 W/m² 16,7 °C 21,1 °C 1,6 km/h (1 Bft)
19.06.2023 23:51 23,3 °C 20,9 °C 60 % 76 % 1013,3 hPa 0,0 l/m² 0,7 km/h (0 Bft) W-SW 258 ° 0 min 0 W/m² 16,5 °C 20,9 °C 3,2 km/h (1 Bft)
19.06.2023 23:52 23,3 °C 20,9 °C 60 % 76 % 1013,3 hPa 0,0 l/m² 0,5 km/h (0 Bft) W-SW 258 ° 0 min 0 W/m² 16,5 °C 20,9 °C 1,6 km/h (1 Bft)
19.06.2023 23:54 23,3 °C 20,8 °C 60 % 77 % 1013,3 hPa 0,0 l/m² 0,4 km/h (0 Bft) W 259 ° 0 min 0 W/m² 16,6 °C 20,8 °C 3,2 km/h (1 Bft)
19.06.2023 23:55 23,3 °C 20,7 °C 60 % 77 % 1013,4 hPa 0,0 l/m² 0,0 km/h (0 Bft) W 259 ° 0 min 0 W/m² 16,5 °C 20,7 °C 0,0 km/h (0 Bft)
19.06.2023 23:57 23,3 °C 20,6 °C 60 % 78 % 1013,3 hPa 0,0 l/m² 1,1 km/h (1 Bft) W-SW 237 ° 0 min 0 W/m² 16,6 °C 20,6 °C 3,2 km/h (1 Bft)
19.06.2023 23:59 23,3 °C 20,3 °C 60 % 79 % 1013,4 hPa 0,0 l/m² 2,1 km/h (1 Bft) W-SW 237 ° 0 min 0 W/m² 16,5 °C 20,3 °C 3,2 km/h (1 Bft)
_ Min-Zeit 09:22 01:58 12:03 14:46 18:55 - 23:55 - - - - 01:47 01:58 23:55
Minimum _ 22,4 °C 15,8 °C 56 % 36 % 1011,2 hPa - 0,0 km/h (0 Bft) - - - - 12,5 °C 15,8 °C 0,0 km/h (0 Bft)
_ Max-Zeit 22:56 15:03 22:58 09:11 23:59 23:59 18:59 - - 13:16 12:33 18:12 15:03 19:11
Maximum _ 23,5 °C 32,1 °C 61 % 86 % 1013,4 hPa 0,0 l/m² 18,2 km/h
S (3 Bft)
- - 5 min 1169 W/m² 18,9 °C 31,9 °C 27,4 km/h
S-SO (5 Bft)
Durchschnitt _ 22,9 °C 22,9 °C 58 % 66 % 1012,3 hPa #0,0 l/m² 3,6 km/h (1 Bft) O-NO - #12:43 h 229 W/m² 15,6 °C 22,8 °C 5,9 km/h (2 Bft)
© 2009 Mathias Hoßbach